[[{"header":{"parameterUnit":"m.s-1","parameterCategory":1,"la1":30.6,"la2":29.2853,"lo1":-89.7004,"lo2":-87.6739,"dy":0.0162,"dx":0.0183,"nx":112,"ny":82,"refTime":"2023-08-04T06:00:00:Z","depth":0,"parameterNumber":2,"parameterNumberName":"U-component_of_WINDS"},"data":[0.0,0.0,0.0,0.0,0.0,0.0,0.0,0.0,0.0,0.0,0.0,0.0,0.0,0.0,0.0,0.0,0.0,0.0,0.0,0.0,0.0,0.0,0.0,0.0,0.0,0.0,0.0,0.0,0.0,0.0,0.0,0.0,0.0,0.0,0.0,0.0,0.0,0.0,0.0,0.0,0.0,0.0,0.0,0.0,0.0,0.0,0.0,0.0,0.0,0.0,0.0,0.0,0.0,0.0,0.0,0.0,0.0,0.0,0.0,0.0,0.0,0.0,0.0,0.0,0.0,0.0,0.0,0.0,0.0,0.0,0.0,0.0,0.0,0.0,0.0,0.0,0.0,0.0,0.0,0.0,0.0,0.0,0.0,0.0,0.0,0.0,0.0,0.0,0.0,0.0,0.0,-1.5391,-1.9075,-2.1619,-2.2259,-2.3113,-2.2523,-1.9962,0.0,0.0,0.0,0.0,0.0,0.0,0.0,0.0,0.0,0.0,0.0,0.0,0.0,0.0,0.0,0.0,0.0,0.0,0.0,0.0,0.0,0.0,0.0,0.0,0.0,0.0,0.0,0.0,0.0,0.0,0.0,0.0,0.0,0.0,0.0,0.0,0.0,0.0,0.0,0.0,0.0,0.0,0.0,0.0,0.0,0.0,0.0,0.0,0.0,0.0,0.0,0.0,0.0,0.0,0.0,0.0,0.0,0.0,0.0,0.0,0.0,0.0,0.0,0.0,0.0,0.0,0.0,0.0,0.0,0.0,0.0,0.0,0.0,0.0,0.0,0.0,0.0,0.0,0.0,0.0,0.0,0.0,0.0,0.0,0.0,0.0,0.0,0.0,0.0,0.0,0.0,0.0,0.0,0.0,0.0,0.0,0.0,0.0,0.0,0.0,0.0,0.0,0.0,0.0,-1.476,-1.745,-1.9571,-2.1232,-2.2221,-2.2046,-2.128,-1.9886,0.0,0.0,0.0,0.0,0.0,0.0,0.0,0.0,0.0,0.0,0.0,0.0,0.0,0.0,0.0,0.0,0.0,0.0,0.0,0.0,0.0,0.0,0.0,0.0,0.0,0.0,0.0,0.0,0.0,0.0,0.0,0.0,0.0,0.0,0.0,0.0,0.0,0.0,0.0,0.0,0.0,0.0,0.0,0.0,0.0,0.0,0.0,0.0,0.0,0.0,0.0,0.0,0.0,0.0,0.0,0.0,0.0,0.0,0.0,0.0,0.0,0.0,0.0,0.0,0.0,0.0,0.0,0.0,0.0,0.0,0.0,0.0,0.0,0.0,0.0,0.0,0.0,0.0,0.0,0.0,0.0,0.0,0.0,0.0,0.0,0.0,0.0,0.0,0.0,0.0,0.0,0.0,0.0,0.0,0.0,0.0,0.0,0.0,0.0,0.0,0.0,0.0,0.0,-1.3921,-1.5533,-1.7945,-1.9397,-2.0553,-2.1343,-2.1219,-2.0564,-1.9447,-1.9346,0.0,0.0,0.0,0.0,0.0,0.0,0.0,0.0,0.0,0.0,0.0,0.0,0.0,0.0,0.0,0.0,0.0,0.0,0.0,0.0,0.0,0.0,0.0,0.0,0.0,0.0,0.0,0.0,0.0,0.0,0.0,0.0,0.0,0.0,0.0,0.0,0.0,0.0,0.0,0.0,0.0,0.0,0.0,0.0,0.0,0.0,0.0,0.0,0.0,0.0,0.0,0.0,0.0,0.0,0.0,0.0,0.0,0.0,0.0,0.0,0.0,0.0,0.0,0.0,0.0,0.0,0.0,0.0,0.0,0.0,0.0,0.0,0.0,0.0,0.0,0.0,0.0,0.0,0.0,0.0,0.0,0.0,0.0,0.0,0.0,0.0,0.0,0.0,0.0,0.0,0.0,0.0,0.0,0.0,0.0,0.0,0.0,0.0,0.0,0.0,0.0,0.0,-1.457,-1.5617,-1.7768,-1.8982,-1.9849,-2.044,-2.049,-2.0049,-1.9058,-1.8392,0.0,0.0,0.0,0.0,0.0,0.0,0.0,0.0,0.0,0.0,0.0,0.0,0.0,0.0,0.0,0.0,0.0,0.0,0.0,0.0,0.0,0.0,0.0,0.0,0.0,0.0,0.0,0.0,0.0,0.0,0.0,0.0,0.0,0.0,0.0,0.0,0.0,0.0,0.0,0.0,0.0,0.0,0.0,0.0,0.0,0.0,0.0,0.0,0.0,0.0,0.0,0.0,0.0,0.0,0.0,0.0,0.0,0.0,0.0,0.0,0.0,0.0,0.0,0.0,0.0,0.0,0.0,0.0,0.0,0.0,0.0,0.0,0.0,0.0,0.0,0.0,0.0,0.0,0.0,0.0,0.0,0.0,0.0,0.0,0.0,0.0,0.0,0.0,0.0,0.0,0.0,0.0,0.0,0.0,0.0,0.0,0.0,0.0,0.0,0.0,0.0,0.0,-1.4044,-1.4604,-1.7177,-1.843,-1.9271,-1.9823,-1.9861,-1.9623,-1.9045,-1.8028,0.0,0.0,0.0,0.0,0.0,0.0,0.0,0.0,0.0,0.0,0.0,0.0,0.0,0.0,0.0,0.0,0.0,0.0,0.0,0.0,0.0,0.0,0.0,0.0,0.0,0.0,0.0,0.0,0.0,0.0,0.0,0.0,0.0,0.0,0.0,0.0,0.0,0.0,0.0,0.0,0.0,0.0,0.0,0.0,0.0,0.0,0.0,0.0,0.0,0.0,0.0,0.0,0.0,0.0,0.0,0.0,0.0,0.0,0.0,0.0,0.0,0.0,0.0,0.0,0.0,0.0,0.0,0.0,0.0,0.0,0.0,0.0,0.0,0.0,0.0,0.0,0.0,0.0,0.0,0.0,0.0,0.0,0.0,0.0,0.0,0.0,0.0,0.0,0.0,0.0,0.0,0.0,0.0,0.0,0.0,0.0,0.0,0.0,0.0,0.0,0.0,0.0,-1.4803,-1.5512,0.0,-1.8066,-1.8707,-1.9246,-1.9296,-1.9058,-1.8531,0.0,0.0,0.0,0.0,0.0,0.0,0.0,0.0,0.0,0.0,0.0,0.0,0.0,0.0,0.0,0.0,0.0,0.0,0.0,0.0,0.0,0.0,0.0,0.0,0.0,0.0,0.0,0.0,0.0,0.0,0.0,0.0,0.0,0.0,0.0,0.0,0.0,0.0,0.0,0.0,0.0,0.0,0.0,0.0,0.0,0.0,0.0,0.0,0.0,0.0,0.0,0.0,0.0,0.0,0.0,0.0,0.0,0.0,0.0,0.0,0.0,0.0,0.0,0.0,0.0,0.0,0.0,0.0,0.0,0.0,0.0,0.0,0.0,0.0,0.0,0.0,0.0,0.0,0.0,0.0,0.0,0.0,0.0,0.0,0.0,0.0,0.0,0.0,0.0,0.0,0.0,0.0,0.0,0.0,0.0,0.0,0.0,0.0,0.0,0.0,0.0,0.0,-1.4597,-1.5145,-1.5869,0.0,-1.7601,-1.8091,-1.8456,-1.8481,-1.8342,-1.7965,0.0,0.0,0.0,0.0,0.0,0.0,0.0,0.0,0.0,0.0,0.0,0.0,0.0,0.0,0.0,0.0,0.0,0.0,0.0,0.0,0.0,0.0,0.0,0.0,0.0,0.0,0.0,0.0,0.0,0.0,0.0,0.0,0.0,0.0,0.0,0.0,0.0,0.0,0.0,0.0,0.0,0.0,0.0,0.0,0.0,0.0,0.0,0.0,0.0,0.0,0.0,0.0,0.0,0.0,0.0,0.0,0.0,0.0,0.0,0.0,0.0,0.0,0.0,0.0,0.0,0.0,0.0,0.0,0.0,0.0,0.0,0.0,0.0,0.0,0.0,0.0,0.0,0.0,0.0,0.0,0.0,0.0,0.0,0.0,0.0,0.0,0.0,0.0,0.0,0.0,0.0,0.0,0.0,0.0,0.0,0.0,0.0,0.0,0.0,0.0,0.0,0.0,-1.4552,-1.4833,-1.5311,-1.6387,-1.7036,-1.741,-1.741,-1.741,-1.741,0.0,0.0,0.0,0.0,0.0,0.0,0.0,0.0,0.0,0.0,0.0,0.0,0.0,0.0,0.0,0.0,0.0,0.0,0.0,0.0,0.0,0.0,0.0,0.0,0.0,0.0,0.0,0.0,0.0,0.0,0.0,0.0,0.0,0.0,0.0,0.0,0.0,0.0,0.0,0.0,0.0,0.0,0.0,0.0,0.0,0.0,0.0,0.0,0.0,0.0,0.0,0.0,0.0,0.0,0.0,0.0,0.0,0.0,0.0,0.0,0.0,0.0,0.0,0.0,0.0,0.0,0.0,0.0,0.0,0.0,0.0,0.0,0.0,0.0,0.0,0.0,0.0,0.0,0.0,0.0,0.0,0.0,0.0,0.0,0.0,0.0,0.0,0.0,0.0,0.0,0.0,0.0,0.0,0.0,0.0,0.0,0.0,0.0,0.0,0.0,0.0,0.0,0.0,-1.4597,-1.4833,-1.5311,-1.6387,-1.7036,-1.741,-1.741,-1.741,-1.741,-1.741,0.0,0.0,0.0,0.0,0.0,0.0,0.0,0.0,0.0,0.0,0.0,0.0,0.0,0.0,0.0,0.0,0.0,0.0,0.0,0.0,0.0,0.0,0.0,0.0,0.0,0.0,0.0,0.0,0.0,0.0,0.0,0.0,0.0,0.0,0.0,0.0,0.0,0.0,0.0,0.0,0.0,0.0,0.0,0.0,0.0,0.0,0.0,0.0,0.0,0.0,0.0,0.0,0.0,0.0,0.0,0.0,0.0,0.0,0.0,0.0,0.0,0.0,0.0,0.0,0.0,0.0,0.0,0.0,0.0,0.0,0.0,0.0,0.0,0.0,0.0,0.0,0.0,0.0,0.0,0.0,0.0,0.0,0.0,0.0,0.0,0.0,0.0,0.0,0.0,0.0,0.0,0.0,0.0,0.0,0.0,0.0,0.0,0.0,0.0,0.0,0.0,0.0,-1.4948,-1.4966,-1.5311,-1.6387,-1.6823,-1.7036,-1.7036,-1.7036,-1.7036,-1.7036,0.0,0.0,0.0,0.0,0.0,0.0,0.0,0.0,0.0,0.0,0.0,0.0,0.0,0.0,0.0,0.0,0.0,0.0,0.0,0.0,0.0,0.0,0.0,0.0,0.0,0.0,0.0,0.0,0.0,0.0,0.0,0.0,0.0,0.0,0.0,0.0,0.0,0.0,0.0,0.0,0.0,0.0,0.0,0.0,0.0,0.0,0.0,0.0,0.0,0.0,0.0,0.0,0.0,0.0,0.0,0.0,0.0,0.0,0.0,0.0,0.0,0.0,0.0,0.0,0.0,0.0,0.0,0.0,0.0,0.0,0.0,0.0,0.0,0.0,0.0,0.0,0.0,0.0,0.0,0.0,0.0,0.0,0.0,0.0,0.0,0.0,0.0,0.0,0.0,0.0,0.0,0.0,0.0,0.0,0.0,0.0,0.0,0.0,0.0,0.0,0.0,0.0,-1.5533,-1.5258,-1.5399,-1.6463,-1.6525,-1.6525,-1.6575,-1.6525,-1.65,-1.65,0.0,0.0,0.0,0.0,0.0,0.0,0.0,0.0,0.0,0.0,0.0,0.0,0.0,0.0,0.0,0.0,0.0,0.0,0.0,0.0,0.0,0.0,0.0,0.0,0.0,0.0,0.0,0.0,0.0,0.0,0.0,0.0,0.0,0.0,0.0,0.0,0.0,0.0,0.0,0.0,0.0,0.0,0.0,0.0,0.0,0.0,0.0,0.0,0.0,0.0,0.0,0.0,0.0,0.0,0.0,0.0,0.0,0.0,0.0,0.0,-1.5832,0.0,0.0,0.0,0.0,0.0,0.0,0.0,0.0,0.0,0.0,0.0,0.0,0.0,0.0,0.0,0.0,0.0,0.0,0.0,0.0,0.0,0.0,0.0,0.0,0.0,0.0,0.0,0.0,0.0,0.0,0.0,0.0,0.0,0.0,0.0,0.0,0.0,0.0,0.0,0.0,0.0,-1.6113,-1.581,-1.5944,-1.7096,-1.6785,-1.6697,-1.7162,-1.6773,-1.65,-1.65,-1.65,0.0,0.0,0.0,0.0,0.0,0.0,0.0,0.0,0.0,0.0,0.0,0.0,0.0,0.0,0.0,0.0,0.0,0.0,0.0,0.0,0.0,0.0,0.0,0.0,0.0,0.0,0.0,0.0,0.0,0.0,0.0,0.0,0.0,0.0,0.0,0.0,0.0,0.0,0.0,0.0,0.0,0.0,0.0,0.0,0.0,0.0,0.0,0.0,0.0,0.0,0.0,0.0,0.0,0.0,0.0,0.0,0.0,0.0,0.0,0.0,-1.8533,0.0,0.0,0.0,0.0,0.0,0.0,0.0,0.0,0.0,0.0,0.0,0.0,0.0,0.0,0.0,0.0,0.0,0.0,0.0,0.0,0.0,0.0,0.0,0.0,0.0,0.0,0.0,0.0,0.0,0.0,0.0,0.0,0.0,0.0,0.0,0.0,0.0,0.0,0.0,0.0,-1.7119,-1.6563,-1.6522,-1.7652,-1.7275,-1.7049,-1.7373,-1.6861,-1.65,-1.65,-1.65,0.0,0.0,0.0,0.0,0.0,0.0,0.0,0.0,0.0,0.0,0.0,0.0,0.0,0.0,0.0,0.0,0.0,0.0,0.0,0.0,0.0,0.0,0.0,0.0,0.0,0.0,0.0,0.0,0.0,0.0,0.0,0.0,0.0,0.0,0.0,0.0,0.0,0.0,0.0,0.0,0.0,0.0,0.0,0.0,0.0,0.0,0.0,0.0,0.0,0.0,0.0,0.0,0.0,-2.0781,-2.1151,-2.167,-2.1798,-2.2349,-2.3235,-2.3401,-2.2199,-2.0203,-2.1675,0.0,0.0,0.0,0.0,0.0,0.0,0.0,0.0,0.0,0.0,0.0,0.0,0.0,0.0,0.0,0.0,0.0,0.0,0.0,0.0,0.0,0.0,0.0,0.0,-2.1719,-2.1374,0.0,0.0,0.0,0.0,0.0,0.0,0.0,0.0,0.0,0.0,0.0,0.0,-1.8047,-1.73,-1.7061,-1.8091,-1.7714,-1.741,-1.741,-1.6861,-1.65,-1.65,-1.65,-1.65,0.0,0.0,0.0,0.0,0.0,0.0,0.0,0.0,0.0,0.0,0.0,0.0,0.0,0.0,0.0,0.0,0.0,0.0,0.0,0.0,0.0,0.0,0.0,0.0,0.0,0.0,0.0,0.0,0.0,0.0,0.0,0.0,-1.1066,-1.1343,0.0,0.0,0.0,0.0,0.0,0.0,0.0,0.0,0.0,0.0,0.0,0.0,0.0,-2.0382,-2.1149,-2.2516,-2.3037,-2.2691,-2.4202,-2.4443,-2.3531,-2.5776,-2.6638,-2.6572,-2.8594,0.0,-2.3931,-2.3598,0.0,0.0,0.0,0.0,0.0,0.0,0.0,0.0,0.0,0.0,0.0,0.0,0.0,0.0,0.0,0.0,0.0,0.0,0.0,0.0,0.0,0.0,-2.1608,-2.201,-2.2543,-2.2714,0.0,-2.1241,-2.0732,-1.9479,-1.862,0.0,0.0,0.0,0.0,0.0,0.0,0.0,-1.8097,-1.7652,-1.7513,-1.8141,-1.7714,-1.741,-1.741,-1.6861,-1.65,-1.65,-1.65,-1.65,-1.65,-1.65,0.0,0.0,0.0,0.0,0.0,0.0,0.0,0.0,0.0,0.0,0.0,0.0,0.0,0.0,0.0,0.0,0.0,0.0,0.0,0.0,0.0,0.0,0.0,0.0,0.0,0.0,0.0,0.0,0.0,-1.1055,-1.1858,-1.251,-1.2647,-1.2812,0.0,0.0,0.0,0.0,0.0,0.0,0.0,0.0,0.0,-1.9535,-2.1409,-2.2559,-2.2949,-2.4238,-2.4912,-2.4971,-2.5742,-2.6299,-2.6764,-2.7917,-2.9167,-3.0421,-3.1453,-3.0943,-2.9266,-2.7397,-2.5933,-2.4637,0.0,0.0,0.0,0.0,-2.0911,-2.1912,-2.363,-2.4396,0.0,-2.5124,0.0,0.0,0.0,0.0,0.0,0.0,0.0,0.0,0.0,0.0,-2.4349,-2.3835,-2.4587,-2.5222,-2.4343,-2.374,-2.2849,0.0,-2.0794,-2.0524,-1.9615,0.0,0.0,0.0,0.0,-1.7944,-1.857,-1.8431,-1.8405,-1.8619,-1.8179,-1.7714,-1.7436,-1.6861,-1.65,-1.65,-1.65,-1.65,-1.65,-1.65,-1.65,0.0,0.0,0.0,0.0,0.0,0.0,0.0,0.0,0.0,0.0,0.0,0.0,0.0,0.0,0.0,0.0,0.0,0.0,0.0,0.0,0.0,0.0,0.0,0.0,0.0,0.0,0.0,0.0,-1.1977,-1.2956,-1.3433,-1.4139,-1.4679,0.0,0.0,0.0,0.0,0.0,0.0,-1.9883,-2.0967,-2.1758,-2.2197,-2.3887,-2.4785,-2.4785,-2.5957,-2.666,-2.6875,-2.721,-2.8056,-2.935,-3.0037,-3.145,-3.3303,-3.3499,-3.3612,-3.3495,-3.0708,-2.858,-2.69,-2.5064,-2.4148,-2.3849,-2.3501,-2.3745,-2.4528,-2.6598,-2.7582,-2.7821,-2.7467,0.0,-2.6323,-2.4205,0.0,0.0,0.0,0.0,-2.3859,-2.3922,-2.5222,-2.6361,-2.5787,-2.6389,-2.6914,-2.6176,-2.5611,-2.4582,0.0,-2.2347,-2.2322,-2.1119,0.0,0.0,0.0,0.0,-1.8706,-1.897,-1.9008,-1.8945,-1.8807,-1.8455,-1.7928,-1.7225,-1.6773,-1.65,-1.65,-1.65,-1.65,-1.65,-1.65,-1.65,-1.65,0.0,0.0,0.0,0.0,0.0,0.0,0.0,0.0,0.0,0.0,0.0,0.0,0.0,0.0,0.0,0.0,0.0,0.0,0.0,0.0,0.0,0.0,0.0,0.0,0.0,0.0,0.0,0.0,0.0,-1.331,-1.5986,0.0,0.0,0.0,0.0,-1.8485,-2.0012,-2.114,-2.1728,-2.332,-2.4424,-2.491,-2.6613,-2.7523,-2.7523,-2.833,-2.8574,-2.8193,-2.9516,-3.013,-3.0296,-3.2937,-3.4205,-3.4376,-3.5051,-3.5374,-3.5157,-3.2416,-3.014,-2.827,-2.7112,-2.6643,-2.6619,-2.6568,-2.7102,-2.7913,-2.8562,-2.8161,-2.757,-2.9126,-2.8549,-2.7218,-2.7067,-2.6276,0.0,0.0,-2.5452,-2.6327,-2.6336,-2.6411,-2.6738,-2.7708,-2.7205,-2.6663,-2.714,-2.6801,-2.5745,0.0,-2.2246,-2.1543,-2.1455,0.0,-2.0427,-1.9849,-1.9748,-1.956,-1.9058,-1.9008,-1.8807,-1.8304,-1.8229,-1.7752,-1.6638,-1.6513,-1.65,-1.65,-1.65,-1.65,-1.65,-1.65,-1.65,-1.65,-1.65,0.0,0.0,0.0,0.0,0.0,0.0,0.0,0.0,0.0,0.0,0.0,0.0,0.0,0.0,0.0,0.0,0.0,0.0,0.0,0.0,0.0,0.0,0.0,0.0,0.0,0.0,0.0,0.0,-1.6208,-1.7824,0.0,-1.9583,-2.0464,-2.1146,-2.1502,-2.2915,-2.4069,-2.4744,-2.5879,-2.6826,-2.7519,-2.8428,-2.876,-2.8476,-2.8769,-2.9124,-2.9608,-3.0068,-3.1235,-3.2967,-3.3932,-3.4884,-3.5702,-3.5956,-3.5667,-3.4893,-3.3947,-3.2709,-3.1264,-2.9439,-2.8722,-2.8722,-2.8722,-2.8948,-2.9257,-2.982,-2.9754,-2.9402,-2.9277,-2.8348,-2.7281,-2.7281,-2.7005,-2.664,-2.6452,-2.7193,-2.7971,-2.7607,-2.8059,-2.8524,-2.8185,-2.7808,-2.7469,-2.7318,-2.6889,-2.626,-2.5468,-2.4381,-2.3401,-2.2644,-2.1794,-2.1031,-2.0465,-2.0037,-1.9736,-1.9547,-1.9208,-1.8795,-1.8267,-1.789,-1.7363,-1.6563,-1.65,-1.65,-1.65,-1.65,-1.65,-1.65,-1.65,-1.65,-1.65,-1.65,-1.65,0.0,0.0,0.0,0.0,0.0,0.0,0.0,0.0,0.0,0.0,0.0,0.0,0.0,0.0,0.0,0.0,0.0,0.0,0.0,0.0,0.0,0.0,0.0,0.0,0.0,0.0,-1.7206,-1.8566,-2.0714,-2.2379,-2.3199,-2.4497,-2.5514,-2.6094,-2.6683,-2.728,-2.7945,-2.8226,-2.8564,-2.9121,-2.956,-2.9502,-2.8926,-2.9535,-2.9987,-3.0317,-3.1235,-3.2655,-3.4434,-3.4884,-3.5571,-3.6405,-3.6405,-3.5943,-3.524,-3.4876,-3.4299,-3.3477,-3.1657,-3.0919,-3.0919,-3.0919,-3.0797,-3.0626,-3.0605,-3.062,-3.047,-2.9528,-2.8725,-2.8122,-2.8122,-2.8122,-2.8122,-2.8122,-2.8662,-2.9139,-2.8775,-2.9089,-2.9365,-2.88,-2.8386,-2.8009,-2.7645,-2.7165,-2.6713,-2.6524,-2.5724,-2.4763,-2.3835,-2.2937,-2.2146,-2.1581,-2.1016,-2.0577,-2.0388,-1.9911,-1.9233,-1.8304,-1.7877,-1.735,-1.6563,-1.6697,-1.6722,-1.65,-1.6697,-1.6701,-1.65,-1.65,-1.65,-1.65,-1.65,-1.65,-1.65,0.0,0.0,0.0,0.0,0.0,0.0,0.0,0.0,0.0,0.0,0.0,0.0,0.0,0.0,0.0,0.0,0.0,0.0,0.0,0.0,0.0,0.0,0.0,-1.4546,-1.8067,-2.0606,-2.0281,-2.4699,-2.767,-2.7451,-2.9446,-3.1081,-3.2021,-3.1171,-3.0778,-3.1127,-3.0208,-2.9702,-2.9721,-3.0113,-2.9917,-2.9,-3.0799,-3.1305,-3.0494,-3.3139,-3.4458,-3.4507,-3.5823,-3.6405,-3.6405,-3.6405,-3.6405,-3.6292,-3.5165,-3.4668,-3.4587,-3.3508,-3.3124,-3.3124,-3.3124,-3.2704,-3.2039,-3.1009,-3.062,-3.0507,-2.9967,-2.9792,-2.9792,-2.9792,-2.9792,-2.9792,-2.9792,-2.9792,-2.9792,-2.9792,-2.9377,-2.9101,-2.9666,-2.8938,-2.8134,-2.8109,-2.767,-2.7153,-2.66,-2.6047,-2.546,-2.4933,-2.4393,-2.3828,-2.3221,-2.2631,0.0,-2.1556,-2.1006,-2.0038,-1.843,-1.8242,-1.7777,-1.6638,-1.7087,-1.7149,-1.6538,-1.7049,-1.7099,-1.6525,-1.65,-1.65,-1.65,-1.65,-1.65,-1.65,0.0,0.0,0.0,0.0,0.0,0.0,0.0,0.0,0.0,0.0,0.0,0.0,0.0,0.0,0.0,0.0,0.0,0.0,0.0,0.0,0.0,0.0,-1.9668,-1.859,-2.133,-2.3967,-2.5433,-2.8006,-2.9864,-3.0463,-3.2278,-3.2825,-3.1402,-3.2306,-3.2628,-3.2085,-3.1792,-3.1808,-3.2138,-3.3263,-3.2925,-3.0874,-3.2814,-3.379,-3.3885,-3.4598,-3.5476,-3.644,-3.6391,-3.6405,-3.6405,-3.6405,-3.6132,-3.5717,-3.5014,-3.4487,-3.406,-3.3357,-3.3124,-3.3124,-3.3124,-3.2453,-3.1574,-3.1273,-3.067,-2.9993,-2.9842,-2.9792,-2.9792,-2.9792,-2.9792,-2.9792,-2.9792,-2.9792,-2.9792,-2.9792,-2.9679,-2.9591,-2.9754,-2.9239,-2.8549,-2.8185,-2.767,-2.7153,-2.66,-2.6361,-2.6084,-2.5473,-2.4946,-2.4374,-2.3853,-2.2598,0.0,-2.1506,-2.0313,-1.9447,-1.9371,-1.9008,-1.8494,-1.7802,-1.789,-1.7564,-1.655,-1.6672,-1.6663,-1.65,-1.65,-1.65,-1.65,-1.65,-1.65,0.0,0.0,0.0,0.0,0.0,0.0,0.0,0.0,0.0,0.0,0.0,0.0,0.0,0.0,0.0,0.0,0.0,0.0,0.0,0.0,0.0,0.0,-2.1251,-2.341,-2.4229,-2.585,-2.7578,-2.9277,-3.1208,-3.2698,-3.3408,-3.5226,-3.5853,-3.4703,-3.5065,-3.5127,-3.4557,-3.3726,-3.3099,-3.2829,-3.3956,-3.3539,-3.1366,-3.383,-3.516,-3.5222,-3.578,-3.6456,-3.7161,-3.6656,-3.6405,0.0,-3.6119,-3.583,-3.5445,-3.47,-3.4186,0.0,0.0,0.0,0.0,0.0,-3.2667,-3.2026,-3.1549,-3.0984,-3.0394,-2.9942,-2.9792,-2.9792,-2.9792,-2.9792,-2.9792,-2.9792,-2.9792,-2.9792,-2.9792,-2.9792,-2.9792,-2.9792,-2.9528,-2.9076,-2.8285,-2.7858,-2.7394,-2.665,-2.6499,0.0,-2.5699,-2.5172,-2.4632,-2.4079,-2.2761,-2.1832,-2.1832,-2.0589,-1.966,-1.9497,-1.897,-1.8455,-1.7903,-1.7852,0.0,0.0,0.0,-1.6773,-1.65,-1.65,0.0,0.0,0.0,-1.65,-1.65,0.0,0.0,0.0,-1.65,-1.65,0.0,0.0,0.0,0.0,0.0,0.0,0.0,0.0,0.0,0.0,0.0,0.0,0.0,0.0,0.0,0.0,-2.4584,-2.6787,-3.0518,-3.1097,-3.1441,-3.2187,-3.4193,-3.5697,-3.6165,-3.7837,-3.8993,-3.9253,-3.817,-3.7494,-3.7435,0.0,0.0,0.0,0.0,-3.3249,-3.1486,-3.4509,-3.586,-3.5421,-3.6615,-3.7186,-3.7161,-3.6656,-3.6405,-3.638,-3.5843,-3.5558,-3.542,-3.4424,-3.3922,-3.3759,-3.3269,-3.3124,-3.3124,-3.3124,-3.3074,-3.283,-3.1838,0.0,0.0,-3.0193,-2.9842,-2.9792,-2.9792,-2.9792,-2.9792,-2.9792,-2.9792,-2.9792,-2.9792,-2.9792,-2.9792,-2.9792,-2.9792,-2.9478,-2.8348,-2.8109,-2.777,-2.6713,-2.6499,-2.6311,-2.5699,-2.5172,-2.4632,-2.4079,-2.3037,-2.2284,-2.2234,-2.1333,-2.0314,-1.9284,0.0,0.0,-1.7725,-1.7624,-1.73,-1.6638,-1.7036,-1.7049,-1.6513,-1.65,-1.65,-1.65,-1.65,-1.65,-1.65,-1.65,-1.65,-1.65,-1.65,-1.65,0.0,0.0,0.0,0.0,0.0,0.0,0.0,0.0,0.0,0.0,0.0,0.0,0.0,0.0,0.0,-2.731,-2.9639,-3.1877,-3.4691,-3.5539,-3.5551,-3.4691,-3.6307,-3.7518,-3.7618,-3.8367,-3.8238,-3.6675,-3.7159,-3.7328,-3.6859,-3.6466,-3.6145,-3.5881,-3.6705,-3.6225,-3.4268,-3.6437,-3.732,-3.6822,0.0,0.0,-3.7161,-3.6656,-3.6405,-3.6405,-3.6304,-3.5956,-3.5445,-3.4793,-3.4035,-3.3219,-3.3162,-3.3124,-3.3124,-3.3124,-3.278,-3.2353,-3.2127,-3.1486,-3.0733,-3.052,-3.0156,-2.9792,-2.9792,-2.9792,0.0,-2.9792,-2.9792,-2.9792,-2.9792,-2.9792,-2.9792,-2.9792,-2.9792,-2.9478,-2.8348,-2.8109,-2.777,-2.6713,-2.6499,-2.6311,-2.5699,-2.5172,-2.4632,-2.4079,-2.3037,-2.2146,-2.1707,-2.1094,-2.0616,-2.0402,-2.0277,-1.9987,-1.9384,-1.8945,-1.8255,-1.7297,-1.6886,-1.6613,-1.65,-1.65,-1.65,-1.65,-1.65,-1.65,-1.65,-1.65,-1.65,-1.65,-1.65,-1.65,0.0,0.0,0.0,0.0,0.0,0.0,0.0,0.0,0.0,0.0,0.0,-2.169,0.0,0.0,-2.8121,-3.1483,-3.3054,-3.4655,-3.6786,-3.7406,-3.7443,-3.7095,-3.7892,-3.8442,-3.8442,-3.8956,-3.8557,-3.6768,-3.7887,-3.8174,-3.7137,-3.727,-3.703,-3.6391,-3.6887,-3.6394,-3.4716,-3.6653,-3.7462,-3.7186,-3.7186,-3.7186,-3.7161,-3.6656,-3.6405,-3.6392,-3.6069,-3.5642,-3.5019,-3.4236,-3.3571,-3.3124,-3.3124,-3.3124,-3.3124,-3.3124,-3.2893,-3.2604,-3.2315,-3.1675,-3.0959,-3.0708,-3.0244,-2.9792,-2.9792,-2.9792,-2.9792,-2.9792,-2.9792,-2.9792,-2.9792,-2.9792,-2.9792,-2.9792,-2.9792,-2.9478,-2.8348,-2.8109,-2.777,-2.6713,-2.6499,-2.6311,-2.5699,-2.5172,-2.4632,-2.4079,-2.3037,-2.2121,-2.1556,-2.1031,-2.0578,-2.0289,-1.9999,-1.9723,-1.9447,-1.8668,-1.7965,-1.7436,-1.6835,-1.65,-1.65,-1.65,-1.65,-1.65,-1.65,-1.65,-1.65,-1.65,-1.65,-1.65,-1.65,-1.65,0.0,0.0,0.0,0.0,0.0,0.0,0.0,0.0,-2.1021,-2.2069,-2.4535,-2.6878,-2.7853,-3.0245,-3.279,-3.4981,-3.5574,-3.6332,-3.7929,-3.799,-3.8103,-3.8844,-3.8781,-3.8793,-3.9007,-3.9333,-3.9032,-3.7863,-3.8963,-3.9144,-3.7822,-3.7913,-3.7481,-3.6416,-3.6416,-3.587,-3.4775,-3.6304,-3.7023,-3.7023,-3.7023,-3.7023,-3.701,-3.6619,-3.6405,-3.638,-3.578,-3.5194,-3.4605,-3.3646,-3.3169,-3.3124,-3.3124,-3.3124,-3.3124,-3.3124,-3.3048,-3.2842,-3.2378,-3.1788,-3.1173,-3.0758,-3.0244,-2.9792,-2.9792,-2.9792,-2.9792,-2.9792,-2.9792,-2.9792,-2.9792,-2.9792,-2.9792,-2.9792,-2.9792,-2.9478,-2.8348,-2.8109,-2.777,-2.6713,-2.6499,-2.6348,-2.585,-2.5322,-2.4757,-2.4104,-2.3125,-2.2272,-2.1719,-2.1194,-2.0679,-2.0175,-1.956,-1.9108,-1.9008,-1.8216,-1.7674,-1.7574,-1.7099,-1.6826,-1.6826,-1.6735,-1.6713,-1.6826,-1.66,-1.655,-1.6663,-1.655,-1.65,-1.65,-1.65,-1.65,-1.987,-1.931,-1.9322,-2.0159,-2.0127,-2.0898,0.0,0.0,-2.6269,-2.7883,-2.9551,-3.1259,-3.2936,-3.3851,-3.5066,-3.727,-3.7255,-3.7404,-3.8617,-3.7914,-3.7676,-3.8793,-3.8417,-3.8504,-3.9496,-3.922,-3.8906,-3.8741,-3.9357,-3.942,-3.8766,-3.8254,-3.7953,-3.7792,-3.6875,-3.631,-3.6168,-3.6373,-3.6505,-3.6505,-3.6505,-3.6505,-3.6505,-3.643,-3.6405,-3.638,-3.578,-3.5194,-3.4675,-3.406,-3.352,-3.3124,-3.3124,-3.3124,-3.3124,-3.3124,-3.2754,-3.2303,-3.224,-3.1549,-3.0696,-3.0633,-3.0244,-2.9792,-2.9792,-2.9792,-2.9792,-2.9792,-2.9792,-2.9792,-2.9792,-2.9792,-2.9792,-2.9792,-2.9792,-2.9478,-2.8348,-2.8109,-2.777,-2.6713,-2.6499,-2.6474,-2.6411,-2.5921,-2.5172,-2.4155,-2.3421,-2.2819,-2.2284,-2.1732,-2.1368,-2.1333,-2.0351,-1.9522,-1.9045,-1.8895,-1.8607,-1.8141,-1.8053,-1.8016,-1.8016,-1.7539,-1.7513,-1.8003,-1.7014,-1.6773,-1.731,-1.6773,-1.65,-1.65,-1.65,-1.65,-2.1062,-2.0689,0.0,0.0,-2.2314,-2.3643,-2.6298,-2.7536,-2.871,-3.0833,-3.2822,-3.4506,-3.5489,-3.6452,-3.7444,0.0,-3.8027,-3.7826,-3.8304,-3.7412,-3.6933,-3.7398,-3.6634,-3.6784,-3.8542,-3.8504,-3.8178,-3.7648,-3.8288,-3.8514,-3.8112,-3.8002,-3.8002,-3.8002,-3.7249,-3.6732,-3.6405,-3.6405,-3.6568,-3.6835,-3.6568,-3.6568,-3.6822,-3.6556,-3.6405,-3.6355,-3.5441,-3.4893,-3.4605,-3.3784,-3.3282,-3.3124,-3.3124,-3.3124,-3.3124,-3.3124,-3.2918,-3.2667,-3.2328,-3.1712,-3.1022,-3.0708,-3.0244,-2.9792,-2.9792,-2.9792,-2.9792,-2.9792,-2.9792,-2.9792,-2.9792,-2.9792,-2.9792,-2.9792,-2.9792,-2.9566,-2.8725,-2.8335,-2.7871,-2.7128,-2.6713,-2.6499,-2.6499,-2.6009,-2.5448,-2.4996,-2.4192,-2.3283,-2.2393,-2.2108,-2.1719,-2.1106,-2.0616,-2.0075,-1.9497,-1.9171,-1.8907,-1.8669,-1.8356,-1.8204,-1.8204,-1.7978,-1.7965,-1.8204,-1.7739,-1.7614,-1.7852,-1.73,-1.7024,-1.7011,-1.6651,-1.65,-2.0918,0.0,0.0,-2.3108,-2.4766,-2.6561,-2.8501,-3.0083,-3.1689,-3.3599,-3.5592,-3.6996,-3.7112,-3.7851,-3.8354,-3.8253,-3.7826,-3.76,-3.7764,-3.6697,-3.6015,-3.6119,-3.5027,-3.4951,-3.6709,-3.7287,-3.7432,-3.7061,-3.7654,-3.7878,-3.7641,-3.7716,-3.7776,-3.7776,-3.7249,-3.6807,-3.6405,-3.6405,-3.6606,-3.6948,-3.6606,-3.6619,-3.6996,-3.6593,-3.6405,-3.6355,-3.5366,-3.4818,-3.465,-3.3696,-3.3219,-3.3124,-3.3124,-3.3124,-3.3124,-3.3124,-3.2968,-3.278,-3.2353,-3.175,-3.1122,-3.0733,-3.0244,-2.9792,-2.9792,-2.9792,-2.9792,-2.9792,-2.9792,-2.9792,-2.9792,-2.9792,-2.9792,-2.9792,-2.9792,-2.9628,-2.9013,-2.8499,-2.7946,-2.7394,-2.6876,-2.6499,-2.6499,-2.6147,-2.5774,-2.5624,-2.4933,-2.4042,-2.2924,-2.2606,-2.2121,-2.1043,-2.1056,-2.0828,-2.01,-1.9698,-1.9384,-1.9221,-1.8869,-1.8643,-1.8643,-1.8505,-1.8493,-1.8643,-1.8355,-1.8279,-1.843,-1.7877,-1.7614,-1.7624,-1.7024,-1.676,0.0,0.0,-2.2534,-2.5209,-2.7211,-2.9294,-3.2426,-3.4625,-3.6275,-3.7156,-3.8145,-3.863,-3.8078,-3.7588,-3.7061,-3.6568,-3.6468,-3.6644,-3.7136,-3.5805,-3.4919,-3.5458,-3.4123,-3.337,0.0,-3.5466,-3.686,-3.789,-3.7965,-3.8027,-3.8003,-3.7513,-3.7211,-3.7211,-3.6719,-3.643,-3.6405,-3.6405,-3.6417,-3.643,-3.6417,-3.6417,-3.643,-3.6417,-3.6405,-3.638,-3.5768,-3.5169,-3.4675,-3.411,-3.3558,-3.3124,-3.3124,-3.3124,-3.3124,-3.3124,-3.2717,-3.224,-3.2227,-3.1524,-3.0633,-3.062,-3.0244,-2.9792,-2.9792,-2.9792,-2.9792,-2.9792,-2.9792,-2.9792,-2.9792,-2.9792,-2.9792,-2.9792,-2.9792,-2.9628,-2.9013,-2.8499,-2.7946,-2.7394,-2.6876,-2.6499,-2.6499,-2.6474,-2.6273,-2.5686,-2.5573,-2.5159,-2.4079,-2.3421,-2.2656,-2.1581,-2.1945,-2.182,-2.0754,-2.0654,-2.0402,-1.9811,-1.9761,-1.9748,-1.9748,-1.9246,-1.9208,-1.9748,-1.8731,-1.8468,-1.897,-1.8455,-1.8179,-1.8166,-1.7614,-1.7373,0.0,0.0,-2.5537,-2.7581,-2.9943,-3.2409,-3.5032,-3.6393,-3.732,-3.8263,-3.7805,-3.7061,-3.6436,-3.5328,-3.4525,-3.47,-3.5039,-3.5341,-3.5529,-3.5345,-3.4743,-3.3439,-3.3508,0.0,0.0,0.0,0.0,-3.6857,-3.6958,-3.7236,-3.7965,-3.7839,-3.7563,-3.7199,-3.7362,-3.7098,-3.6417,-3.6769,-3.6958,-3.6958,-3.6958,-3.6757,-3.6405,-3.6405,-3.6405,-3.638,-3.578,-3.5395,-3.5157,-3.4274,-3.3796,-3.3583,-3.3262,-3.3124,-3.3124,-3.3124,-3.2955,-3.2729,-3.234,-3.1738,-3.1072,-3.0733,-3.0244,-2.9792,-2.9792,-2.9792,-2.9792,-2.9792,-2.9792,-2.9792,-2.9792,-2.9792,-2.9792,-2.9792,-2.9792,-2.9741,-2.9541,-2.8762,-2.8047,-2.7871,-2.7115,-2.6499,-2.6499,-2.6499,-2.6424,-2.6235,-2.5234,-2.4406,-2.4054,-2.3459,-2.2832,-2.2121,-2.2196,-2.187,-2.0779,-2.0691,-2.044,-1.9836,-2.0189,-2.0226,-1.9823,-1.9999,-2.0012,-1.9798,-1.9447,-1.9359,-1.9547,-1.8983,-1.8719,-1.8719,-1.8191,-1.7928,-2.2925,-2.5373,-2.8,-3.0754,-3.3016,-3.5154,-3.736,-3.7907,-3.7968,-3.8004,-3.6659,-3.5165,-3.3953,-3.2428,-3.1549,-3.2303,-3.2729,-3.3307,-3.4299,-3.4342,-3.4003,-3.3206,-3.3219,0.0,0.0,0.0,0.0,-3.5956,-3.648,-3.6872,-3.7387,-3.76,-3.755,-3.7199,-3.7525,-3.7374,-3.6707,-3.7059,-3.7086,-3.6885,-3.6885,-3.6757,-3.6405,-3.6405,-3.6405,-3.638,-3.578,-3.5495,-3.542,-3.4349,-3.3897,-3.3847,-3.3294,-3.3124,-3.3124,-3.3124,-3.3124,-3.2993,-3.2416,-3.1851,-3.1298,-3.0783,-3.0244,-2.9792,-2.9792,-2.9792,-2.9792,-2.9792,-2.9792,-2.9792,-2.9792,-2.9792,-2.9792,-2.9792,-2.9792,-2.9792,-2.9792,-2.9063,-2.8398,-2.8398,-2.767,-2.7077,-2.7077,-2.6914,-2.6788,-2.6788,-2.5511,-2.4569,-2.4569,-2.4079,-2.3496,-2.2975,-2.2912,-2.246,-2.1343,-2.1282,-2.1004,-2.0439,-2.0779,-2.0817,-2.0413,-2.0603,-2.0515,-2.0125,-1.9911,-1.9798,-1.9798,-1.9434,-1.9284,-1.9271,-1.8732,-1.8481,-2.502,-2.7323,-3.005,-3.4436,-3.6273,-3.7432,-3.9214,-3.9157,-3.8303,-3.6556,-3.4776,-3.2893,0.0,0.0,-2.8348,-2.9478,-2.9804,-3.0846,-3.352,-3.3018,-3.2955,0.0,0.0,0.0,0.0,0.0,0.0,-3.5508,0.0,-3.6973,-3.6518,-3.6973,-3.7262,-3.7224,-3.7249,-3.7249,-3.7186,-3.7161,-3.6872,-3.6405,-3.6405,-3.6405,-3.6405,-3.6405,-3.6405,-3.638,-3.578,-3.5495,-3.542,-3.4349,-3.3897,-3.3847,-3.3294,-3.3124,-3.3124,-3.3086,-3.3031,-3.2943,-3.234,-3.18,-3.1298,-3.0783,-3.0244,-2.9792,-2.9792,-2.9792,-2.9792,-2.9792,-2.9792,-2.9792,-2.9792,-2.9792,-2.9792,-2.9792,-2.9792,-2.9792,-2.9792,-2.934,-2.8888,-2.8888,-2.8486,-2.8097,-2.8059,-2.7632,-2.7268,-2.7278,-2.6327,-2.5624,-2.5598,-2.5146,-2.4619,-2.4104,-2.4017,-2.3552,-2.2447,-2.2334,-2.2071,-2.1518,-2.1546,-2.1518,-2.1493,-2.1018,-2.0729,-2.0691,-2.01,-1.9798,-1.9798,-1.9798,-1.9798,-1.9798,-1.9271,-1.9045,-2.8853,-3.1945,-3.4621,-3.6101,-3.7694,-3.8848,-3.8492,-3.7688,-3.6329,-3.3784,-3.0972,-2.8423,0.0,0.0,0.0,-2.7745,-2.9993,0.0,-3.3684,-3.4361,0.0,0.0,0.0,-3.509,-3.4562,-3.5629,0.0,0.0,-3.7023,-3.7299,-3.7575,-3.8128,-3.8241,-3.7814,-3.8216,-3.804,-3.7199,-3.682,-3.6556,-3.6405,-3.6405,-3.6405,-3.6405,-3.6405,-3.6405,-3.638,-3.578,-3.5495,-3.542,-3.4349,-3.3897,-3.3847,-3.3294,-3.3124,-3.3074,-3.2591,-3.2428,-3.229,-3.1348,-3.1185,-3.1298,-3.0783,-3.0244,-2.9792,-2.9792,-2.9792,-2.9792,-2.9792,-2.9792,-2.9792,-2.9792,-2.9792,-2.9792,-2.9792,-2.9792,-2.9792,-2.9792,-2.934,-2.8888,-2.8888,-2.8486,-2.7971,-2.7557,-2.7369,-2.7178,-2.6763,-2.6461,-2.6122,-2.5649,-2.5146,-2.4738,-2.4619,-2.4243,-2.3703,-2.2957,-2.2518,-2.2071,-2.1518,-2.1882,-2.192,-2.1506,-2.1355,-2.1119,-2.0704,-2.01,-1.9798,-1.9798,-1.9798,-1.9798,-1.9798,-1.966,-1.961,-3.2197,-3.4743,-3.6744,-3.7816,-3.872,-3.8906,-3.7299,-3.5881,-3.3966,-3.0407,-2.7645,0.0,0.0,0.0,0.0,0.0,0.0,0.0,-3.2503,-3.3759,-3.45,0.0,-3.5441,0.0,-3.5818,-3.6646,-3.7387,0.0,-3.7927,-3.7939,-3.8002,-3.8555,-3.8718,-3.8391,-3.8454,-3.8065,-3.7199,-3.6681,-3.6405,-3.6405,-3.6405,-3.6405,-3.6405,-3.6405,-3.6405,-3.6392,0.0,-3.5893,-3.5818,-3.4713,-3.4261,-3.4173,-3.3382,-3.3124,-3.3048,-3.2428,-3.2215,-3.2064,-3.0984,-3.0809,-3.0959,-3.0432,-3.0043,-2.9792,-2.9792,-2.9792,-2.9792,-2.9792,-2.9792,-2.9792,-2.9792,-2.9792,-2.9792,-2.9792,-2.9792,-2.9792,-2.9792,-2.9528,-2.9302,-2.9302,-2.9063,-2.875,-2.8436,-2.8172,-2.7821,-2.7268,-2.7014,-2.665,-2.6084,-2.5724,-2.5435,-2.5197,-2.4682,-2.413,-2.3534,-2.297,-2.2506,-2.2234,-2.2468,-2.2506,-2.2221,-2.1983,-2.1707,-2.1393,-2.0828,-2.0426,-2.0175,-2.0175,-2.0049,-1.9798,-1.9798,-1.9798,-3.5156,-3.6572,-3.7584,-3.9201,-3.912,-3.8027,-3.5596,-3.3709,-3.1226,-2.6839,0.0,-2.2698,-2.0641,0.0,-2.1333,-2.3627,0.0,-2.7794,-3.1135,-3.2516,-3.3771,-3.5307,-3.5621,-3.6122,-3.7199,-3.7362,-3.7888,-3.8957,-3.9032,-3.8768,-3.8253,-3.8705,-3.9032,-3.9032,-3.8417,-3.7889,-3.7412,-3.6832,-3.6518,-3.6518,-3.6443,-3.6405,-3.6405,-3.6405,-3.6367,-3.6304,-3.6229,0.0,-3.6103,-3.4951,-3.455,-3.4512,-3.3483,-3.3124,-3.3006,-3.234,-3.2102,-3.1951,-3.0884,-3.0507,-3.0432,-2.9942,-2.9792,-2.9792,-2.9792,-2.9792,-2.9792,-2.9792,-2.9792,-2.9792,-2.9792,-2.9792,-2.9792,-2.9792,-2.9792,-2.9792,-2.9792,-2.9792,-2.9792,-2.9792,-2.9792,-2.9767,-2.9691,-2.9264,-2.87,-2.8185,-2.7695,-2.7228,-2.6675,-2.6537,-2.6298,-2.5762,-2.5234,-2.4732,-2.4255,-2.3659,-2.3296,-2.3221,-2.3221,-2.3183,-2.3108,-2.2581,-2.2309,-2.2309,-2.1694,-2.1169,-2.0691,-2.0616,-2.0314,-1.9798,-1.9798,-1.9798,-3.7543,-3.8726,-3.9189,-3.9044,-3.8241,-3.6659,-3.3508,-3.0809,0.0,0.0,0.0,-1.9497,-1.8215,-1.9045,0.0,-2.3552,0.0,0.0,0.0,0.0,-3.4198,0.0,0.0,0.0,0.0,0.0,0.0,0.0,0.0,-3.9509,-3.9408,-3.9496,-3.9546,-3.9546,-3.9019,-3.868,-3.863,-3.7563,-3.7048,-3.7036,-3.6619,-3.6405,-3.6405,-3.6405,-3.6119,-3.5621,-3.5203,0.0,-3.4926,-3.3822,-3.3633,-3.3985,-3.3332,-3.3124,-3.2955,-3.1913,-3.1537,-3.1386,-3.0306,-2.993,-2.9917,-2.9829,-2.9792,-2.9792,-2.9792,-2.9792,-2.9792,-2.9792,-2.9792,-2.9792,-2.9792,-2.9792,-2.9792,-2.9792,-2.9792,-2.9792,-2.9792,-2.9792,-2.9792,-2.9792,-2.9792,-2.9641,-2.9126,-2.8963,-2.87,-2.8185,-2.8021,-2.7758,-2.7241,-2.6776,-2.6461,-2.6361,-2.5799,-2.5423,-2.5322,-2.4833,-2.4311,-2.3879,-2.3853,-2.364,-2.312,-2.2581,-2.2309,-2.2309,-2.1358,-2.0792,-2.0691,-2.0214,-1.9899,-1.9798,-1.9798,-1.9798,-3.8379,-3.927,-3.9559,-3.9007,-3.785,-3.5742,-3.1838,0.0,0.0,0.0,0.0,-1.7915,-1.7087,0.0,0.0,0.0,0.0,0.0,0.0,0.0,0.0,0.0,0.0,0.0,0.0,0.0,0.0,0.0,0.0,-3.9697,-3.9697,-3.9697,-3.9559,-3.927,-3.9007,-3.873,-3.8417,-3.76,-3.7186,-3.7174,-3.6669,-3.6405,-3.6405,-3.6405,-3.6267,-3.5956,-3.5692,0.0,-3.5491,-3.4387,-3.4085,-3.4248,-3.3407,-3.3124,-3.2943,-3.18,-3.1386,-3.1235,-3.0168,-2.9792,-2.9792,-2.9792,-2.9792,-2.9792,-2.9792,-2.9792,-2.9792,-2.9792,-2.9792,-2.9792,-2.9792,-2.9792,-2.9792,-2.9792,-2.9792,-2.9792,-2.9792,-2.9792,-2.9792,-2.9792,-2.9792,-2.9704,-2.9428,-2.9377,-2.9189,-2.8612,-2.8536,-2.8235,-2.7394,-2.709,-2.6813,-2.6524,-2.5971,-2.5598,-2.5598,-2.5121,-2.4675,-2.4443,-2.4431,-2.4167,-2.3572,-2.3326,-2.305,-2.2719,-2.2221,-2.1807,-2.1518,-2.0953,-2.0526,-2.0264,-1.9936,-1.9798,-3.8253,-3.9007,-3.9383,-3.8818,-3.7249,-3.4758,-3.0407,-2.708,0.0,0.0,-1.7965,-1.7049,-1.6588,0.0,0.0,0.0,0.0,0.0,0.0,0.0,0.0,0.0,0.0,0.0,0.0,0.0,0.0,0.0,0.0,0.0,-3.9697,-3.9697,-3.9496,-3.9057,-3.9095,-3.8768,-3.8203,-3.7638,-3.7299,-3.7174,-3.6669,-3.6405,-3.6405,-3.6405,-3.6342,-3.6194,-3.6194,0.0,0.0,-3.5127,-3.468,-3.4625,-3.3633,-3.3181,-3.2943,-3.18,-3.1386,-3.1235,-3.0168,-2.9792,-2.9792,-2.9792,-2.9792,-2.9792,-2.9792,-2.9792,-2.9792,-2.9792,-2.9792,-2.9792,-2.9792,-2.9792,-2.9792,-2.9792,-2.9792,-2.9792,-2.9792,-2.9792,-2.9792,-2.9792,-2.9792,-2.9792,-2.9792,-2.9792,-2.9641,-2.9176,-2.9076,-2.875,-2.7758,-2.7632,-2.7419,-2.6901,-2.6223,-2.5774,-2.5774,-2.541,-2.5121,-2.4996,-2.4983,-2.4745,-2.4192,-2.4067,-2.3791,-2.3296,-2.3045,-2.2719,-2.2309,-2.1757,-2.1295,-2.0855,-2.0402,-2.01,-3.7048,-3.8128,-3.8806,-3.8228,-3.6094,-3.3093,-2.9151,0.0,0.0,-1.8882,-1.7365,-1.6563,-1.65,-1.6588,0.0,0.0,0.0,0.0,0.0,0.0,0.0,0.0,0.0,0.0,0.0,0.0,0.0,0.0,0.0,0.0,-3.9697,-3.9697,-3.9672,-3.9622,-3.9622,-3.9358,-3.8844,-3.8216,-3.7676,-3.7174,-3.6669,-3.6405,-3.6405,-3.6405,-3.6094,-3.5571,-3.5571,0.0,0.0,-3.4919,-3.468,-3.4618,-3.406,-3.352,-3.2943,-3.18,-3.1386,-3.1235,-3.0168,-2.9792,-2.9792,-2.9792,-2.9792,-2.9792,-2.9792,-2.9792,-2.9792,-2.9792,-2.9792,-2.9792,-2.9792,-2.9792,-2.9792,-2.9792,-2.9792,-2.9792,-2.9792,-2.9792,-2.9792,-2.9792,-2.9792,-2.9792,-2.9792,-2.9792,-2.9779,-2.9729,-2.9716,-2.9478,-2.8825,-2.8737,-2.8561,-2.8009,-2.704,-2.6411,-2.6411,-2.6373,-2.6122,-2.5561,-2.5523,-2.5285,-2.4738,-2.4268,-2.3966,-2.3916,-2.2912,-2.2359,-2.2309,-2.1757,-2.1455,-2.1446,-2.1355,-2.1094,-3.5542,-3.7249,-3.8216,-3.7651,-3.5692,-3.288,-2.8988,0.0,0.0,-1.8781,-1.7277,-1.65,-1.65,-1.65,-1.6789,0.0,0.0,0.0,0.0,0.0,0.0,0.0,0.0,0.0,0.0,0.0,0.0,0.0,0.0,0.0,-3.9195,-3.9509,-3.9697,-3.9697,-3.9371,-3.9094,-3.8919,-3.7965,-3.74,-3.7174,-3.6669,-3.6405,-3.6405,-3.6405,-3.6292,-3.6031,-3.6031,0.0,0.0,-3.4906,-3.4525,-3.4173,-3.3621,-3.3056,-3.2453,-3.1687,-3.1198,-3.0821,-3.0055,-2.9792,-2.9792,-2.9792,-2.9792,-2.9792,-2.9792,-2.9792,-2.9792,-2.9792,-2.9792,-2.9792,-2.9792,-2.9792,-2.9792,-2.9792,-2.9792,-2.9792,-2.9792,-2.9792,-2.9792,-2.9792,-2.9792,-2.9792,-2.9792,-2.9792,-2.9792,-2.9792,-2.9792,-2.9578,-2.8963,-2.8888,-2.8675,-2.816,-2.7419,-2.6989,-2.6989,-2.6688,-2.6399,-2.6172,-2.6147,-2.5862,-2.531,-2.5084,-2.4657,-2.4004,-2.3552,-2.312,-2.2782,-2.2246,-2.1983,-2.197,-2.1644,-2.1408,-3.2875,-3.5232,-3.691,-3.6345,-3.4437,-3.175,0.0,0.0,-2.0878,-1.8455,-1.7165,-1.65,-1.65,-1.65,-1.65,-1.65,0.0,-1.7689,0.0,0.0,0.0,0.0,0.0,0.0,0.0,0.0,0.0,0.0,0.0,0.0,0.0,-3.9082,-3.9346,-3.9685,-3.9157,-3.8831,-3.8617,-3.7663,-3.7098,-3.6935,-3.6593,-3.6405,-3.6405,-3.6405,-3.6405,-3.6405,-3.6405,0.0,0.0,-3.5366,-3.4788,-3.411,-3.3721,-3.3006,-3.2152,-3.1599,-3.106,-3.0532,-2.998,-2.9792,-2.9792,-2.9792,-2.9792,-2.9792,-2.9792,-2.9792,-2.9792,-2.9792,-2.9792,-2.9792,-2.9792,-2.9792,-2.9792,-2.9792,-2.9792,-2.9792,-2.9792,-2.9792,-2.9792,-2.9792,-2.9792,-2.9792,-2.9792,-2.9792,-2.9792,-2.9792,-2.9792,-2.9641,-2.9239,-2.9189,-2.9038,-2.8649,-2.8109,-2.7632,-2.7341,-2.6813,-2.6499,-2.6499,-2.6499,-2.6311,-2.5875,-2.5686,-2.5234,-2.4481,-2.4155,-2.3803,-2.3358,-2.2794,-2.2531,-2.2518,-2.2159,-2.1895,-2.88,-3.1772,-3.4625,-3.4073,-3.1863,-2.9101,0.0,0.0,-1.9371,-1.775,-1.6923,-1.65,-1.65,-1.65,-1.65,-1.65,-1.6999,0.0,0.0,0.0,0.0,0.0,0.0,0.0,0.0,0.0,0.0,0.0,0.0,0.0,0.0,-3.8329,-3.853,-3.9659,-3.9157,-3.8592,-3.8027,-3.7462,-3.691,-3.6417,-3.6405,-3.6405,-3.6405,-3.6405,-3.6405,0.0,0.0,0.0,0.0,-3.6392,-3.5692,-3.4668,-3.4713,-3.3684,-3.2152,-3.1599,-3.106,-3.0532,-2.998,-2.9792,-2.9792,-2.9792,-2.9792,-2.9792,-2.9792,-2.9792,-2.9792,-2.9792,-2.9792,-2.9792,-2.9792,-2.9792,-2.9792,-2.9792,-2.9792,-2.9792,-2.9792,-2.9792,-2.9792,-2.9792,-2.9792,-2.9792,-2.9792,-2.9792,-2.9792,-2.9792,-2.9792,-2.9792,-2.9779,-2.9779,-2.9779,-2.9779,-2.9252,-2.8461,-2.7369,-2.6813,-2.6499,-2.6499,-2.6499,-2.6499,-2.6487,-2.5933,-2.5586,-2.5573,-2.4531,-2.4004,-2.3991,-2.3384,-2.3095,-2.3095,-2.3095,-2.2794,-2.5561,-2.757,-2.9064,-2.89,-2.7595,-2.5862,-2.3816,-2.1202,-1.8882,-1.7674,-1.6923,-1.65,-1.65,-1.65,-1.6647,-1.7049,-1.7576,0.0,0.0,0.0,0.0,0.0,0.0,0.0,0.0,0.0,0.0,0.0,0.0,0.0,0.0,-3.755,-3.7776,-3.8517,-3.8002,-3.7626,-3.745,-3.6945,-3.6581,-3.6405,-3.6405,-3.6405,-3.6405,-3.6405,-3.6157,0.0,0.0,0.0,0.0,-3.4839,-3.4474,-3.4123,-3.3746,-3.3031,-3.2152,-3.1599,-3.106,-3.0532,-2.998,-2.9792,-2.9792,-2.9792,-2.9792,-2.9792,-2.9792,-2.9792,-2.9792,-2.9792,-2.9792,-2.9792,-2.9792,-2.9792,-2.9792,-2.9792,-2.9792,-2.9792,-2.9792,-2.9792,-2.9792,-2.9792,-2.9792,-2.9792,-2.9792,-2.9792,-2.9792,-2.9792,-2.9792,-2.9792,-2.9792,-2.9792,-2.9792,-2.9792,-2.9277,-2.8599,-2.7908,-2.7379,-2.6901,-2.6512,-2.6499,-2.6499,-2.6499,-2.6323,-2.6034,-2.5598,-2.4921,-2.4381,-2.4004,-2.3384,-2.3108,-2.3108,-2.3108,-2.2807,0.0,-2.4205,-2.5519,-2.5259,-2.4381,0.0,0.0,-1.9823,-1.8154,-1.725,-1.6773,-1.65,-1.65,-1.65,-1.6613,-1.6999,-1.7526,0.0,0.0,0.0,0.0,0.0,0.0,0.0,0.0,0.0,0.0,0.0,0.0,0.0,0.0,-3.6985,-3.7023,-3.7374,-3.7262,-3.7186,-3.7186,-3.6681,-3.6405,-3.6405,-3.6405,-3.6304,-3.6056,-3.6056,-3.5755,0.0,0.0,0.0,0.0,-3.4349,-3.4085,-3.3872,-3.352,-3.278,-3.1863,-3.1512,-3.0934,-3.0256,-2.9917,-2.9792,-2.9792,-2.9792,-2.9792,-2.9792,-2.9792,-2.9792,-2.9792,-2.9792,-2.9792,-2.9792,-2.9792,-2.9792,-2.9792,-2.9792,-2.9792,-2.9792,-2.9792,-2.9792,-2.9792,-2.9792,-2.9792,-2.9792,-2.9792,-2.9792,-2.9792,-2.9792,-2.9792,-2.9792,-2.9792,-2.9792,-2.9792,-2.9792,-2.9465,-2.9176,-2.8999,-2.7923,-2.7165,-2.6826,-2.6896,-2.7028,-2.7267,-2.7041,-2.6772,-2.6401,-2.5347,-2.4657,-2.4305,-2.3484,-2.3108,-2.3108,-2.3424,-2.3381,0.0,0.0,0.0,0.0,0.0,0.0,0.0,-1.8405,0.0,-1.6613,-1.65,-1.65,-1.655,-1.6525,-1.6538,-1.6651,0.0,0.0,0.0,0.0,0.0,0.0,0.0,0.0,0.0,0.0,0.0,0.0,0.0,0.0,0.0,-3.6681,-3.6405,-3.6405,-3.6908,-3.7123,-3.7123,-3.6669,-3.6392,-3.6355,-3.6355,-3.6019,-3.5445,-3.5445,-3.5144,0.0,0.0,0.0,0.0,-3.4625,-3.4324,-3.3897,-3.3859,-3.2867,-3.1449,-3.1399,-3.0733,-2.9842,-2.9804,-2.9792,-2.9792,-2.9792,-2.9792,-2.9792,-2.9792,-2.9792,-2.9792,-2.9792,-2.9792,-2.9792,-2.9792,-2.9792,-2.9792,-2.9792,-2.9792,-2.9792,-2.9792,-2.9792,-2.9792,-2.9792,-2.9792,-2.9792,-2.9792,-2.9792,-2.9792,-2.9792,-2.9792,-2.983,-2.9895,-2.9895,-2.9934,-3.0011,-2.9934,-3.0062,-3.0487,-2.8607,-2.7404,-2.7387,-2.76,-2.7933,-2.8339,-2.7933,-2.767,-2.7604,-2.5844,-2.4942,-2.4968,-2.3869,-2.3326,-2.3356,-2.4044,-2.4379,-1.7127,0.0,-1.8218,-1.8092,-1.7854,-1.7591,0.0,-1.6964,-1.6663,-1.6525,0.0,0.0,-1.7099,-1.6823,0.0,0.0,0.0,0.0,0.0,0.0,0.0,0.0,0.0,0.0,0.0,0.0,0.0,0.0,0.0,0.0,0.0,-3.648,-3.6405,-3.6405,-3.6531,-3.6606,-3.6606,-3.6468,-3.6157,-3.5683,-3.5683,-3.5408,-3.4868,-3.4868,-3.4613,0.0,0.0,0.0,-3.406,-3.3633,-3.3633,-3.3859,-3.3432,-3.2754,-3.1964,-3.1549,-3.0984,-3.0357,-2.9942,-2.9792,-2.9792,-2.9792,-2.9792,-2.9792,-2.9792,-2.9792,-2.9792,-2.9792,-2.9792,-2.9792,-2.9792,-2.9792,-2.9792,-2.9792,-2.9792,-2.9792,-2.9792,-2.9792,-2.9792,-2.9792,-2.9792,-2.9792,-2.9792,-2.9792,-2.9792,-2.9792,-2.9792,-3.0075,-3.0758,-3.0871,-3.1156,-3.1865,-3.1291,-3.1016,-3.1451,-2.9665,-2.8488,-2.8386,-2.8347,-2.79,-2.7007,-2.7449,-2.7417,-2.6782,-2.6531,-2.6506,-2.6717,-2.5968,-2.5615,-2.5615,-2.531,-2.5147,-1.65,-1.65,-1.65,-1.65,-1.65,-1.65,-1.65,0.0,0.0,0.0,0.0,0.0,0.0,0.0,0.0,0.0,0.0,0.0,0.0,0.0,0.0,0.0,0.0,0.0,0.0,0.0,0.0,0.0,0.0,0.0,0.0,-3.6119,-3.5994,-3.5994,-3.5742,-3.573,-3.5981,-3.5994,-3.5717,-3.5119,-3.5119,-3.4831,-3.4349,-3.4349,-3.4048,0.0,0.0,0.0,-3.3106,-3.2805,-3.2855,-3.3093,-3.2792,-3.234,-3.18,-3.1499,-3.0896,-3.0193,-2.9892,-2.9792,-2.9792,-2.9792,-3.0113,-3.0343,-2.9934,-3.0113,-3.0343,-2.9934,-2.9792,-2.9792,-2.9792,-2.9792,-2.9792,-2.9792,-2.9792,-2.9792,-2.9792,-2.9792,-2.9792,-2.9792,-2.9792,-2.9792,-2.9792,-2.9792,-2.9792,-2.9792,-3.0177,-3.0633,-3.1143,-3.1573,-3.2033,-3.2558,-3.2141,-3.1933,-3.2137,-3.0814,-2.9868,-2.9693,-2.9728,-2.923,-2.8078,-2.8576,-2.837,-2.7308,-2.7037,-2.7032,-2.7299,-2.6951,-2.6486,-2.5835,-2.585,-2.5492,-1.65,-1.6563,-1.6613,-1.6525,-1.65,-1.65,-1.65,0.0,0.0,0.0,0.0,0.0,0.0,0.0,0.0,0.0,0.0,0.0,0.0,0.0,0.0,0.0,0.0,0.0,0.0,0.0,0.0,0.0,0.0,0.0,0.0,-3.5717,-3.537,-3.537,-3.4919,-3.4856,-3.5245,-3.5332,-3.5094,-3.46,-3.4512,-3.4173,-3.3646,-3.3646,-3.3345,-3.2872,0.0,0.0,-3.2089,-3.2089,-3.2089,-3.2089,-3.2089,-3.175,-3.1273,-3.1273,-3.0645,-2.9792,-2.9792,-2.9895,-2.9998,-2.9998,-3.0671,-3.1254,-3.0317,-3.0558,-3.1007,-3.0075,-2.9792,-2.9792,-2.9792,-2.9792,-2.9792,-2.9792,-2.9792,-2.9792,-2.9792,-2.9792,-2.9792,-2.9792,-2.9792,-2.9792,-2.9792,-2.9792,-2.9869,-2.9998,-3.0696,-3.1278,-3.1609,-3.2321,-3.289,-3.3031,-3.2925,-3.282,-3.282,-3.2069,-3.15,-3.1187,-3.1011,-3.0541,-2.9711,-2.9942,-2.9602,-2.8549,-2.7682,-2.7445,-2.7791,-2.7579,-2.6823,-2.5571,-2.6271,-2.5881,-1.65,-1.6873,-1.7137,-1.6635,-1.65,-1.65,-1.65,0.0,0.0,0.0,0.0,0.0,0.0,0.0,0.0,0.0,0.0,0.0,0.0,0.0,0.0,0.0,0.0,0.0,0.0,0.0,0.0,0.0,0.0,0.0,0.0,-3.5107,-3.4806,-3.4806,-3.4718,-3.4537,-3.4161,-3.4613,-3.4575,-3.4022,-3.3558,-3.3031,-3.2478,-3.2478,-3.2164,-3.1675,0.0,-3.2026,-3.1512,-3.1512,-3.1512,-3.1512,-3.1512,-3.1198,-3.0733,-3.0733,-3.0331,-2.9792,-2.9792,-3.0317,-3.097,-3.097,-3.1609,-3.2213,-3.1254,-3.1068,-3.1007,-3.0075,-2.9792,-2.9792,-2.9792,-2.9792,-2.9792,-2.9792,-2.9792,-2.9792,-2.9792,-2.9792,-2.9792,-2.9792,-2.9792,-2.9792,-2.9792,-2.9792,-3.0075,-3.0871,-3.1106,-3.1779,-3.338,-3.3705,-3.4109,-3.4953,-3.4293,-3.3774,-3.3774,-3.3671,-3.3337,-3.2787,-3.0801,-2.9504,-2.915,-2.917,-2.9431,-2.9974,-2.9294,-2.929,-3.002,-2.8939,-2.7971,-2.7142,-2.7325,-2.6966,-1.65,-1.671,-1.6923,-1.6974,-1.7415,-1.7766,-1.7466,0.0,0.0,0.0,0.0,0.0,0.0,0.0,0.0,0.0,0.0,0.0,0.0,0.0,0.0,0.0,0.0,0.0,0.0,0.0,0.0,0.0,0.0,0.0,0.0,0.0,-3.4274,-3.4274,-3.3684,-3.3244,-3.2993,-3.2943,-3.2943,-3.2993,-3.2729,-3.2315,-3.1763,-3.1763,-3.1625,-3.1399,0.0,-3.1461,-3.0972,-3.0972,-3.0972,-3.0972,-3.0972,-3.0821,-3.0583,-3.0281,-3.0329,-3.0558,-3.0558,-3.1193,-3.1852,-3.1352,-3.1852,-3.2429,-3.1499,-3.1536,-3.1852,-3.1439,-3.057,-2.9792,-2.9792,-3.0177,-3.0558,-3.0558,-3.0558,-3.0558,-3.0558,-3.0139,-2.9792,-2.9792,-3.0216,-3.0558,-3.0558,-3.0983,-3.1439,-3.1888,-3.2393,-3.3031,-3.3876,-3.4461,-3.4986,-3.5439,-3.51,-3.4576,-3.4061,-3.3993,-3.3791,-3.3348,-3.147,-3.0353,-3.0342,-2.9473,-2.9597,-3.0925,-2.9856,-2.9711,-3.0507,-2.9579,-2.8737,-2.7977,-2.8017,-2.7453,-1.6463,-1.6588,-1.6798,-1.7099,0.0,-1.8469,-1.8731,0.0,0.0,0.0,0.0,0.0,0.0,0.0,0.0,0.0,0.0,0.0,0.0,0.0,0.0,0.0,0.0,0.0,0.0,0.0,0.0,0.0,0.0,0.0,0.0,0.0,-3.3959,-3.4204,-3.3008,-3.2333,-3.2333,-3.1723,-3.1599,-3.2014,-3.1901,-3.1625,-3.121,-3.121,-3.1135,-3.1022,-3.1148,-3.0909,-3.0419,-3.0419,-3.0419,-3.0419,-3.0419,-3.0565,-3.0685,-3.0266,-3.0595,-3.1217,-3.1462,-3.1997,-3.2522,-3.2033,-3.25,-3.3101,-3.2141,-3.2357,-3.289,-3.2664,-3.1549,-3.047,-3.047,-3.0983,-3.1462,-3.1254,-3.1217,-3.1143,-3.0932,-3.0317,-2.9869,-3.0113,-3.0696,-3.1278,-3.1499,-3.2141,-3.2664,-3.289,-3.3518,-3.4095,-3.4312,-3.5019,-3.5504,-3.5504,-3.5504,-3.518,-3.4428,-3.4129,-3.3933,-3.3768,-3.2284,-3.1339,-3.122,-3.0178,-3.0208,-3.1467,-3.0235,-2.9883,-3.0507,-2.9879,-2.918,-2.8396,-2.8579,-2.8038,-1.635,-1.6911,-1.72,-1.6688,-1.6613,0.0,-1.9937,-2.0163,0.0,-2.2443,0.0,0.0,0.0,0.0,0.0,0.0,0.0,0.0,0.0,0.0,0.0,0.0,0.0,0.0,0.0,0.0,0.0,0.0,0.0,0.0,0.0,0.0,0.0,-3.5169,-3.3607,-3.2778,-3.2778,-3.186,-3.1411,-3.1449,-3.0959,-3.0708,-3.067,-3.067,-3.0394,-2.993,-3.0444,-3.0357,-2.9854,-2.9854,-2.9854,-2.9854,-2.9854,-3.0369,-3.1158,-3.1119,-3.1143,-3.1315,-3.2213,-3.2522,-3.2749,-3.3518,-3.4476,-3.51,-3.4109,-3.3842,-3.3705,-3.2855,-3.25,-3.2393,-3.2393,-3.2464,-3.2285,-3.1426,-3.1217,-3.097,-3.0113,-2.9869,-3.0075,-3.0932,-3.1143,-3.1499,-3.2357,-3.2558,-3.289,-3.3774,-3.3959,-3.4327,-3.5279,-3.5472,-3.5504,-3.5504,-3.5504,-3.5472,-3.5392,-3.4543,-3.4122,-3.441,-3.2925,-3.1536,-3.0433,-3.0999,-3.138,-3.1511,-3.0795,-3.0436,-3.0507,-2.9879,-2.918,-2.8424,-2.918,-2.9053,-1.6437,-1.6936,-1.736,-1.7112,-1.7049,0.0,0.0,-2.2343,-2.3806,-2.5174,0.0,0.0,0.0,0.0,0.0,0.0,0.0,0.0,0.0,0.0,0.0,0.0,0.0,0.0,0.0,0.0,0.0,0.0,0.0,0.0,0.0,0.0,0.0,-3.2867,-3.2476,-3.2006,-3.143,-3.0756,-3.0394,-3.0394,-3.0545,-3.0432,-3.0105,-3.0105,-2.9993,-2.9843,-3.065,-3.0509,-2.9869,-3.0419,-3.0317,-2.9792,-2.9792,-3.0381,-3.1217,-3.1217,-3.1924,-3.2996,-3.3345,-3.3891,-3.4375,-3.4109,-3.4245,-3.4509,-3.4129,-3.3993,-3.4061,-3.4341,-3.4409,-3.4124,-3.2925,-3.3031,-3.3241,-3.2285,-3.2522,-3.2664,-3.1719,-3.1549,-3.1659,-3.1997,-3.2522,-3.3066,-3.3415,-3.3973,-3.4524,-3.4872,-3.4953,-3.5067,-3.5439,-3.5504,-3.5504,-3.5504,-3.5504,-3.5504,-3.5504,-3.5133,-3.4804,-3.4517,-3.3548,-3.2592,-3.1692,-3.1559,-3.1511,-3.1511,-3.0823,-3.0507,-3.0507,-2.9879,-2.965,-2.9714,-3.0022,-2.9786,-1.6187,-1.6547,-1.6886,-1.7061,0.0,0.0,-2.2069,-2.4061,-2.5875,0.0,0.0,0.0,0.0,0.0,0.0,0.0,0.0,0.0,0.0,0.0,0.0,0.0,0.0,0.0,0.0,0.0,0.0,0.0,0.0,0.0,0.0,0.0,0.0,0.0,-3.1886,-3.1445,-3.0815,-3.0123,-2.9792,-2.9792,-3.0181,-3.0156,-2.9792,-2.9792,-2.9972,-3.0279,-3.0932,-3.1007,-3.0709,-3.1044,-3.0658,-2.983,-3.0139,-3.0809,-3.1669,-3.196,-3.289,-3.4061,-3.4361,-3.4725,-3.4953,-3.4576,-3.4461,-3.4461,-3.4461,-3.4461,-3.461,-3.5326,-3.5504,-3.518,-3.3871,-3.4007,-3.4245,-3.3276,-3.3518,-3.3739,-3.282,-3.2593,-3.2713,-3.2996,-3.3567,-3.4095,-3.4428,-3.5019,-3.5504,-3.5504,-3.5504,-3.5504,-3.5504,-3.5504,-3.5504,-3.5504,-3.5504,-3.5504,-3.5504,-3.5504,-3.5295,-3.4831,-3.4173,-3.3425,-3.2557,-3.2049,-3.172,-3.1511,-3.1032,-3.0836,-3.0821,-3.0402,-3.0417,-3.0836,-3.0836,-3.0492,-1.5555,-1.5726,-1.5844,0.0,0.0,0.0,-2.465,-2.5025,-2.598,0.0,0.0,0.0,0.0,0.0,0.0,0.0,0.0,0.0,0.0,0.0,0.0,0.0,0.0,0.0,0.0,0.0,0.0,0.0,0.0,0.0,0.0,0.0,0.0,-3.36,-3.2051,-3.1217,-3.1217,-3.0279,-2.9792,-2.9792,-2.9792,-2.9792,-2.9792,-2.9792,-3.0317,-3.1217,-3.1217,-3.1742,-3.25,-3.1573,-3.062,-2.9895,-3.0833,-3.1779,-3.2749,-3.3671,-3.4027,-3.4177,-3.5166,-3.4839,-3.4177,-3.518,-3.5504,-3.5504,-3.5504,-3.5504,-3.5504,-3.5504,-3.5504,-3.5504,-3.5504,-3.5504,-3.5246,-3.4245,-3.4027,-3.3774,-3.282,-3.2629,-3.289,-3.3842,-3.4027,-3.4312,-3.5326,-3.5504,-3.5504,-3.5504,-3.5504,-3.5504,-3.5504,-3.5504,-3.5504,-3.5504,-3.5504,-3.5504,-3.5504,-3.5504,-3.5504,-3.5504,-3.4861,-3.3903,-3.2557,-3.2497,-3.2183,-3.1525,-3.1511,-3.1511,-3.1511,-3.1511,-3.1511,-3.1511,-3.1511,-3.1137,-1.6233,-1.6846,0.0,0.0,0.0,0.0,0.0,0.0,0.0,0.0,0.0,0.0,0.0,0.0,0.0,0.0,0.0,0.0,0.0,0.0,0.0,0.0,0.0,0.0,0.0,0.0,0.0,0.0,0.0,0.0,0.0,0.0,0.0,-3.2905,-3.308,-3.2522,-3.1217,-3.0932,-3.0457,-2.9792,-2.9792,-2.9792,-2.983,-3.0482,-3.0932,-3.1254,-3.1888,-3.196,-3.1536,-3.0595,-3.0457,-3.0796,-3.1068,-3.2177,-3.3636,-3.391,-3.4461,-3.51,-3.5392,-3.5311,-3.51,-3.5392,-3.5504,-3.5504,-3.5504,-3.5504,-3.5504,-3.5504,-3.5504,-3.5504,-3.5504,-3.5504,-3.5246,-3.4245,-3.4543,-3.4806,-3.3808,-3.4158,-3.4706,-3.4986,-3.5067,-3.5133,-3.5439,-3.5504,-3.5504,-3.5504,-3.5504,-3.5504,-3.5504,-3.5504,-3.5504,-3.5504,-3.5504,-3.5504,-3.5504,-3.5504,-3.5504,-3.5504,-3.531,-3.4801,-3.3933,-3.3006,-3.2392,-3.2198,-3.1735,-3.1511,-3.1511,-3.1511,-3.1511,-3.1511,-3.1511,-3.0898,-1.611,0.0,0.0,0.0,0.0,0.0,0.0,0.0,0.0,0.0,0.0,0.0,0.0,0.0,0.0,0.0,0.0,0.0,0.0,0.0,0.0,0.0,0.0,0.0,0.0,0.0,0.0,0.0,0.0,0.0,0.0,0.0,-3.3567,-3.2629,-3.3136,-3.2713,-3.1217,-3.0993,-3.0396,-2.9453,-2.9227,-2.9126,-2.9177,-3.0175,-3.1044,-3.1815,-3.2749,-3.2629,-3.1742,-3.1563,-3.1365,-3.1278,-3.2033,-3.2996,-3.4061,-3.4461,-3.4986,-3.5504,-3.5504,-3.5504,-3.5504,-3.5504,-3.5504,-3.5504,-3.5504,-3.5504,-3.5504,-3.5504,-3.5504,-3.5504,-3.5504,-3.5504,-3.5359,-3.4725,-3.4758,-3.4839,-3.4643,-3.4758,-3.5019,-3.5424,-3.5504,-3.5504,-3.5504,-3.5504,-3.5504,-3.5504,-3.5504,-3.5504,-3.5504,-3.5504,-3.5504,-3.5504,-3.5504,-3.5504,-3.5504,-3.5504,-3.5504,-3.5504,-3.5504,-3.519,-3.4533,-3.3469,-3.2662,-3.2108,-3.1705,-3.1511,-3.1511,-3.1511,-3.1511,-3.1511,-3.1511,-3.0943,-1.5691,0.0,0.0,0.0,0.0,0.0,0.0,0.0,0.0,0.0,0.0,0.0,0.0,0.0,0.0,0.0,0.0,0.0,0.0,0.0,0.0,0.0,0.0,0.0,0.0,0.0,0.0,0.0,0.0,0.0,0.0,0.0,-3.3625,-3.2723,-3.2688,-3.2193,-3.1156,-3.0665,-2.9884,-2.8813,-2.8348,-2.8133,-2.8268,-2.9315,-3.079,-3.2595,-3.3516,-3.3407,-3.2664,-3.3518,-3.2925,-3.1609,-3.3345,-3.4018,-3.4158,-3.5151,-3.5474,-3.5429,-3.5489,-3.5504,-3.5504,-3.5504,-3.5504,-3.5504,-3.5504,-3.5504,-3.5504,-3.5504,-3.5504,-3.5504,-3.5504,-3.5504,-3.5504,-3.5504,-3.4725,-3.4245,-3.5166,-3.4658,-3.4279,-3.5311,-3.5504,-3.5504,-3.5504,-3.5504,-3.5504,-3.5504,-3.5504,-3.5504,-3.5504,-3.5504,-3.5504,-3.5504,-3.5504,-3.5504,-3.5504,-3.5504,-3.5504,-3.5504,-3.5504,-3.5175,-3.4444,-3.3814,-3.2901,-3.1615,-3.1525,-3.1511,-3.1511,-3.1511,-3.1511,-3.1511,-3.1511,-3.1107,0.0,-1.7679,0.0,0.0,0.0,0.0,0.0,0.0,0.0,0.0,0.0,0.0,0.0,0.0,0.0,0.0,0.0,0.0,0.0,0.0,0.0,0.0,0.0,0.0,0.0,0.0,0.0,0.0,0.0,0.0,0.0,0.0,-3.4063,-3.3309,-3.3309,-3.2511,-3.0911,-3.0754,-2.9882,0.0,-2.816,-2.8471,-2.9196,-2.9444,-3.0463,-3.2028,-3.289,-3.3024,-3.2629,-3.282,-3.3101,-3.3449,-3.3842,-3.4141,-3.4471,-3.523,-3.516,-3.4771,-3.5325,-3.5504,-3.5504,-3.5504,-3.5504,-3.5504,-3.5504,-3.5504,-3.5504,-3.5504,-3.5504,-3.5504,-3.5504,-3.5504,-3.5504,-3.5504,-3.4725,-3.4061,-3.4279,-3.4143,-3.4279,-3.5311,-3.5504,-3.5504,-3.5504,-3.5504,-3.5504,-3.5504,-3.5504,-3.5504,-3.5504,-3.5504,-3.5504,-3.5504,-3.5504,-3.5504,-3.5504,-3.5504,-3.5504,-3.5504,-3.5504,-3.4966,-3.3754,-3.3574,-3.3125,-3.2288,-3.1765,-3.1511,-3.1511,-3.1511,-3.1511,-3.1511,-3.1511,-3.0883,0.0,0.0,0.0,0.0,0.0,0.0,0.0,0.0,0.0,0.0,0.0,0.0,0.0,0.0,0.0,0.0,0.0,0.0,0.0,0.0,0.0,0.0,0.0,0.0,0.0,0.0,0.0,0.0,0.0,0.0,0.0,-3.4008,-3.3844,-3.3499,-3.3499,-3.2819,-3.1443,-3.074,-2.9902,-2.8904,-2.7844,-2.7774,-2.8681,-2.9671,-3.0808,-3.1989,-3.2415,-3.2535,-3.2402,-3.2854,-3.3054,-3.312,-3.3576,-3.3851,-3.4053,-3.4412,-3.4322,-3.4098,-3.4786,-3.4801,-3.4592,-3.4921,-3.4801,-3.4592,-3.4921,-3.5011,-3.5085,-3.5415,-3.5504,-3.5504,-3.5504,-3.5504,-3.5392,-3.4905,-3.4394,-3.4129,-3.461,-3.4361,-3.4279,-3.5311,-3.5504,-3.5504,-3.5504,-3.5504,-3.5504,-3.5504,-3.5504,-3.5504,-3.5504,-3.5504,-3.5504,-3.5504,-3.5504,-3.5504,-3.5504,-3.5504,-3.5504,-3.5504,-3.5504,-3.504,-3.4008,-3.3664,-3.3036,-3.2034,-3.1675,-3.1511,-3.1511,-3.1511,-3.1511,-3.1496,-3.1167,-3.0823,0.0,0.0,0.0,0.0,0.0,0.0,0.0,0.0,0.0,0.0,0.0,0.0,0.0,0.0,0.0,0.0,0.0,0.0,0.0,0.0,0.0,0.0,0.0,0.0,0.0,0.0,0.0,0.0,0.0,0.0,-3.3335,-3.332,-3.3275,-3.3155,-3.3155,-3.2669,-3.1619,-3.0329,-2.9509,-2.9108,-2.7377,-2.7126,-2.8208,-2.994,-3.1176,-3.1936,-3.211,-3.2246,-3.2411,-3.3192,-3.3053,-3.2411,-3.3192,-3.3425,-3.3335,-3.3455,-3.3425,-3.3425,-3.4083,-3.3948,-3.3589,-3.4159,-3.4039,-3.3769,-3.4339,-3.4593,-3.4771,-3.534,-3.5504,-3.5504,-3.5504,-3.5504,-3.5279,-3.4461,-3.4245,-3.4428,-3.51,-3.4576,-3.4279,-3.5311,-3.5504,-3.5504,-3.5504,-3.5504,-3.5504,-3.5504,-3.5504,-3.5504,-3.5504,-3.5504,-3.5504,-3.5504,-3.5504,-3.5504,-3.5504,-3.5504,-3.5504,-3.5504,-3.5504,-3.519,-3.4533,-3.3979,-3.3095,-3.1869,-3.1615,-3.157,-3.1675,-3.157,-3.1451,-3.1316,-3.0776,-3.0746,0.0,0.0,0.0,0.0,0.0,0.0,0.0,0.0,0.0,0.0,0.0,0.0,0.0,0.0,0.0,0.0,0.0,0.0,0.0,0.0,0.0,0.0,0.0,0.0,0.0,0.0,0.0,0.0,0.0,0.0,-3.2677,-3.2647,-3.2377,-3.1795,-3.1765,-3.1087,-2.9677,-2.8841,-2.7755,-2.6405,-2.6709,-2.794,-2.995,-3.0244,-3.074,-3.1353,-3.2105,-3.2779,-3.3331,-3.3454,-3.3423,-3.3331,-3.3454,-3.3155,-3.2706,-3.329,-3.314,-3.2736,-3.3395,-3.3559,-3.3499,-3.3589,-3.3979,-3.4399,-3.4474,-3.4906,-3.5385,-3.5474,-3.5504,-3.5504,-3.5504,-3.5504,-3.5472,-3.5326,-3.5294,-3.51,-3.4361,-3.4095,-3.4279,-3.5311,-3.5504,-3.5504,-3.5504,-3.5504,-3.5504,-3.5504,-3.5504,-3.5504,-3.5504,-3.5504,-3.5504,-3.5504,-3.5504,-3.5504,-3.5504,-3.5504,-3.5504,-3.5504,-3.5504,-3.519,-3.4533,-3.4414,-3.3993,-3.3245,-3.2079,-3.1795,-3.2377,-3.178,-3.1197,-3.0642,-3.0552,-3.0268,0.0,0.0,0.0,0.0,0.0,0.0,0.0,0.0,0.0,0.0,0.0,0.0,0.0,0.0,0.0,0.0,0.0,0.0,0.0,0.0,0.0,0.0,0.0,0.0,0.0,0.0,0.0,0.0,0.0,-3.118,-3.0881,-3.0881,-3.0731,-3.0447,-3.0447,-3.0116,-2.9469,-2.8262,-2.7227,-2.6483,-2.8121,-2.9211,-2.9736,-3.0221,-3.0749,-3.1397,-3.1767,-3.2108,-3.2392,-3.2392,-3.2392,-3.2392,-3.2392,-3.2183,-3.1974,-3.2258,-3.2183,-3.2034,-3.2721,-3.2706,-3.2452,-3.2826,-3.314,-3.338,-3.338,-3.3844,-3.4457,-3.4816,-3.4936,-3.5026,-3.54,-3.5504,-3.5504,-3.5504,-3.5504,-3.5392,-3.4953,-3.4839,-3.4986,-3.5392,-3.5504,-3.5504,-3.5504,-3.5504,-3.5504,-3.5504,-3.5504,-3.5504,-3.5504,-3.5504,-3.5504,-3.5504,-3.5504,-3.5504,-3.5504,-3.5504,-3.5504,-3.5504,-3.5504,-3.537,-3.507,-3.4713,-3.4548,-3.4622,-3.2916,-3.2198,-3.2512,-3.1824,-3.1152,-3.0507,-3.0507,-3.0178,0.0,0.0,0.0,0.0,0.0,0.0,0.0,0.0,0.0,0.0,0.0,0.0,0.0,0.0,0.0,0.0,0.0,0.0,0.0,0.0,0.0,0.0,0.0,0.0,0.0,0.0,0.0,0.0,0.0,-2.9606,-2.9606,-2.9606,-2.9606,-2.9606,-2.9606,-2.9532,-2.9367,-2.7782,-2.7012,-2.707,-2.8886,-2.96,-2.9391,-3.0002,-3.0552,-3.1017,-3.1182,-3.1346,-3.1511,-3.1511,-3.1511,-3.1511,-3.1511,-3.1511,-3.1511,-3.1511,-3.1511,-3.157,-3.2064,-3.1914,-3.1585,-3.2079,-3.2348,-3.2512,-3.2512,-3.3095,-3.3844,-3.4369,-3.4503,-3.4668,-3.5325,-3.537,-3.5295,-3.5459,-3.5504,-3.5504,-3.5504,-3.5504,-3.5504,-3.5504,-3.5504,-3.5504,-3.5504,-3.5504,-3.5504,-3.5504,-3.5504,-3.5504,-3.5504,-3.5504,-3.5504,-3.5504,-3.5504,-3.5504,-3.5504,-3.5504,-3.5504,-3.5504,-3.5504,-3.5504,-3.5504,-3.4846,-3.4758,-3.5235,-3.3455,-3.2572,-3.2766,-3.1914,-3.1152,-3.0507,-3.0342,-3.0028,0.0,0.0,0.0,0.0,0.0,0.0,0.0,0.0,0.0,0.0,0.0,0.0,0.0,0.0,0.0,0.0,0.0,0.0,0.0,0.0,0.0,0.0,0.0,0.0,0.0,0.0,0.0,0.0,0.0,-2.9606,-2.9606,-2.9606,-2.9606,-2.9606,-2.9606,-2.928,-2.8667,-2.7249,-2.6833,-2.7464,-2.7602,-2.832,-2.9597,-2.9624,-2.9681,-2.9714,-3.0298,-3.0898,-3.1511,-3.1511,-3.1511,-3.1511,-3.1511,-3.1511,-3.1511,-3.1511,-3.1511,-3.1511,-3.154,-3.1525,-3.1511,-3.154,-3.1974,-3.2512,-3.2512,-3.341,-3.4459,-3.4503,-3.4503,-3.4668,-3.5325,-3.5026,-3.4728,-3.5355,-3.5504,-3.5504,-3.5504,-3.5504,-3.5504,-3.5504,-3.5504,-3.5504,-3.5504,-3.5504,-3.5504,-3.5504,-3.5504,-3.5504,-3.5504,-3.5504,-3.5504,-3.5504,-3.5504,-3.5504,-3.5504,-3.5504,-3.5504,-3.5504,-3.5504,-3.5504,-3.5504,-3.4846,-3.4518,-3.4563,-3.32,-3.2826,-3.344,-3.2123,-3.1152,-3.0492,-2.9909,-2.9636,0.0,0.0,0.0,0.0,0.0,0.0,0.0,0.0,0.0,0.0,0.0,0.0,0.0,0.0,0.0,0.0,0.0,0.0,0.0,0.0,0.0,0.0,0.0,0.0,0.0,0.0,0.0,0.0,0.0,0.0,-2.8289,-2.7914,-2.7664,-2.7664,-2.7664,-2.7134,-2.5988,-2.6379,-2.6663,-2.6883,-2.7774,-2.8459,-2.8951,-2.8951,-2.8951,-2.8966,-2.919,-2.9654,-3.0283,-3.0283,-3.0283,-3.0283,-3.0283,-3.0283,-3.0328,-3.0731,-3.0866,-3.0913,-3.1346,-3.1511,-3.1511,-3.1511,-3.1944,-3.2407,-3.1989,-3.2482,-3.3215,-3.3215,-3.3215,-3.3365,-3.4038,-3.4337,-3.4683,-3.534,-3.5504,-3.5504,-3.5504,-3.5504,-3.5504,-3.5504,-3.5504,-3.5504,-3.5504,-3.5504,-3.5504,-3.5504,-3.5504,-3.5504,-3.5504,-3.5504,-3.5504,-3.5504,-3.5504,-3.5504,-3.5504,-3.5504,-3.5504,-3.5504,-3.5504,-3.5504,-3.5504,-3.5265,-3.4936,-3.4518,-3.3604,-3.3051,-3.2856,-3.1496,-3.0746,-3.0492,-2.9864,-2.9355,0.0,0.0,0.0,0.0,0.0,0.0,0.0,0.0,0.0,0.0,0.0,0.0,0.0,0.0,0.0,0.0,0.0,0.0,0.0,0.0,0.0,0.0,0.0,0.0,0.0,0.0,0.0,0.0,0.0,0.0,-2.6911,-2.6497,-2.6258,-2.6258,-2.6258,-2.5818,-2.4888,-2.5803,-2.6352,-2.6531,-2.7242,-2.7829,-2.8248,-2.8023,-2.8053,-2.8248,-2.8248,-2.8757,-2.9606,-2.9606,-2.9606,-2.9606,-2.9606,-2.9726,-2.9939,-3.0357,-3.0657,-3.0883,-3.1346,-3.1511,-3.1511,-3.1511,-3.1795,-3.2064,-3.1645,-3.1959,-3.2512,-3.2512,-3.2512,-3.2662,-3.332,-3.3814,-3.4294,-3.4711,-3.4831,-3.4831,-3.4831,-3.519,-3.5504,-3.5504,-3.5504,-3.5504,-3.5504,-3.5504,-3.5504,-3.5504,-3.5504,-3.5504,-3.5504,-3.5504,-3.5504,-3.5504,-3.5504,-3.5504,-3.5504,-3.5504,-3.5504,-3.5504,-3.5504,-3.5504,-3.5504,-3.507,-3.4622,-3.4189,-3.3275,-3.2617,-3.2153,-3.1046,-3.0507,-3.0477,-2.9639,-2.8918,0.0,0.0,0.0,0.0,0.0,0.0,0.0,0.0,0.0,0.0,0.0,0.0,0.0,0.0,0.0,0.0,0.0,0.0,0.0,0.0,0.0,0.0,0.0,0.0,0.0,0.0,0.0,0.0,0.0,-2.5585,-2.5615,-2.5585,-2.5561,-2.5561,-2.5555,-2.5555,-2.5555,-2.557,-2.5899,-2.6527,-2.5899,-2.6273,-2.7525,-2.6881,-2.6941,-2.754,-2.7555,-2.8304,-2.9517,-2.9532,-2.9547,-2.9547,-2.9547,-2.9894,-3.0417,-3.0462,-3.0883,-3.1451,-3.1496,-3.1511,-3.1511,-3.1511,-3.1511,-3.1511,-3.1511,-3.1944,-3.2452,-3.2452,-3.2452,-3.2632,-3.3305,-3.3484,-3.3499,-3.3499,-3.3514,-3.3514,-3.3499,-3.4532,-3.5474,-3.5444,-3.5474,-3.5489,-3.5474,-3.5489,-3.5489,-3.5474,-3.5474,-3.5474,-3.5474,-3.5474,-3.5489,-3.5504,-3.5504,-3.5504,-3.5504,-3.5504,-3.5504,-3.5504,-3.5504,-3.5489,-3.5474,-3.4218,-3.3499,-3.3469,-3.2183,-3.1525,-3.1511,-3.0821,-3.0492,-3.0507,-2.922,-2.8248,-2.0365,0.0,0.0,0.0,0.0,0.0,0.0,0.0,0.0,0.0,0.0,0.0,0.0,0.0,0.0,0.0,0.0,0.0,0.0,0.0,0.0,0.0,0.0,0.0,0.0,0.0,0.0,0.0,-2.5143,-2.5083,-2.5561,-2.5128,-2.4874,-2.4874,-2.4418,-2.4148,-2.4148,-2.4619,-2.4963,-2.5158,-2.5457,-2.5794,-2.6153,-2.5959,-2.5974,-2.6183,-2.6686,-2.7106,-2.748,-2.7959,-2.8154,-2.8154,-2.8154,-2.8259,-2.8528,-2.9475,-2.9968,-3.0253,-3.1182,-3.1511,-3.1511,-3.1511,-3.1511,-3.1511,-3.1511,-3.163,-3.178,-3.178,-3.178,-3.1929,-3.2617,-3.314,-3.3499,-3.3499,-3.3858,-3.4099,-3.3589,-3.4158,-3.4622,-3.4143,-3.4846,-3.5355,-3.4846,-3.5175,-3.534,-3.4863,-3.4788,-3.4788,-3.4788,-3.4788,-3.4951,-3.5444,-3.5504,-3.5504,-3.5504,-3.5504,-3.5504,-3.5504,-3.5504,-3.528,-3.4786,-3.4397,-3.3754,-3.2811,-3.2392,-3.1974,-3.1511,-3.0387,-3.0328,-3.1182,-2.9924,-2.8708,0.0,0.0,0.0,0.0,0.0,0.0,-1.9346,-1.9513,0.0,0.0,0.0,0.0,0.0,0.0,0.0,0.0,0.0,0.0,0.0,0.0,0.0,0.0,0.0,0.0,0.0,0.0,0.0,-2.4403,-2.4268,-2.4335,-2.4747,-2.4163,-2.3924,-2.4171,-2.3804,-2.3595,-2.3595,-2.3999,-2.4321,-2.4605,-2.4694,-2.5211,-2.6004,-2.545,-2.5644,-2.6437,-2.6542,-2.6752,-2.7061,-2.7435,-2.76,-2.76,-2.76,-2.7764,-2.8154,-2.9217,-2.9771,-3.0118,-3.1137,-3.1511,-3.1511,-3.1511,-3.1511,-3.1511,-3.1511,-3.1511,-3.1511,-3.1511,-3.1511,-3.1645,-3.2318,-3.2572,-3.2751,-3.3021,-3.317,-3.314,-3.2766,-3.341,-3.4038,-3.3918,-3.4771,-3.5295,-3.4623,-3.5055,-3.5265,-3.4608,-3.4503,-3.4608,-3.4861,-3.4651,-3.4773,-3.5429,-3.5504,-3.5504,-3.5504,-3.5504,-3.5504,-3.5504,-3.5504,-3.519,-3.4533,-3.4249,-3.3574,-3.2512,-3.2213,-3.175,-3.1077,-3.0073,-2.9684,-2.9864,-2.94,-2.8618,0.0,0.0,0.0,0.0,0.0,0.0,-1.9082,-1.9344,-1.9366,0.0,0.0,0.0,0.0,0.0,0.0,0.0,0.0,0.0,0.0,0.0,0.0,0.0,0.0,0.0,0.0,-2.2712,-2.3182,-2.2628,-2.3092,-2.3415,-2.349,-2.2927,-2.2897,-2.358,-2.3535,-2.3535,-2.3595,-2.3595,-2.3909,-2.4485,-2.3872,-2.4537,-2.6213,-2.5023,-2.5465,-2.7121,-2.6686,-2.6836,-2.739,-2.754,-2.76,-2.76,-2.76,-2.7974,-2.8562,-2.922,-2.9819,-3.0387,-3.1047,-3.1286,-3.1301,-3.1376,-3.1391,-3.1406,-3.1481,-3.1511,-3.1511,-3.1511,-3.1555,-3.1735,-3.2243,-3.2049,-3.1824,-3.2273,-3.1989,-3.1585,-3.1525,-3.2512,-3.3559,-3.4174,-3.4876,-3.519,-3.4608,-3.4981,-3.519,-3.4593,-3.4503,-3.4698,-3.522,-3.4801,-3.4713,-3.522,-3.5415,-3.5474,-3.54,-3.5385,-3.5385,-3.5385,-3.5325,-3.4981,-3.4324,-3.3694,-3.308,-3.2392,-3.1795,-3.1167,-3.0507,-3.0028,-2.9097,-2.772,-2.8382,-2.8293,0.0,0.0,0.0,0.0,0.0,0.0,-2.0492,-2.0099,-1.9574,0.0,0.0,0.0,0.0,0.0,0.0,0.0,0.0,0.0,0.0,0.0,0.0,0.0,0.0,0.0,0.0,-2.1919,-2.2024,-2.1889,-2.1994,-2.2293,-2.2853,-2.2233,-2.2413,-2.3565,-2.3137,-2.3122,-2.3595,-2.3595,-2.367,-2.3789,-2.367,-2.3804,-2.4178,-2.3909,-2.4014,-2.4433,-2.5375,-2.5869,-2.6078,-2.7151,-2.76,-2.76,-2.76,-2.7675,-2.7884,-2.8547,-2.8861,-2.9071,-2.9729,-2.9968,-3.0043,-3.0552,-3.0717,-3.0806,-3.1331,-3.1511,-3.1511,-3.1511,-3.1884,-3.2198,-3.1795,-3.2392,-3.2886,-3.1914,-3.2004,-3.2153,-3.1615,-3.2123,-3.2736,-3.2871,-3.3858,-3.4668,-3.4533,-3.4623,-3.4668,-3.4533,-3.4503,-3.4369,-3.3933,-3.4233,-3.4354,-3.3933,-3.4861,-3.528,-3.4726,-3.4713,-3.4713,-3.4713,-3.4188,-3.3589,-3.2916,-3.2766,-3.2392,-3.1705,-3.157,-3.1167,-3.0507,-3.0913,-3.0208,-2.8412,-2.9086,-2.8768,0.0,0.0,0.0,-2.0991,0.0,0.0,0.0,-2.0649,-2.0176,0.0,0.0,0.0,0.0,0.0,0.0,0.0,0.0,0.0,0.0,0.0,0.0,0.0,0.0,0.0,0.0,-2.1306,-2.1695,-2.1695,-2.1395,-2.15,-2.2179,-2.156,-2.165,-2.2622,-2.2373,-2.2523,-2.3131,-2.3152,-2.3295,-2.3595,-2.3595,-2.3789,-2.4081,-2.3759,-2.3969,-2.4627,-2.4948,-2.5495,-2.6153,-2.6811,-2.73,-2.76,-2.76,-2.76,-2.7675,-2.8353,-2.8607,-2.8697,-2.9382,-2.9606,-2.9711,-3.0298,-3.0507,-3.0627,-3.1301,-3.1511,-3.1511,-3.1511,-3.1735,-3.2064,-3.2392,-3.2512,-3.2512,-3.2512,-3.2228,-3.1914,-3.157,-3.2019,-3.2512,-3.2512,-3.3036,-3.3604,-3.3918,-3.4294,-3.4399,-3.4038,-3.3978,-3.3858,-3.3529,-3.3784,-3.3858,-3.3529,-3.4397,-3.4726,-3.4038,-3.3978,-3.3978,-3.3978,-3.3679,-3.32,-3.2542,-3.2512,-3.2168,-3.1511,-3.1167,-3.0851,-3.0507,-3.0552,-2.9879,-2.8607,-2.8936,-2.8573,0.0,0.0,0.0,0.0,0.0,-2.115,0.0,0.0,0.0,-1.9988,0.0,0.0,0.0,0.0,0.0,0.0,0.0,0.0,0.0,0.0,0.0,0.0,0.0,0.0,0.0,-2.0681,-2.1306,-2.1306,-2.0812,-2.0812,-2.147,-2.0872,-2.0872,-2.1665,-2.1695,-2.1949,-2.2508,-2.2748,-2.3062,-2.343,-2.3535,-2.3872,-2.4395,-2.3849,-2.4193,-2.5196,-2.4784,-2.5202,-2.6228,-2.6482,-2.6926,-2.742,-2.754,-2.76,-2.766,-2.8203,-2.8412,-2.8472,-2.9037,-2.9307,-2.9517,-3.0118,-3.0492,-3.0806,-3.1331,-3.1511,-3.1511,-3.1511,-3.1585,-3.1914,-3.2871,-3.2392,-3.1929,-3.2901,-3.2273,-3.1511,-3.1511,-3.1929,-3.2303,-3.2303,-3.2303,-3.2572,-3.3365,-3.3829,-3.3963,-3.3559,-3.3499,-3.344,-3.332,-3.3425,-3.344,-3.332,-3.4008,-3.4294,-3.3724,-3.3559,-3.3499,-3.3499,-3.326,-3.2886,-3.2318,-3.2303,-3.2049,-3.1511,-3.0823,-3.0507,-3.0507,-2.9759,-2.9116,-2.8607,-2.8607,-2.8233,0.0,0.0,0.0,0.0,-2.184,0.0,0.0,0.0,-2.107,-2.1301,0.0,0.0,0.0,0.0,0.0,0.0,0.0,0.0,0.0,0.0,0.0,0.0,0.0,0.0,0.0,0.0,-1.9932,-1.9932,-1.9872,-2.0109,-2.0778,-2.0183,-2.0397,-2.1665,-2.1695,-2.1739,-2.1799,-2.2921,-2.3251,-2.2808,-2.3325,-2.364,-2.3714,-2.3625,-2.3684,-2.3864,-2.438,-2.4694,-2.4918,-2.6108,-2.6632,-2.6752,-2.736,-2.76,-2.76,-2.769,-2.7705,-2.772,-2.7794,-2.8229,-2.8816,-2.9475,-3.0477,-3.1406,-3.1481,-3.1511,-3.1511,-3.1511,-3.1929,-3.2273,-3.1839,-3.2049,-3.2258,-3.1824,-3.1615,-3.1511,-3.1511,-3.157,-3.1615,-3.1615,-3.1615,-3.2019,-3.3275,-3.308,-3.2901,-3.3425,-3.3499,-3.329,-3.2706,-3.314,-3.3275,-3.2691,-3.3739,-3.4474,-3.4399,-3.3829,-3.3499,-3.3499,-3.2363,-3.169,-3.1615,-3.1615,-3.1585,-3.1511,-3.0823,-3.0507,-3.0507,-2.9295,-2.8667,-2.8607,-2.8607,-2.8233,0.0,0.0,0.0,0.0,0.0,0.0,0.0,0.0,-2.172,0.0,0.0,0.0,0.0,0.0,0.0,0.0,0.0,0.0,0.0,0.0,0.0,0.0,0.0,0.0,0.0,0.0,0.0,0.0,-1.8897,-1.9241,-1.9507,-1.963,-1.9962,-2.0513,-2.0546,-2.0902,-2.168,-2.2233,-2.2742,-2.3242,-2.3475,-2.3595,-2.3595,-2.3595,-2.3595,-2.361,-2.3909,-2.4231,-2.4649,-2.5202,-2.5899,-2.6641,-2.6926,-2.727,-2.76,-2.76,-2.76,-2.76,-2.76,-2.7779,-2.8199,-2.9262,-3.0462,-3.1511,-3.1511,-3.1511,-3.1511,-3.1511,-3.1705,-3.1944,-3.2049,-3.1989,-3.1944,-3.2049,-3.178,-3.1511,-3.1511,-3.1511,-3.1511,-3.1511,-3.1511,-3.1795,-3.2766,-3.3021,-3.3036,-3.2946,-3.3245,-3.3125,-3.2049,-3.2527,-3.2677,-3.1989,-3.2781,-3.3185,-3.2796,-3.2512,-3.2333,-3.2333,-3.1809,-3.1511,-3.1511,-3.1511,-3.1511,-3.1511,-3.0507,-2.9968,-2.9968,-2.8678,-2.8034,-2.8034,-2.8034,-2.7869,-2.2296,0.0,0.0,0.0,0.0,0.0,0.0,0.0,0.0,0.0,0.0,0.0,0.0,0.0,0.0,0.0,0.0,0.0,0.0,0.0,0.0,0.0,0.0,0.0,0.0,0.0,0.0,-1.8012,-1.8252,-1.8508,-1.8687,-1.9151,-1.9513,-1.9693,-1.9887,-2.0348,-2.1141,-2.1515,-2.2158,-2.3071,-2.3266,-2.343,-2.3595,-2.3595,-2.3595,-2.3595,-2.3595,-2.3879,-2.4335,-2.453,-2.5277,-2.6333,-2.6512,-2.7016,-2.76,-2.76,-2.76,-2.76,-2.76,-2.7839,-2.8349,-2.9487,-3.0612,-3.1511,-3.1511,-3.1511,-3.1511,-3.1511,-3.1511,-3.1615,-3.2093,-3.1854,-3.163,-3.2108,-3.1854,-3.1511,-3.1511,-3.1511,-3.1511,-3.1511,-3.1511,-3.1645,-3.2123,-3.2647,-3.2856,-3.2557,-3.2766,-3.2617,-3.163,-3.1914,-3.2108,-3.1809,-3.2198,-3.2392,-3.2064,-3.1869,-3.1705,-3.1511,-3.1511,-3.1511,-3.1511,-3.1511,-3.1511,-3.1511,-3.0417,-2.9786,-2.9606,-2.8438,-2.7779,-2.76,-2.76,-2.76,0.0,0.0,0.0,-2.2296,0.0,0.0,0.0,0.0,-2.2296,0.0,0.0,0.0,0.0,0.0,0.0,0.0,0.0,0.0,0.0,0.0,0.0,0.0,0.0,0.0,0.0,0.0,0.0,-1.8672,-1.8087,-1.8012,-1.8672,-1.8732,-1.9031,-1.9678,-2.0333,-2.0378,-1.9768,-2.1036,-2.1724,-2.1769,-2.2418,-2.3032,-2.3595,-2.3595,-2.3595,-2.3595,-2.3595,-2.361,-2.3684,-2.4335,-2.5008,-2.5704,-2.6348,-2.7016,-2.76,-2.76,-2.76,-2.76,-2.76,-2.8453,-2.9651,-3.0268,-3.0956,-3.1511,-3.1511,-3.1511,-3.1511,-3.1511,-3.1511,-3.1511,-3.1525,-3.1525,-3.1511,-3.1525,-3.1525,-3.1511,-3.1511,-3.1511,-3.1511,-3.1511,-3.1511,-3.1511,-3.1525,-3.1555,-3.178,-3.2422,-3.1959,-3.1555,-3.1511,-3.1525,-3.1765,-3.2392,-3.2497,-3.2766,-3.338,-3.2841,-3.2183,-3.154,-3.1511,-3.1511,-3.1511,-3.1511,-3.1511,-3.1511,-3.0808,-3.0178,-2.9606,-2.8906,-2.8218,-2.76,-2.76,-2.76,0.0,0.0,-2.2296,-2.2296,0.0,0.0,0.0,0.0,0.0,0.0,0.0,0.0,0.0,0.0,0.0,0.0,0.0,0.0,0.0,0.0,0.0,0.0,0.0,0.0,0.0,0.0,0.0,-1.7413,-1.7594,-1.7803,-1.8027,-1.8882,-1.9256,-1.9046,-1.969,-2.0139,-2.0363,-2.0812,-2.1485,-2.2358,-2.2583,-2.3017,-2.3595,-2.3197,-2.3227,-2.358,-2.3182,-2.3242,-2.3625,-2.3849,-2.4575,-2.563,-2.5854,-2.6617,-2.76,-2.76,-2.76,-2.76,-2.76,-2.8199,-2.9041,-2.9684,-3.0328,-3.0913,-3.1376,-3.1511,-3.1511,-3.1511,-3.1511,-3.1511,-3.1511,-3.1511,-3.1511,-3.1511,-3.1511,-3.1511,-3.1511,-3.1511,-3.1511,-3.1511,-3.1511,-3.1645,-3.2079,-3.1795,-3.1585,-3.1795,-3.2019,-3.1989,-3.157,-3.1511,-3.1585,-3.1809,-3.1839,-3.1929,-3.2153,-3.1959,-3.1735,-3.1511,-3.1511,-3.1511,-3.1511,-3.1511,-3.1286,-3.0866,-3.0223,-2.9579,-2.8936,-2.8274,-2.7824,-2.76,-2.76,-2.76,-2.2296,-2.2296,0.0,-2.2296,-2.2296,0.0,-2.2296,0.0,0.0,0.0,0.0,0.0,0.0,0.0,0.0,0.0,0.0,0.0,0.0,-1.9982,0.0,0.0,0.0,0.0,0.0,0.0,-1.78,-1.7429,-1.7369,-1.7548,0.0,0.0,-1.9273,-1.9061,-1.9465,-1.9899,-2.0348,-2.0348,-2.0902,-2.1999,-2.1999,-2.2428,-2.3272,-2.2882,-2.3032,-2.358,-2.3197,-2.337,-2.3969,-2.3969,-2.4762,-2.5959,-2.5959,-2.6641,-2.76,-2.76,-2.76,-2.76,-2.76,-2.8199,-2.8981,-2.9175,-2.9804,-3.0582,-3.1002,-3.1137,-3.1137,-3.1137,-3.1137,-3.1092,-3.0896,-3.0972,-3.1077,-3.0896,-3.1167,-3.1436,-3.1197,-3.1331,-3.1511,-3.1511,-3.1511,-3.1645,-3.2064,-3.1795,-3.1585,-3.1824,-3.2019,-3.1989,-3.1555,-3.1511,-3.1511,-3.1511,-3.1511,-3.1511,-3.1511,-3.1511,-3.1511,-3.1511,-3.1511,-3.1511,-3.1511,-3.1511,-3.1406,-3.1225,-3.0357,-2.9699,-2.928,-2.8382,-2.7839,-2.76,-2.76,-2.76]},{"header":{"parameterUnit":"m.s-1","parameterCategory":1,"la1":30.6,"la2":29.2853,"lo1":-89.7004,"lo2":-87.6739,"dy":0.0162,"dx":0.0183,"nx":112,"ny":82,"refTime":"2023-08-04T06:00:00:Z","depth":0,"parameterNumber":3,"parameterNumberName":"V-component_of_WINDS"},"data":[0.0,0.0,0.0,0.0,0.0,0.0,0.0,0.0,0.0,0.0,0.0,0.0,0.0,0.0,0.0,0.0,0.0,0.0,0.0,0.0,0.0,0.0,0.0,0.0,0.0,0.0,0.0,0.0,0.0,0.0,0.0,0.0,0.0,0.0,0.0,0.0,0.0,0.0,0.0,0.0,0.0,0.0,0.0,0.0,0.0,0.0,0.0,0.0,0.0,0.0,0.0,0.0,0.0,0.0,0.0,0.0,0.0,0.0,0.0,0.0,0.0,0.0,0.0,0.0,0.0,0.0,0.0,0.0,0.0,0.0,0.0,0.0,0.0,0.0,0.0,0.0,0.0,0.0,0.0,0.0,0.0,0.0,0.0,0.0,0.0,0.0,0.0,0.0,0.0,0.0,0.0,-2.0658,-2.3608,-2.5764,-2.6527,-2.7545,-2.6841,-2.3789,0.0,0.0,0.0,0.0,0.0,0.0,0.0,0.0,0.0,0.0,0.0,0.0,0.0,0.0,0.0,0.0,0.0,0.0,0.0,0.0,0.0,0.0,0.0,0.0,0.0,0.0,0.0,0.0,0.0,0.0,0.0,0.0,0.0,0.0,0.0,0.0,0.0,0.0,0.0,0.0,0.0,0.0,0.0,0.0,0.0,0.0,0.0,0.0,0.0,0.0,0.0,0.0,0.0,0.0,0.0,0.0,0.0,0.0,0.0,0.0,0.0,0.0,0.0,0.0,0.0,0.0,0.0,0.0,0.0,0.0,0.0,0.0,0.0,0.0,0.0,0.0,0.0,0.0,0.0,0.0,0.0,0.0,0.0,0.0,0.0,0.0,0.0,0.0,0.0,0.0,0.0,0.0,0.0,0.0,0.0,0.0,0.0,0.0,0.0,0.0,0.0,0.0,0.0,0.0,-2.013,-2.1406,-2.3479,-2.5247,-2.6482,-2.6273,-2.536,-2.3699,0.0,0.0,0.0,0.0,0.0,0.0,0.0,0.0,0.0,0.0,0.0,0.0,0.0,0.0,0.0,0.0,0.0,0.0,0.0,0.0,0.0,0.0,0.0,0.0,0.0,0.0,0.0,0.0,0.0,0.0,0.0,0.0,0.0,0.0,0.0,0.0,0.0,0.0,0.0,0.0,0.0,0.0,0.0,0.0,0.0,0.0,0.0,0.0,0.0,0.0,0.0,0.0,0.0,0.0,0.0,0.0,0.0,0.0,0.0,0.0,0.0,0.0,0.0,0.0,0.0,0.0,0.0,0.0,0.0,0.0,0.0,0.0,0.0,0.0,0.0,0.0,0.0,0.0,0.0,0.0,0.0,0.0,0.0,0.0,0.0,0.0,0.0,0.0,0.0,0.0,0.0,0.0,0.0,0.0,0.0,0.0,0.0,0.0,0.0,0.0,0.0,0.0,0.0,-1.9698,-2.0061,-2.1529,-2.3116,-2.444,-2.5435,-2.5232,-2.4507,-2.3176,-2.3056,0.0,0.0,0.0,0.0,0.0,0.0,0.0,0.0,0.0,0.0,0.0,0.0,0.0,0.0,0.0,0.0,0.0,0.0,0.0,0.0,0.0,0.0,0.0,0.0,0.0,0.0,0.0,0.0,0.0,0.0,0.0,0.0,0.0,0.0,0.0,0.0,0.0,0.0,0.0,0.0,0.0,0.0,0.0,0.0,0.0,0.0,0.0,0.0,0.0,0.0,0.0,0.0,0.0,0.0,0.0,0.0,0.0,0.0,0.0,0.0,0.0,0.0,0.0,0.0,0.0,0.0,0.0,0.0,0.0,0.0,0.0,0.0,0.0,0.0,0.0,0.0,0.0,0.0,0.0,0.0,0.0,0.0,0.0,0.0,0.0,0.0,0.0,0.0,0.0,0.0,0.0,0.0,0.0,0.0,0.0,0.0,0.0,0.0,0.0,0.0,0.0,0.0,-1.9248,-1.9372,-2.127,-2.2622,-2.3655,-2.4306,-2.4365,-2.3894,-2.2763,-2.1919,0.0,0.0,0.0,0.0,0.0,0.0,0.0,0.0,0.0,0.0,0.0,0.0,0.0,0.0,0.0,0.0,0.0,0.0,0.0,0.0,0.0,0.0,0.0,0.0,0.0,0.0,0.0,0.0,0.0,0.0,0.0,0.0,0.0,0.0,0.0,0.0,0.0,0.0,0.0,0.0,0.0,0.0,0.0,0.0,0.0,0.0,0.0,0.0,0.0,0.0,0.0,0.0,0.0,0.0,0.0,0.0,0.0,0.0,0.0,0.0,0.0,0.0,0.0,0.0,0.0,0.0,0.0,0.0,0.0,0.0,0.0,0.0,0.0,0.0,0.0,0.0,0.0,0.0,0.0,0.0,0.0,0.0,0.0,0.0,0.0,0.0,0.0,0.0,0.0,0.0,0.0,0.0,0.0,0.0,0.0,0.0,0.0,0.0,0.0,0.0,0.0,0.0,-1.8764,-1.8156,-2.0516,-2.1964,-2.3017,-2.3625,-2.367,-2.3385,-2.2748,-2.1485,0.0,0.0,0.0,0.0,0.0,0.0,0.0,0.0,0.0,0.0,0.0,0.0,0.0,0.0,0.0,0.0,0.0,0.0,0.0,0.0,0.0,0.0,0.0,0.0,0.0,0.0,0.0,0.0,0.0,0.0,0.0,0.0,0.0,0.0,0.0,0.0,0.0,0.0,0.0,0.0,0.0,0.0,0.0,0.0,0.0,0.0,0.0,0.0,0.0,0.0,0.0,0.0,0.0,0.0,0.0,0.0,0.0,0.0,0.0,0.0,0.0,0.0,0.0,0.0,0.0,0.0,0.0,0.0,0.0,0.0,0.0,0.0,0.0,0.0,0.0,0.0,0.0,0.0,0.0,0.0,0.0,0.0,0.0,0.0,0.0,0.0,0.0,0.0,0.0,0.0,0.0,0.0,0.0,0.0,0.0,0.0,0.0,0.0,0.0,0.0,0.0,0.0,-1.9291,-1.8776,0.0,-2.153,-2.2343,-2.2987,-2.3047,-2.2763,-2.2134,0.0,0.0,0.0,0.0,0.0,0.0,0.0,0.0,0.0,0.0,0.0,0.0,0.0,0.0,0.0,0.0,0.0,0.0,0.0,0.0,0.0,0.0,0.0,0.0,0.0,0.0,0.0,0.0,0.0,0.0,0.0,0.0,0.0,0.0,0.0,0.0,0.0,0.0,0.0,0.0,0.0,0.0,0.0,0.0,0.0,0.0,0.0,0.0,0.0,0.0,0.0,0.0,0.0,0.0,0.0,0.0,0.0,0.0,0.0,0.0,0.0,0.0,0.0,0.0,0.0,0.0,0.0,0.0,0.0,0.0,0.0,0.0,0.0,0.0,0.0,0.0,0.0,0.0,0.0,0.0,0.0,0.0,0.0,0.0,0.0,0.0,0.0,0.0,0.0,0.0,0.0,0.0,0.0,0.0,0.0,0.0,0.0,0.0,0.0,0.0,0.0,0.0,-2.0895,-1.9472,-1.8912,0.0,-2.0976,-2.156,-2.2044,-2.2074,-2.1859,-2.141,0.0,0.0,0.0,0.0,0.0,0.0,0.0,0.0,0.0,0.0,0.0,0.0,0.0,0.0,0.0,0.0,0.0,0.0,0.0,0.0,0.0,0.0,0.0,0.0,0.0,0.0,0.0,0.0,0.0,0.0,0.0,0.0,0.0,0.0,0.0,0.0,0.0,0.0,0.0,0.0,0.0,0.0,0.0,0.0,0.0,0.0,0.0,0.0,0.0,0.0,0.0,0.0,0.0,0.0,0.0,0.0,0.0,0.0,0.0,0.0,0.0,0.0,0.0,0.0,0.0,0.0,0.0,0.0,0.0,0.0,0.0,0.0,0.0,0.0,0.0,0.0,0.0,0.0,0.0,0.0,0.0,0.0,0.0,0.0,0.0,0.0,0.0,0.0,0.0,0.0,0.0,0.0,0.0,0.0,0.0,0.0,0.0,0.0,0.0,0.0,0.0,0.0,-2.0831,-1.9071,-1.8207,-1.9573,-2.0303,-2.0703,-2.0703,-2.0703,-2.0703,0.0,0.0,0.0,0.0,0.0,0.0,0.0,0.0,0.0,0.0,0.0,0.0,0.0,0.0,0.0,0.0,0.0,0.0,0.0,0.0,0.0,0.0,0.0,0.0,0.0,0.0,0.0,0.0,0.0,0.0,0.0,0.0,0.0,0.0,0.0,0.0,0.0,0.0,0.0,0.0,0.0,0.0,0.0,0.0,0.0,0.0,0.0,0.0,0.0,0.0,0.0,0.0,0.0,0.0,0.0,0.0,0.0,0.0,0.0,0.0,0.0,0.0,0.0,0.0,0.0,0.0,0.0,0.0,0.0,0.0,0.0,0.0,0.0,0.0,0.0,0.0,0.0,0.0,0.0,0.0,0.0,0.0,0.0,0.0,0.0,0.0,0.0,0.0,0.0,0.0,0.0,0.0,0.0,0.0,0.0,0.0,0.0,0.0,0.0,0.0,0.0,0.0,0.0,-2.0895,-1.9071,-1.8207,-1.9573,-2.0303,-2.0703,-2.0703,-2.0703,-2.0703,-2.0703,0.0,0.0,0.0,0.0,0.0,0.0,0.0,0.0,0.0,0.0,0.0,0.0,0.0,0.0,0.0,0.0,0.0,0.0,0.0,0.0,0.0,0.0,0.0,0.0,0.0,0.0,0.0,0.0,0.0,0.0,0.0,0.0,0.0,0.0,0.0,0.0,0.0,0.0,0.0,0.0,0.0,0.0,0.0,0.0,0.0,0.0,0.0,0.0,0.0,0.0,0.0,0.0,0.0,0.0,0.0,0.0,0.0,0.0,0.0,0.0,0.0,0.0,0.0,0.0,0.0,0.0,0.0,0.0,0.0,0.0,0.0,0.0,0.0,0.0,0.0,0.0,0.0,0.0,0.0,0.0,0.0,0.0,0.0,0.0,0.0,0.0,0.0,0.0,0.0,0.0,0.0,0.0,0.0,0.0,0.0,0.0,0.0,0.0,0.0,0.0,0.0,0.0,-2.0669,-1.8942,-1.8207,-1.9573,-2.0049,-2.0303,-2.0303,-2.0303,-2.0303,-2.0303,0.0,0.0,0.0,0.0,0.0,0.0,0.0,0.0,0.0,0.0,0.0,0.0,0.0,0.0,0.0,0.0,0.0,0.0,0.0,0.0,0.0,0.0,0.0,0.0,0.0,0.0,0.0,0.0,0.0,0.0,0.0,0.0,0.0,0.0,0.0,0.0,0.0,0.0,0.0,0.0,0.0,0.0,0.0,0.0,0.0,0.0,0.0,0.0,0.0,0.0,0.0,0.0,0.0,0.0,0.0,0.0,0.0,0.0,0.0,0.0,0.0,0.0,0.0,0.0,0.0,0.0,0.0,0.0,0.0,0.0,0.0,0.0,0.0,0.0,0.0,0.0,0.0,0.0,0.0,0.0,0.0,0.0,0.0,0.0,0.0,0.0,0.0,0.0,0.0,0.0,0.0,0.0,0.0,0.0,0.0,0.0,0.0,0.0,0.0,0.0,0.0,0.0,-2.0381,-1.8884,-1.8311,-1.9663,-1.9738,-1.9738,-1.9798,-1.9738,-1.9708,-1.9708,0.0,0.0,0.0,0.0,0.0,0.0,0.0,0.0,0.0,0.0,0.0,0.0,0.0,0.0,0.0,0.0,0.0,0.0,0.0,0.0,0.0,0.0,0.0,0.0,0.0,0.0,0.0,0.0,0.0,0.0,0.0,0.0,0.0,0.0,0.0,0.0,0.0,0.0,0.0,0.0,0.0,0.0,0.0,0.0,0.0,0.0,0.0,0.0,0.0,0.0,0.0,0.0,0.0,0.0,0.0,0.0,0.0,0.0,0.0,0.0,-2.7912,0.0,0.0,0.0,0.0,0.0,0.0,0.0,0.0,0.0,0.0,0.0,0.0,0.0,0.0,0.0,0.0,0.0,0.0,0.0,0.0,0.0,0.0,0.0,0.0,0.0,0.0,0.0,0.0,0.0,0.0,0.0,0.0,0.0,0.0,0.0,0.0,0.0,0.0,0.0,0.0,0.0,-2.1142,-1.9567,-1.9001,-2.0329,-2.0004,-1.9899,-2.0453,-1.9989,-1.9708,-1.9708,-1.9708,0.0,0.0,0.0,0.0,0.0,0.0,0.0,0.0,0.0,0.0,0.0,0.0,0.0,0.0,0.0,0.0,0.0,0.0,0.0,0.0,0.0,0.0,0.0,0.0,0.0,0.0,0.0,0.0,0.0,0.0,0.0,0.0,0.0,0.0,0.0,0.0,0.0,0.0,0.0,0.0,0.0,0.0,0.0,0.0,0.0,0.0,0.0,0.0,0.0,0.0,0.0,0.0,0.0,0.0,0.0,0.0,0.0,0.0,0.0,0.0,-2.8882,0.0,0.0,0.0,0.0,0.0,0.0,0.0,0.0,0.0,0.0,0.0,0.0,0.0,0.0,0.0,0.0,0.0,0.0,0.0,0.0,0.0,0.0,0.0,0.0,0.0,0.0,0.0,0.0,0.0,0.0,0.0,0.0,0.0,0.0,0.0,0.0,0.0,0.0,0.0,0.0,-2.1522,-2.0138,-1.969,-2.1036,-2.0587,-2.0318,-2.0658,-2.0094,-1.9708,-1.9708,-1.9708,0.0,0.0,0.0,0.0,0.0,0.0,0.0,0.0,0.0,0.0,0.0,0.0,0.0,0.0,0.0,0.0,0.0,0.0,0.0,0.0,0.0,0.0,0.0,0.0,0.0,0.0,0.0,0.0,0.0,0.0,0.0,0.0,0.0,0.0,0.0,0.0,0.0,0.0,0.0,0.0,0.0,0.0,0.0,0.0,0.0,0.0,0.0,0.0,0.0,0.0,0.0,0.0,0.0,-3.5994,-3.6728,-3.7533,-3.7097,-3.647,-3.5609,-3.3732,-3.1999,-3.0451,-2.9226,0.0,0.0,0.0,0.0,0.0,0.0,0.0,0.0,0.0,0.0,0.0,0.0,0.0,0.0,0.0,0.0,0.0,0.0,0.0,0.0,0.0,0.0,0.0,0.0,-2.5884,-2.6044,0.0,0.0,0.0,0.0,0.0,0.0,0.0,0.0,0.0,0.0,0.0,0.0,-2.1699,-2.0617,-2.0333,-2.156,-2.1111,-2.0703,-2.0703,-2.0094,-1.9708,-1.9708,-1.9708,-1.9708,0.0,0.0,0.0,0.0,0.0,0.0,0.0,0.0,0.0,0.0,0.0,0.0,0.0,0.0,0.0,0.0,0.0,0.0,0.0,0.0,0.0,0.0,0.0,0.0,0.0,0.0,0.0,0.0,0.0,0.0,0.0,0.0,-2.6069,-2.6885,0.0,0.0,0.0,0.0,0.0,0.0,0.0,0.0,0.0,0.0,0.0,0.0,0.0,-3.557,-3.6909,-3.9097,-3.9901,-3.9402,-4.2025,-4.2337,-4.0654,-4.1654,-4.1712,-4.0918,-3.9266,0.0,-3.1047,-3.0341,0.0,0.0,0.0,0.0,0.0,0.0,0.0,0.0,0.0,0.0,0.0,0.0,0.0,0.0,0.0,0.0,0.0,0.0,0.0,0.0,0.0,0.0,-2.7657,-2.6582,-2.6926,-2.719,0.0,-2.5824,-2.5206,-2.3682,-2.3672,0.0,0.0,0.0,0.0,0.0,0.0,0.0,-2.1759,-2.1036,-2.0872,-2.162,-2.1111,-2.0703,-2.0703,-2.0094,-1.9708,-1.9708,-1.9708,-1.9708,-1.9708,-1.9708,0.0,0.0,0.0,0.0,0.0,0.0,0.0,0.0,0.0,0.0,0.0,0.0,0.0,0.0,0.0,0.0,0.0,0.0,0.0,0.0,0.0,0.0,0.0,0.0,0.0,0.0,0.0,0.0,0.0,-2.7363,-2.7684,-2.6751,-2.7913,-2.8524,0.0,0.0,0.0,0.0,0.0,0.0,0.0,0.0,0.0,-3.5062,-3.7458,-3.9073,-3.9749,-4.1982,-4.3149,-4.325,-4.4587,-4.4646,-4.3569,-4.4139,-4.3652,-4.2355,-4.1644,-3.925,-3.5661,-3.3532,-3.2529,-3.2253,0.0,0.0,0.0,0.0,-3.1222,-3.072,-3.1716,-3.165,0.0,-3.1025,0.0,0.0,0.0,0.0,0.0,0.0,0.0,0.0,0.0,0.0,-2.9868,-2.8595,-2.9367,-3.0058,-2.9011,-2.8293,-2.723,0.0,-2.5281,-2.5401,-2.4277,0.0,0.0,0.0,0.0,-2.2061,-2.2229,-2.2014,-2.1934,-2.2239,-2.1665,-2.1111,-2.0733,-2.0094,-1.9708,-1.9708,-1.9708,-1.9708,-1.9708,-1.9708,-1.9708,0.0,0.0,0.0,0.0,0.0,0.0,0.0,0.0,0.0,0.0,0.0,0.0,0.0,0.0,0.0,0.0,0.0,0.0,0.0,0.0,0.0,0.0,0.0,0.0,0.0,0.0,0.0,0.0,-2.8737,-2.893,-2.6868,-2.8829,-2.9847,0.0,0.0,0.0,0.0,0.0,0.0,-3.4438,-3.6315,-3.7686,-3.8447,-4.1373,-4.2929,-4.2929,-4.4959,-4.6177,-4.6549,-4.6309,-4.6121,-4.5959,-4.5489,-4.45,-4.3205,-4.2781,-4.1693,-3.9918,-3.6596,-3.5137,-3.4898,-3.4105,-3.3467,-3.3129,-3.4114,-3.3754,-3.2922,-3.4044,-3.391,-3.3155,-3.2662,0.0,-3.1301,-2.8846,0.0,0.0,0.0,0.0,-2.9661,-2.8828,-3.0058,-3.1346,-3.0731,-3.145,-3.2004,-3.1195,-3.0522,-2.9295,0.0,-2.6632,-2.6602,-2.5113,0.0,0.0,0.0,0.0,-2.2293,-2.2658,-2.2703,-2.2628,-2.2463,-2.1994,-2.1365,-2.0528,-1.9989,-1.9708,-1.9708,-1.9708,-1.9708,-1.9708,-1.9708,-1.9708,-1.9708,0.0,0.0,0.0,0.0,0.0,0.0,0.0,0.0,0.0,0.0,0.0,0.0,0.0,0.0,0.0,0.0,0.0,0.0,0.0,0.0,0.0,0.0,0.0,0.0,0.0,0.0,0.0,0.0,0.0,-2.7906,-3.129,0.0,0.0,0.0,0.0,-3.4766,-3.5825,-3.6801,-3.7635,-4.0392,-4.2303,-4.3037,-4.5978,-4.7551,-4.7551,-4.9069,-4.9492,-4.8832,-4.793,-4.7523,-4.7441,-4.5647,-4.4778,-4.4598,-4.3092,-4.2344,-4.1991,-3.8631,-3.6889,-3.6184,-3.4858,-3.4332,-3.4301,-3.439,-3.3995,-3.3562,-3.4266,-3.3635,-3.2856,-3.4711,-3.4023,-3.2437,-3.2258,-3.1315,0.0,0.0,-3.04,-3.1375,-3.1316,-3.1406,-3.1795,-3.3021,-3.2422,-3.1705,-3.2273,-3.1869,-3.0614,0.0,-2.6512,-2.5674,-2.557,0.0,-2.4291,-2.3655,-2.3535,-2.331,-2.2763,-2.2703,-2.2463,-2.1814,-2.1724,-2.1156,-1.9872,-1.9723,-1.9708,-1.9708,-1.9708,-1.9708,-1.9708,-1.9708,-1.9708,-1.9708,-1.9708,0.0,0.0,0.0,0.0,0.0,0.0,0.0,0.0,0.0,0.0,0.0,0.0,0.0,0.0,0.0,0.0,0.0,0.0,0.0,0.0,0.0,0.0,0.0,0.0,0.0,0.0,0.0,0.0,-3.1724,-3.3967,0.0,-3.5057,-3.4482,-3.5281,-3.8101,-3.8137,-3.947,-4.275,-4.4823,-4.6464,-4.7665,-4.9238,-4.9813,-4.9323,-4.983,-4.9443,-4.808,-4.777,-4.6968,-4.5794,-4.5132,-4.445,-4.3795,-4.3232,-4.2506,-4.1677,-4.0457,-3.9328,-3.8266,-3.7427,-3.7094,-3.7094,-3.7094,-3.6968,-3.6699,-3.6014,-3.5459,-3.504,-3.4891,-3.3784,-3.2512,-3.2512,-3.2183,-3.1749,-3.1524,-3.2407,-3.3335,-3.2901,-3.344,-3.3993,-3.3589,-3.314,-3.2736,-3.2557,-3.1974,-3.1227,-3.0285,-2.9056,-2.7889,-2.7046,-2.5974,-2.5008,-2.4335,-2.3879,-2.352,-2.3295,-2.2942,-2.2448,-2.1769,-2.1321,-2.0692,-1.9783,-1.9708,-1.9708,-1.9708,-1.9708,-1.9708,-1.9708,-1.9708,-1.9708,-1.9708,-1.9708,-1.9708,0.0,0.0,0.0,0.0,0.0,0.0,0.0,0.0,0.0,0.0,0.0,0.0,0.0,0.0,0.0,0.0,0.0,0.0,0.0,0.0,0.0,0.0,0.0,0.0,0.0,0.0,-3.4043,-3.501,-3.7177,-3.8567,-3.8514,-3.7631,-3.8365,-4.1456,-4.1683,-4.3132,-4.6508,-4.8158,-4.9475,-5.0439,-5.12,-5.1099,-5.0101,-5.0016,-4.9176,-4.7589,-4.6968,-4.5992,-4.4774,-4.445,-4.3927,-4.329,-4.329,-4.2836,-4.1998,-4.1564,-4.0876,-3.9984,-3.918,-3.887,-3.887,-3.887,-3.8718,-3.833,-3.6962,-3.6492,-3.6312,-3.519,-3.4233,-3.3514,-3.3514,-3.3514,-3.3514,-3.3514,-3.4158,-3.4726,-3.4292,-3.4666,-3.4996,-3.4322,-3.3829,-3.338,-3.2946,-3.2303,-3.1765,-3.154,-3.0657,-2.9577,-2.8468,-2.7335,-2.6393,-2.5719,-2.5046,-2.4522,-2.4298,-2.3729,-2.2921,-2.1814,-2.1306,-2.0677,-1.9783,-1.9899,-1.9929,-1.9708,-1.9899,-1.9947,-1.9708,-1.9708,-1.9708,-1.9708,-1.9708,-1.9708,-1.9708,0.0,0.0,0.0,0.0,0.0,0.0,0.0,0.0,0.0,0.0,0.0,0.0,0.0,0.0,0.0,0.0,0.0,0.0,0.0,0.0,0.0,0.0,0.0,-3.0411,-3.4985,-3.815,-3.7548,-4.0802,-4.2813,-4.207,-4.2446,-4.3373,-4.4789,-4.6541,-4.785,-4.8625,-5.0275,-5.1186,-5.122,-5.1896,-5.1558,-5.0103,-4.9892,-4.9021,-4.7522,-4.5717,-4.4805,-4.4768,-4.3747,-4.329,-4.329,-4.329,-4.329,-4.3155,-4.1908,-4.1407,-4.122,-3.9933,-3.9388,-3.9388,-3.9388,-3.8975,-3.8182,-3.6956,-3.6492,-3.6357,-3.5714,-3.5504,-3.5504,-3.5504,-3.5504,-3.5504,-3.5504,-3.5504,-3.5504,-3.5504,-3.5011,-3.4681,-3.5355,-3.4487,-3.3529,-3.3499,-3.2976,-3.2288,-3.163,-3.0972,-3.0342,-2.9714,-2.9071,-2.8397,-2.7735,-2.7031,0.0,-2.5689,-2.4978,-2.3827,-2.1964,-2.1739,-2.1186,-1.9872,-2.0363,-2.0438,-1.9753,-2.0318,-2.0378,-1.9738,-1.9708,-1.9708,-1.9708,-1.9708,-1.9708,-1.9708,0.0,0.0,0.0,0.0,0.0,0.0,0.0,0.0,0.0,0.0,0.0,0.0,0.0,0.0,0.0,0.0,0.0,0.0,0.0,0.0,0.0,0.0,-3.4763,-3.5241,-3.676,-3.8731,-4.12,-4.2313,-4.325,-4.4118,-4.4122,-4.5076,-4.7443,-4.7896,-4.8716,-5.0122,-5.0631,-5.1151,-5.1682,-5.1221,-5.0579,-4.9892,-4.9577,-4.837,-4.6213,-4.5706,-4.5102,-4.4403,-4.3658,-4.329,-4.329,-4.329,-4.306,-4.2566,-4.1728,-4.11,-4.0591,-3.9753,-3.9388,-3.9388,-3.9388,-3.8676,-3.7629,-3.727,-3.6552,-3.5744,-3.5564,-3.5504,-3.5504,-3.5504,-3.5504,-3.5504,-3.5504,-3.5504,-3.5504,-3.5504,-3.537,-3.5265,-3.5459,-3.4846,-3.4099,-3.3589,-3.2976,-3.2288,-3.163,-3.1346,-3.1017,-3.0357,-2.9729,-2.9112,-2.8427,-2.6931,0.0,-2.563,-2.4208,-2.3176,-2.3086,-2.2703,-2.2089,-2.1216,-2.1321,-2.0932,-1.9768,-1.9869,-1.9902,-1.9708,-1.9708,-1.9708,-1.9708,-1.9708,-1.9708,0.0,0.0,0.0,0.0,0.0,0.0,0.0,0.0,0.0,0.0,0.0,0.0,0.0,0.0,0.0,0.0,0.0,0.0,0.0,0.0,0.0,0.0,-3.5809,-3.8202,-3.9441,-3.971,-4.079,-4.3508,-4.3954,-4.4492,-4.5667,-4.5495,-4.6097,-4.7985,-4.8374,-4.8907,-4.993,-5.0119,-5.0605,-5.1408,-5.0223,-4.9491,-4.9353,-4.8652,-4.7408,-4.5696,-4.5285,-4.4819,-4.4287,-4.3589,-4.329,0.0,-4.3045,-4.2701,-4.2336,-4.1354,-4.0741,0.0,0.0,0.0,0.0,0.0,-3.8931,-3.8167,-3.7599,-3.6926,-3.6222,-3.5684,-3.5504,-3.5504,-3.5504,-3.5504,-3.5504,-3.5504,-3.5504,-3.5504,-3.5504,-3.5504,-3.5504,-3.5504,-3.519,-3.4651,-3.3709,-3.32,-3.2647,-3.169,-3.1511,0.0,-3.0627,-2.9998,-2.9355,-2.8697,-2.7126,-2.6019,-2.6019,-2.4537,-2.343,-2.3236,-2.2658,-2.1994,-2.1335,-2.1276,0.0,0.0,0.0,-1.9989,-1.9708,-1.9708,0.0,0.0,0.0,-1.9708,-1.9708,0.0,0.0,0.0,-1.9708,-1.9708,0.0,0.0,0.0,0.0,0.0,0.0,0.0,0.0,0.0,0.0,0.0,0.0,0.0,0.0,0.0,0.0,-3.9152,-4.1151,-4.2983,-4.3097,-4.3474,-4.4814,-4.5375,-4.5896,-4.6498,-4.6414,-4.6574,-4.7197,-4.8201,-4.8753,-4.8676,0.0,0.0,0.0,0.0,-4.8152,-4.8369,-4.7281,-4.6314,-4.5542,-4.4714,-4.4317,-4.4287,-4.3589,-4.329,-4.326,-4.2716,-4.247,-4.2306,-4.1025,-4.0427,-4.0232,-3.9649,-3.9388,-3.9388,-3.9388,-3.9328,-3.9125,-3.7943,0.0,0.0,-3.5983,-3.5564,-3.5504,-3.5504,-3.5504,-3.5504,-3.5504,-3.5504,-3.5504,-3.5504,-3.5504,-3.5504,-3.5504,-3.5504,-3.513,-3.3784,-3.3499,-3.3095,-3.1765,-3.1511,-3.1286,-3.0627,-2.9998,-2.9355,-2.8697,-2.7455,-2.6557,-2.6497,-2.5367,-2.4156,-2.3032,0.0,0.0,-2.1077,-2.0957,-2.0617,-1.9872,-2.0303,-2.0318,-1.9723,-1.9708,-1.9708,-1.9708,-1.9708,-1.9708,-1.9708,-1.9708,-1.9708,-1.9708,-1.9708,-1.9708,0.0,0.0,0.0,0.0,0.0,0.0,0.0,0.0,0.0,0.0,0.0,0.0,0.0,0.0,0.0,-3.9459,-4.0607,-4.2303,-4.5415,-4.4779,-4.4395,-4.5415,-4.544,-4.5413,-4.5533,-4.6029,-4.649,-4.6942,-4.81,-4.8537,-4.8035,-4.8064,-4.8184,-4.8381,-4.677,-4.6054,-4.6416,-4.5911,-4.5273,-4.4569,0.0,0.0,-4.4287,-4.3589,-4.329,-4.329,-4.317,-4.2851,-4.2336,-4.1557,-4.0561,-3.9589,-3.9433,-3.9388,-3.9388,-3.9388,-3.9065,-3.8556,-3.8287,-3.7524,-3.6626,-3.6372,-3.5938,-3.5504,-3.5504,-3.5504,0.0,-3.5504,-3.5504,-3.5504,-3.5504,-3.5504,-3.5504,-3.5504,-3.5504,-3.513,-3.3784,-3.3499,-3.3095,-3.1765,-3.1511,-3.1286,-3.0627,-2.9998,-2.9355,-2.8697,-2.7455,-2.6393,-2.5869,-2.5083,-2.4515,-2.4261,-2.4111,-2.3767,-2.3101,-2.2577,-2.1804,-2.0569,-2.0124,-1.9842,-1.9708,-1.9708,-1.9708,-1.9708,-1.9708,-1.9708,-1.9708,-1.9708,-1.9708,-1.9708,-1.9708,-1.9708,0.0,0.0,0.0,0.0,0.0,0.0,0.0,0.0,0.0,0.0,0.0,-3.673,0.0,0.0,-4.0821,-4.2257,-4.3077,-4.4058,-4.5732,-4.5277,-4.512,-4.591,-4.5864,-4.5813,-4.5813,-4.6426,-4.7087,-4.7809,-4.7952,-4.8099,-4.8289,-4.717,-4.6762,-4.7212,-4.5349,-4.4643,-4.5346,-4.4961,-4.4646,-4.4317,-4.4317,-4.4317,-4.4287,-4.3589,-4.329,-4.3275,-4.2985,-4.2476,-4.1826,-4.0801,-4.0008,-3.9388,-3.9388,-3.9388,-3.9388,-3.9388,-3.92,-3.8856,-3.8512,-3.7749,-3.6896,-3.6596,-3.6043,-3.5504,-3.5504,-3.5504,-3.5504,-3.5504,-3.5504,-3.5504,-3.5504,-3.5504,-3.5504,-3.5504,-3.5504,-3.513,-3.3784,-3.3499,-3.3095,-3.1765,-3.1511,-3.1286,-3.0627,-2.9998,-2.9355,-2.8697,-2.7455,-2.6363,-2.5689,-2.5008,-2.447,-2.4126,-2.3834,-2.3505,-2.3176,-2.2248,-2.141,-2.0733,-2.0064,-1.9708,-1.9708,-1.9708,-1.9708,-1.9708,-1.9708,-1.9708,-1.9708,-1.9708,-1.9708,-1.9708,-1.9708,-1.9708,0.0,0.0,0.0,0.0,0.0,0.0,0.0,0.0,-3.5333,-3.7095,-3.8605,-3.9943,-4.11,-4.2697,-4.4011,-4.4573,-4.5025,-4.537,-4.5503,-4.5274,-4.5409,-4.619,-4.6217,-4.6232,-4.6486,-4.6875,-4.7455,-4.8245,-4.7689,-4.7591,-4.8301,-4.6403,-4.5671,-4.6401,-4.4373,-4.3708,-4.451,-4.4237,-4.4122,-4.4122,-4.4122,-4.4122,-4.4107,-4.3544,-4.329,-4.326,-4.2641,-4.2036,-4.1332,-4.0098,-3.9529,-3.9388,-3.9388,-3.9388,-3.9388,-3.9388,-3.9298,-3.914,-3.8586,-3.7883,-3.715,-3.6656,-3.6043,-3.5504,-3.5504,-3.5504,-3.5504,-3.5504,-3.5504,-3.5504,-3.5504,-3.5504,-3.5504,-3.5504,-3.5504,-3.513,-3.3784,-3.3499,-3.3095,-3.1765,-3.1511,-3.1331,-3.0806,-3.0178,-2.9505,-2.8727,-2.756,-2.6542,-2.5884,-2.5202,-2.459,-2.4044,-2.331,-2.2823,-2.2703,-2.171,-2.1017,-2.0897,-2.0378,-2.0097,-2.0097,-1.9944,-1.9962,-2.0097,-1.9828,-1.9768,-1.9902,-1.9768,-1.9708,-1.9708,-1.9708,-1.9708,-3.1341,-3.0978,-3.1453,-3.4481,-3.4861,-3.6197,0.0,0.0,-4.0742,-4.3558,-4.3606,-4.3124,-4.3117,-4.3818,-4.458,-4.5111,-4.4794,-4.4873,-4.6022,-4.5185,-4.49,-4.613,-4.5783,-4.5888,-4.707,-4.6741,-4.6469,-4.6581,-4.7008,-4.7083,-4.6611,-4.5792,-4.5331,-4.544,-4.4043,-4.3369,-4.3488,-4.3444,-4.3409,-4.3409,-4.3409,-4.3409,-4.3409,-4.3319,-4.329,-4.326,-4.2641,-4.2036,-4.1324,-4.0591,-3.9948,-3.9388,-3.9388,-3.9388,-3.9388,-3.9388,-3.9035,-3.8497,-3.8422,-3.7599,-3.6582,-3.6507,-3.6043,-3.5504,-3.5504,-3.5504,-3.5504,-3.5504,-3.5504,-3.5504,-3.5504,-3.5504,-3.5504,-3.5504,-3.5504,-3.513,-3.3784,-3.3499,-3.3095,-3.1765,-3.1511,-3.1481,-3.1406,-3.0823,-2.9998,-2.8786,-2.7974,-2.7255,-2.6557,-2.5899,-2.5465,-2.5367,-2.4253,-2.3266,-2.2748,-2.2568,-2.2224,-2.162,-2.1515,-2.147,-2.147,-2.0902,-2.0872,-2.1455,-2.0322,-1.9989,-2.0583,-1.9989,-1.9708,-1.9708,-1.9708,-1.9708,-3.4967,-3.4689,0.0,0.0,-3.865,-4.0339,-4.2915,-4.3432,-4.3791,-4.5285,-4.5488,-4.5481,-4.5835,-4.5724,-4.5626,0.0,-4.5319,-4.508,-4.5648,-4.4586,-4.3917,-4.4471,-4.3658,-4.3838,-4.5933,-4.5888,-4.6109,-4.7119,-4.655,-4.6617,-4.7699,-4.6203,-4.5289,-4.5289,-4.4392,-4.3678,-4.329,-4.329,-4.3484,-4.3898,-4.3484,-4.3484,-4.3883,-4.3469,-4.329,-4.323,-4.2237,-4.1677,-4.1332,-4.0262,-3.9664,-3.9388,-3.9388,-3.9388,-3.9388,-3.9388,-3.923,-3.8931,-3.8527,-3.7793,-3.6971,-3.6596,-3.6043,-3.5504,-3.5504,-3.5504,-3.5504,-3.5504,-3.5504,-3.5504,-3.5504,-3.5504,-3.5504,-3.5504,-3.5504,-3.5235,-3.4309,-3.3769,-3.3215,-3.2258,-3.1765,-3.1511,-3.1511,-3.0928,-3.0328,-2.9789,-2.8831,-2.7809,-2.6746,-2.6348,-2.5884,-2.5098,-2.4515,-2.3924,-2.3287,-2.2897,-2.2583,-2.2298,-2.1924,-2.1695,-2.1695,-2.1425,-2.141,-2.1695,-2.1141,-2.0991,-2.1276,-2.0617,-2.0288,-2.0273,-1.9887,-1.9708,-3.6231,0.0,0.0,-3.8841,-4.1422,-4.3556,-4.3368,-4.4495,-4.5787,-4.6565,-4.6594,-4.6615,-4.6971,-4.6327,-4.5708,-4.5487,-4.508,-4.4811,-4.5005,-4.3733,-4.2826,-4.3045,-4.1743,-4.1654,-4.3748,-4.4436,-4.5408,-4.7012,-4.5984,-4.6052,-4.7748,-4.6059,-4.502,-4.502,-4.4392,-4.3768,-4.329,-4.329,-4.3529,-4.4032,-4.3529,-4.3544,-4.3992,-4.3514,-4.329,-4.323,-4.2147,-4.1587,-4.1294,-4.0157,-3.9589,-3.9388,-3.9388,-3.9388,-3.9388,-3.9388,-3.929,-3.9065,-3.8556,-3.7838,-3.709,-3.6626,-3.6043,-3.5504,-3.5504,-3.5504,-3.5504,-3.5504,-3.5504,-3.5504,-3.5504,-3.5504,-3.5504,-3.5504,-3.5504,-3.531,-3.4653,-3.3963,-3.3305,-3.2647,-3.1959,-3.1511,-3.1511,-3.1092,-3.0717,-3.0537,-2.9714,-2.8652,-2.732,-2.7001,-2.6363,-2.5023,-2.5038,-2.4822,-2.3954,-2.3475,-2.3152,-2.2957,-2.2488,-2.2218,-2.2218,-2.2054,-2.2039,-2.2218,-2.1874,-2.1784,-2.1964,-2.1306,-2.0991,-2.0957,-2.0288,-1.9974,0.0,0.0,-3.816,-3.938,-4.1901,-4.4575,-4.6417,-4.6686,-4.6956,-4.8422,-4.7422,-4.6139,-4.548,-4.4796,-4.4167,-4.3484,-4.3364,-4.3574,-4.4257,-4.2671,-4.1707,-4.2351,-4.0666,-3.9768,0.0,-4.2267,-4.3928,-4.5256,-4.5346,-4.5319,-4.5391,-4.4706,-4.4347,-4.4347,-4.3663,-4.3319,-4.329,-4.329,-4.3305,-4.3319,-4.3305,-4.3305,-4.3319,-4.3305,-4.329,-4.326,-4.2626,-4.2006,-4.1324,-4.0651,-3.9993,-3.9388,-3.9388,-3.9388,-3.9388,-3.9388,-3.899,-3.8422,-3.8407,-3.7569,-3.6507,-3.6492,-3.6043,-3.5504,-3.5504,-3.5504,-3.5504,-3.5504,-3.5504,-3.5504,-3.5504,-3.5504,-3.5504,-3.5504,-3.5504,-3.531,-3.4653,-3.3963,-3.3305,-3.2647,-3.1959,-3.1511,-3.1511,-3.1481,-3.1241,-3.0612,-3.0477,-2.9983,-2.8697,-2.7974,-2.7061,-2.5719,-2.6153,-2.6004,-2.4679,-2.456,-2.4261,-2.361,-2.355,-2.3535,-2.3535,-2.2987,-2.2942,-2.3535,-2.2323,-2.2009,-2.2658,-2.1994,-2.1665,-2.165,-2.0991,-2.0658,0.0,0.0,-4.0375,-4.2777,-4.4707,-4.6285,-4.7235,-4.7751,-4.7875,-4.7251,-4.5657,-4.4167,-4.3519,-4.2102,-4.1145,-4.1354,-4.1758,-4.2117,-4.2342,-4.2216,-4.1497,-3.994,-3.9933,0.0,0.0,0.0,0.0,-4.3828,-4.3947,-4.4377,-4.5244,-4.5095,-4.4766,-4.4332,-4.4526,-4.4212,-4.3305,-4.3723,-4.3947,-4.3947,-4.3947,-4.3708,-4.329,-4.329,-4.329,-4.326,-4.2641,-4.2276,-4.1991,-4.0846,-4.0277,-4.0023,-3.9553,-3.9388,-3.9388,-3.9388,-3.9275,-3.9005,-3.8542,-3.7823,-3.703,-3.6626,-3.6043,-3.5504,-3.5504,-3.5504,-3.5504,-3.5504,-3.5504,-3.5504,-3.5504,-3.5504,-3.5504,-3.5504,-3.5504,-3.5444,-3.5205,-3.4277,-3.3425,-3.3215,-3.2243,-3.1511,-3.1511,-3.1511,-3.1421,-3.1197,-3.0073,-2.9086,-2.8667,-2.8019,-2.727,-2.6363,-2.6452,-2.6063,-2.4709,-2.4605,-2.4306,-2.364,-2.4007,-2.4051,-2.3625,-2.3834,-2.3849,-2.3595,-2.3176,-2.3071,-2.3295,-2.2673,-2.2358,-2.2358,-2.168,-2.1365,-3.8154,-4.0409,-4.2505,-4.4747,-4.6287,-4.7291,-4.7497,-4.7762,-4.7413,-4.5593,-4.3688,-4.1908,-4.0554,-3.8646,-3.7599,-3.8497,-3.9005,-3.9694,-4.0876,-4.1018,-4.0613,-3.9574,-3.9589,0.0,0.0,0.0,0.0,-4.2851,-4.3379,-4.3943,-4.4556,-4.4811,-4.4751,-4.4332,-4.4721,-4.4541,-4.3648,-4.4067,-4.4197,-4.3958,-4.3958,-4.3708,-4.329,-4.329,-4.329,-4.326,-4.2641,-4.2396,-4.2306,-4.0935,-4.0397,-4.0337,-3.9679,-3.9388,-3.9388,-3.9388,-3.9388,-3.932,-3.8631,-3.7958,-3.73,-3.6686,-3.6043,-3.5504,-3.5504,-3.5504,-3.5504,-3.5504,-3.5504,-3.5504,-3.5504,-3.5504,-3.5504,-3.5504,-3.5504,-3.5504,-3.5504,-3.4637,-3.3844,-3.3844,-3.2976,-3.2198,-3.2198,-3.2004,-3.1854,-3.1854,-3.0402,-2.928,-2.928,-2.8697,-2.8064,-2.738,-2.7305,-2.6767,-2.5435,-2.5307,-2.5031,-2.4358,-2.4709,-2.4754,-2.4328,-2.45,-2.4395,-2.3984,-2.3729,-2.3595,-2.3595,-2.3212,-2.3032,-2.3017,-2.2373,-2.2074,-3.8712,-4.1477,-4.4447,-4.5388,-4.6636,-4.7589,-4.7254,-4.6666,-4.5547,-4.3469,-4.1444,-3.92,0.0,0.0,-3.3784,-3.513,-3.5519,-3.6761,-3.9948,-3.9349,-3.9275,0.0,0.0,0.0,0.0,0.0,0.0,-4.241,0.0,-4.4062,-4.3424,-4.4062,-4.4407,-4.4362,-4.4392,-4.4392,-4.4317,-4.4287,-4.3943,-4.329,-4.329,-4.329,-4.329,-4.329,-4.329,-4.326,-4.2641,-4.2396,-4.2306,-4.0935,-4.0397,-4.0337,-3.9679,-3.9388,-3.9388,-3.9343,-3.9364,-3.926,-3.8542,-3.7898,-3.73,-3.6686,-3.6043,-3.5504,-3.5504,-3.5504,-3.5504,-3.5504,-3.5504,-3.5504,-3.5504,-3.5504,-3.5504,-3.5504,-3.5504,-3.5504,-3.5504,-3.4966,-3.4503,-3.4503,-3.3948,-3.3484,-3.344,-3.2931,-3.2497,-3.2437,-3.1375,-3.0537,-3.0507,-2.9968,-2.934,-2.8727,-2.8622,-2.8068,-2.6752,-2.6617,-2.6303,-2.5644,-2.5621,-2.5644,-2.5615,-2.4993,-2.4649,-2.4605,-2.3954,-2.3595,-2.3595,-2.3595,-2.3595,-2.3595,-2.3017,-2.2748,-4.1883,-4.4171,-4.6153,-4.6942,-4.7282,-4.7126,-4.6077,-4.4915,-4.32,-4.0262,-3.6911,-3.3873,0.0,0.0,0.0,-3.3066,-3.5744,0.0,-4.0142,-4.095,0.0,0.0,0.0,-4.1818,-4.119,-4.2462,0.0,0.0,-4.4122,-4.4451,-4.4781,-4.5439,-4.5574,-4.5065,-4.5544,-4.5334,-4.4332,-4.3783,-4.3469,-4.329,-4.329,-4.329,-4.329,-4.329,-4.329,-4.326,-4.2641,-4.2396,-4.2306,-4.0935,-4.0397,-4.0337,-3.9679,-3.9388,-3.9328,-3.8841,-3.8646,-3.8482,-3.736,-3.7165,-3.73,-3.6686,-3.6043,-3.5504,-3.5504,-3.5504,-3.5504,-3.5504,-3.5504,-3.5504,-3.5504,-3.5504,-3.5504,-3.5504,-3.5504,-3.5504,-3.5504,-3.4966,-3.4503,-3.4503,-3.3948,-3.3335,-3.2841,-3.2617,-3.2318,-3.1824,-3.1466,-3.1062,-3.0567,-2.9968,-2.9547,-2.934,-2.8891,-2.8248,-2.742,-2.6896,-2.6303,-2.5644,-2.6078,-2.6123,-2.563,-2.545,-2.5113,-2.4619,-2.3954,-2.3595,-2.3595,-2.3595,-2.3595,-2.3595,-2.343,-2.337,-4.4011,-4.5792,-4.7136,-4.7435,-4.7181,-4.6367,-4.4451,-4.2761,-4.039,-3.6237,-3.2946,0.0,0.0,0.0,0.0,0.0,0.0,0.0,-3.8736,-4.0232,-4.1115,0.0,-4.2237,0.0,-4.2686,-4.3673,-4.4556,0.0,-4.52,-4.5214,-4.5289,-4.5948,-4.6142,-4.5753,-4.5828,-4.5364,-4.4332,-4.3618,-4.329,-4.329,-4.329,-4.329,-4.329,-4.329,-4.329,-4.3275,0.0,-4.2776,-4.2686,-4.1369,-4.0831,-4.0726,-3.9783,-3.9388,-3.9298,-3.8646,-3.8392,-3.8212,-3.6926,-3.6716,-3.6896,-3.6267,-3.5804,-3.5504,-3.5504,-3.5504,-3.5504,-3.5504,-3.5504,-3.5504,-3.5504,-3.5504,-3.5504,-3.5504,-3.5504,-3.5504,-3.5504,-3.519,-3.4921,-3.4921,-3.4637,-3.4262,-3.3888,-3.3574,-3.3155,-3.2497,-3.2123,-3.169,-3.1017,-3.0657,-3.0313,-3.0028,-2.9415,-2.8757,-2.8109,-2.7435,-2.6881,-2.6497,-2.6836,-2.6881,-2.6482,-2.6198,-2.5869,-2.5495,-2.4822,-2.4343,-2.4044,-2.4044,-2.3894,-2.3595,-2.3595,-2.3595,-4.5303,-4.6601,-4.7569,-4.7239,-4.6621,-4.5319,-4.2515,-4.0172,-3.7131,-3.1914,0.0,-2.7051,-2.4545,0.0,-2.5367,-2.8158,0.0,-3.305,-3.7105,-3.8751,-4.0247,-4.2171,-4.2545,-4.3144,-4.4332,-4.4526,-4.5053,-4.6324,-4.6414,-4.6202,-4.5589,-4.6127,-4.6414,-4.6414,-4.5783,-4.5155,-4.4586,-4.3798,-4.3424,-4.3424,-4.3334,-4.329,-4.329,-4.329,-4.3245,-4.317,-4.308,0.0,-4.2931,-4.1654,-4.1175,-4.113,-3.9903,-3.9388,-3.9334,-3.8542,-3.8257,-3.8078,-3.6806,-3.6357,-3.6267,-3.5684,-3.5504,-3.5504,-3.5504,-3.5504,-3.5504,-3.5504,-3.5504,-3.5504,-3.5504,-3.5504,-3.5504,-3.5504,-3.5504,-3.5504,-3.5504,-3.5504,-3.5504,-3.5504,-3.5504,-3.5474,-3.5385,-3.4876,-3.4279,-3.3589,-3.3006,-3.2378,-3.172,-3.1555,-3.1271,-3.0702,-3.0073,-2.9475,-2.8906,-2.8259,-2.7824,-2.7735,-2.7735,-2.769,-2.76,-2.6971,-2.6587,-2.6587,-2.5854,-2.5173,-2.4605,-2.4515,-2.4156,-2.3595,-2.3595,-2.3595,-4.5848,-4.6771,-4.7224,-4.6634,-4.5574,-4.3688,-3.9933,-3.6716,0.0,0.0,0.0,-2.3236,-2.166,-2.2697,0.0,-2.8068,0.0,0.0,0.0,0.0,-4.0756,0.0,0.0,0.0,0.0,0.0,0.0,0.0,0.0,-4.7085,-4.6965,-4.707,-4.713,-4.713,-4.6501,-4.6097,-4.5935,-4.4766,-4.4152,-4.4137,-4.3544,-4.329,-4.329,-4.329,-4.3045,-4.2545,-4.1953,0.0,-4.1624,-4.0307,-4.0083,-4.0502,-3.9723,-3.9388,-3.9275,-3.8033,-3.7584,-3.7404,-3.6118,-3.5669,-3.5654,-3.5549,-3.5504,-3.5504,-3.5504,-3.5504,-3.5504,-3.5504,-3.5504,-3.5504,-3.5504,-3.5504,-3.5504,-3.5504,-3.5504,-3.5504,-3.5504,-3.5504,-3.5504,-3.5504,-3.5504,-3.5325,-3.4788,-3.4593,-3.4279,-3.3589,-3.3395,-3.308,-3.2392,-3.1839,-3.1466,-3.1346,-3.0746,-3.0298,-3.0178,-2.9594,-2.9037,-2.8457,-2.8427,-2.8173,-2.7615,-2.6971,-2.6587,-2.6587,-2.5397,-2.4724,-2.4605,-2.4036,-2.3714,-2.3595,-2.3595,-2.3595,-4.5942,-4.68,-4.7145,-4.6486,-4.5009,-4.2596,-3.7943,0.0,0.0,0.0,0.0,-2.135,-2.0363,0.0,0.0,0.0,0.0,0.0,0.0,0.0,0.0,0.0,0.0,0.0,0.0,0.0,0.0,0.0,0.0,-4.7309,-4.7309,-4.7309,-4.7145,-4.68,-4.6486,-4.6157,-4.5783,-4.4811,-4.4317,-4.4302,-4.3604,-4.329,-4.329,-4.329,-4.3125,-4.2851,-4.2536,0.0,-4.2297,-4.098,-4.0621,-4.0816,-3.9813,-3.9388,-3.926,-3.7898,-3.7404,-3.7225,-3.5953,-3.5504,-3.5504,-3.5504,-3.5504,-3.5504,-3.5504,-3.5504,-3.5504,-3.5504,-3.5504,-3.5504,-3.5504,-3.5504,-3.5504,-3.5504,-3.5504,-3.5504,-3.5504,-3.5504,-3.5504,-3.5504,-3.5504,-3.54,-3.507,-3.5011,-3.4786,-3.4098,-3.4008,-3.3649,-3.2647,-3.2213,-3.1884,-3.154,-3.0883,-3.0507,-3.0507,-2.9939,-2.9472,-2.9131,-2.9116,-2.8801,-2.8154,-2.7799,-2.747,-2.7136,-2.6482,-2.5989,-2.5644,-2.4971,-2.4462,-2.4096,-2.3759,-2.3595,-4.5487,-4.6486,-4.6935,-4.6262,-4.4392,-4.1331,-3.6237,-3.2273,0.0,0.0,-2.141,-2.0318,-1.9813,0.0,0.0,0.0,0.0,0.0,0.0,0.0,0.0,0.0,0.0,0.0,0.0,0.0,0.0,0.0,0.0,0.0,-4.7309,-4.7309,-4.707,-4.6546,-4.6488,-4.6202,-4.5529,-4.4855,-4.4451,-4.4302,-4.3604,-4.329,-4.329,-4.329,-4.3215,-4.3135,-4.3135,0.0,0.0,-4.1863,-4.1422,-4.1265,-4.0083,-3.9544,-3.926,-3.7898,-3.7404,-3.7225,-3.5953,-3.5504,-3.5504,-3.5504,-3.5504,-3.5504,-3.5504,-3.5504,-3.5504,-3.5504,-3.5504,-3.5504,-3.5504,-3.5504,-3.5504,-3.5504,-3.5504,-3.5504,-3.5504,-3.5504,-3.5504,-3.5504,-3.5504,-3.5504,-3.5504,-3.5504,-3.5325,-3.4771,-3.4728,-3.4262,-3.308,-3.2931,-3.2677,-3.1989,-3.1182,-3.0717,-3.0717,-3.0283,-2.9939,-2.9789,-2.9774,-2.949,-2.8831,-2.8682,-2.8353,-2.7824,-2.7525,-2.7136,-2.6587,-2.5929,-2.5322,-2.4799,-2.4261,-2.3954,-4.4152,-4.5439,-4.6247,-4.5559,-4.3015,-3.9439,-3.4741,0.0,0.0,-2.2503,-2.0741,-1.9783,-1.9708,-1.9813,0.0,0.0,0.0,0.0,0.0,0.0,0.0,0.0,0.0,0.0,0.0,0.0,0.0,0.0,0.0,0.0,-4.7309,-4.7309,-4.7279,-4.7219,-4.7219,-4.6905,-4.619,-4.5544,-4.49,-4.4302,-4.3604,-4.329,-4.329,-4.329,-4.3015,-4.2485,-4.2485,0.0,0.0,-4.1707,-4.1422,-4.1347,-4.0591,-3.9948,-3.926,-3.7898,-3.7404,-3.7225,-3.5953,-3.5504,-3.5504,-3.5504,-3.5504,-3.5504,-3.5504,-3.5504,-3.5504,-3.5504,-3.5504,-3.5504,-3.5504,-3.5504,-3.5504,-3.5504,-3.5504,-3.5504,-3.5504,-3.5504,-3.5504,-3.5504,-3.5504,-3.5504,-3.5504,-3.5504,-3.5489,-3.5429,-3.5415,-3.513,-3.4429,-3.4324,-3.4038,-3.338,-3.2153,-3.1406,-3.1406,-3.1361,-3.1062,-3.0462,-3.0417,-3.0133,-2.9547,-2.8921,-2.8562,-2.8502,-2.7305,-2.6647,-2.6587,-2.5929,-2.557,-2.5501,-2.545,-2.5083,-4.2357,-4.4392,-4.5544,-4.487,-4.2536,-3.9185,-3.4547,0.0,0.0,-2.2383,-2.0636,-1.9708,-1.9708,-1.9708,-2.0052,0.0,0.0,0.0,0.0,0.0,0.0,0.0,0.0,0.0,0.0,0.0,0.0,0.0,0.0,0.0,-4.6711,-4.7085,-4.7309,-4.7309,-4.692,-4.6591,-4.6279,-4.5244,-4.4571,-4.4302,-4.3604,-4.329,-4.329,-4.329,-4.3155,-4.294,-4.294,0.0,0.0,-4.1692,-4.1145,-4.0726,-4.0068,-3.9394,-3.8676,-3.7764,-3.718,-3.6731,-3.5818,-3.5504,-3.5504,-3.5504,-3.5504,-3.5504,-3.5504,-3.5504,-3.5504,-3.5504,-3.5504,-3.5504,-3.5504,-3.5504,-3.5504,-3.5504,-3.5504,-3.5504,-3.5504,-3.5504,-3.5504,-3.5504,-3.5504,-3.5504,-3.5504,-3.5504,-3.5504,-3.5504,-3.5504,-3.525,-3.4593,-3.4503,-3.4249,-3.3559,-3.2677,-3.2093,-3.2093,-3.1735,-3.1391,-3.1122,-3.1092,-3.0821,-3.0163,-2.9894,-2.9385,-2.8607,-2.8068,-2.7615,-2.721,-2.6512,-2.6198,-2.6183,-2.5794,-2.5457,-3.9266,-4.2081,-4.3988,-4.3314,-4.104,-3.7838,0.0,0.0,-2.4881,-2.1994,-2.0501,-1.9708,-1.9708,-1.9708,-1.9708,-1.9708,0.0,-2.1081,0.0,0.0,0.0,0.0,0.0,0.0,0.0,0.0,0.0,0.0,0.0,0.0,0.0,-4.6576,-4.689,-4.7294,-4.6666,-4.6175,-4.6022,-4.4885,-4.4212,-4.4018,-4.3514,-4.329,-4.329,-4.329,-4.329,-4.329,-4.329,0.0,0.0,-4.2147,-4.1459,-4.0651,-4.0187,-3.9334,-3.8317,-3.7659,-3.7015,-3.6387,-3.5729,-3.5504,-3.5504,-3.5504,-3.5504,-3.5504,-3.5504,-3.5504,-3.5504,-3.5504,-3.5504,-3.5504,-3.5504,-3.5504,-3.5504,-3.5504,-3.5504,-3.5504,-3.5504,-3.5504,-3.5504,-3.5504,-3.5504,-3.5504,-3.5504,-3.5504,-3.5504,-3.5504,-3.5504,-3.5325,-3.4846,-3.4786,-3.4607,-3.4143,-3.3499,-3.2931,-3.2512,-3.1884,-3.1511,-3.1511,-3.1511,-3.1286,-3.0836,-3.0612,-3.0073,-2.9175,-2.8786,-2.8368,-2.7899,-2.7225,-2.6911,-2.6896,-2.6408,-2.6093,-3.4399,-3.7948,-4.1265,-4.0606,-3.7973,-3.4681,0.0,0.0,-2.3086,-2.1107,-2.0168,-1.9708,-1.9708,-1.9708,-1.9708,-1.9708,-2.0258,0.0,0.0,0.0,0.0,0.0,0.0,0.0,0.0,0.0,0.0,0.0,0.0,0.0,0.0,-4.5678,-4.5918,-4.7264,-4.6666,-4.5992,-4.5319,-4.4646,-4.3988,-4.3305,-4.329,-4.329,-4.329,-4.329,-4.329,0.0,0.0,0.0,0.0,-4.3275,-4.2536,-4.1407,-4.1369,-4.0142,-3.8317,-3.7659,-3.7015,-3.6387,-3.5729,-3.5504,-3.5504,-3.5504,-3.5504,-3.5504,-3.5504,-3.5504,-3.5504,-3.5504,-3.5504,-3.5504,-3.5504,-3.5504,-3.5504,-3.5504,-3.5504,-3.5504,-3.5504,-3.5504,-3.5504,-3.5504,-3.5504,-3.5504,-3.5504,-3.5504,-3.5504,-3.5504,-3.5504,-3.5504,-3.5489,-3.5489,-3.5489,-3.5489,-3.4861,-3.3918,-3.2617,-3.1884,-3.1511,-3.1511,-3.1511,-3.1511,-3.1496,-3.0838,-3.0492,-3.0477,-2.9235,-2.8607,-2.8592,-2.7929,-2.7585,-2.7585,-2.7585,-2.7225,-3.0462,-3.2856,-3.456,-3.4366,-3.2886,-3.0821,-2.8382,-2.5323,-2.2553,-2.1017,-2.0168,-1.9708,-1.9708,-1.9708,-1.9839,-2.0318,-2.0946,0.0,0.0,0.0,0.0,0.0,0.0,0.0,0.0,0.0,0.0,0.0,0.0,0.0,0.0,-4.4751,-4.502,-4.5903,-4.5289,-4.484,-4.4631,-4.3932,-4.3499,-4.329,-4.329,-4.329,-4.329,-4.329,-4.309,0.0,0.0,0.0,0.0,-4.1519,-4.1085,-4.0666,-4.0217,-3.9364,-3.8317,-3.7659,-3.7015,-3.6387,-3.5729,-3.5504,-3.5504,-3.5504,-3.5504,-3.5504,-3.5504,-3.5504,-3.5504,-3.5504,-3.5504,-3.5504,-3.5504,-3.5504,-3.5504,-3.5504,-3.5504,-3.5504,-3.5504,-3.5504,-3.5504,-3.5504,-3.5504,-3.5504,-3.5504,-3.5504,-3.5504,-3.5504,-3.5504,-3.5504,-3.5504,-3.5504,-3.5504,-3.5504,-3.4891,-3.4159,-3.326,-3.2557,-3.1989,-3.1525,-3.1511,-3.1511,-3.1511,-3.1301,-3.0957,-3.0507,-2.9699,-2.9056,-2.8607,-2.7929,-2.76,-2.76,-2.76,-2.724,0.0,-2.8846,-3.0345,-3.0103,-2.9056,0.0,0.0,-2.3625,-2.1635,-2.0557,-1.9989,-1.9708,-1.9708,-1.9708,-1.9842,-2.0258,-2.0887,0.0,0.0,0.0,0.0,0.0,0.0,0.0,0.0,0.0,0.0,0.0,0.0,0.0,0.0,-4.4077,-4.4122,-4.4541,-4.4407,-4.4317,-4.4317,-4.3618,-4.329,-4.329,-4.329,-4.317,-4.297,-4.297,-4.2611,0.0,0.0,0.0,0.0,-4.0935,-4.0621,-4.0367,-3.9948,-3.9065,-3.7973,-3.7554,-3.6866,-3.6058,-3.5654,-3.5504,-3.5504,-3.5504,-3.5504,-3.5504,-3.5504,-3.5504,-3.5504,-3.5504,-3.5504,-3.5504,-3.5504,-3.5504,-3.5504,-3.5504,-3.5504,-3.5504,-3.5504,-3.5504,-3.5504,-3.5504,-3.5504,-3.5504,-3.5504,-3.5504,-3.5504,-3.5504,-3.5504,-3.5504,-3.5504,-3.5504,-3.5504,-3.5504,-3.5115,-3.4465,-3.3433,-3.2839,-3.2303,-3.1899,-3.1353,-3.1161,-3.1368,-3.1176,-3.0866,-3.0438,-2.9876,-2.9385,-2.8966,-2.8049,-2.76,-2.76,-2.7306,-2.6956,0.0,0.0,0.0,0.0,0.0,0.0,0.0,-2.1934,0.0,-1.9842,-1.9708,-1.9708,-1.9768,-1.9738,-1.9753,-1.9887,0.0,0.0,0.0,0.0,0.0,0.0,0.0,0.0,0.0,0.0,0.0,0.0,0.0,0.0,0.0,-4.3618,-4.329,-4.329,-4.3888,-4.4242,-4.4242,-4.3604,-4.3275,-4.323,-4.323,-4.2925,-4.2336,-4.2336,-4.1976,0.0,0.0,0.0,0.0,-4.1265,-4.0905,-4.0397,-4.0352,-3.917,-3.7479,-3.7419,-3.6626,-3.5564,-3.5519,-3.5504,-3.5504,-3.5504,-3.5504,-3.5504,-3.5504,-3.5504,-3.5504,-3.5504,-3.5504,-3.5504,-3.5504,-3.5504,-3.5504,-3.5504,-3.5504,-3.5504,-3.5504,-3.5504,-3.5504,-3.5504,-3.5504,-3.5504,-3.5504,-3.5504,-3.5504,-3.5504,-3.5504,-3.5472,-3.5392,-3.5392,-3.5359,-3.5294,-3.5359,-3.4735,-3.3125,-3.2765,-3.2587,-3.2422,-3.1128,-3.0618,-3.1199,-3.0618,-3.0329,-3.0389,-2.9862,-2.9528,-2.9429,-2.8133,-2.7493,-2.7467,-2.6762,-2.6431,-2.0456,0.0,-2.1759,-2.161,-2.1325,-2.1011,0.0,-2.0262,-1.9902,-1.9738,0.0,0.0,-2.0378,-2.0049,0.0,0.0,0.0,0.0,0.0,0.0,0.0,0.0,0.0,0.0,0.0,0.0,0.0,0.0,0.0,0.0,0.0,-4.3379,-4.329,-4.329,-4.3439,-4.3529,-4.3529,-4.3364,-4.309,-4.262,-4.262,-4.2291,-4.1647,-4.1647,-4.125,0.0,0.0,0.0,-4.0591,-4.0083,-4.0083,-4.0352,-3.9843,-3.9035,-3.8093,-3.7599,-3.6926,-3.6178,-3.5684,-3.5504,-3.5504,-3.5504,-3.5504,-3.5504,-3.5504,-3.5504,-3.5504,-3.5504,-3.5504,-3.5504,-3.5504,-3.5504,-3.5504,-3.5504,-3.5504,-3.5504,-3.5504,-3.5504,-3.5504,-3.5504,-3.5504,-3.5504,-3.5504,-3.5504,-3.5504,-3.5504,-3.5504,-3.5213,-3.4461,-3.4361,-3.4075,-3.3359,-3.3925,-3.37,-3.2075,-3.3237,-3.3281,-3.1526,-3.1139,-3.1122,-3.1412,-3.0687,-3.0584,-3.1219,-2.9987,-2.88,-2.7606,-2.6891,-2.6526,-2.6526,-2.5924,-2.5646,-1.9708,-1.9708,-1.9708,-1.9708,-1.9708,-1.9708,-1.9708,0.0,0.0,0.0,0.0,0.0,0.0,0.0,0.0,0.0,0.0,0.0,0.0,0.0,0.0,0.0,0.0,0.0,0.0,0.0,0.0,0.0,0.0,0.0,0.0,-4.3045,-4.2895,-4.2895,-4.2596,-4.2581,-4.288,-4.2895,-4.2566,-4.1946,-4.1946,-4.1602,-4.0935,-4.0935,-4.0576,0.0,0.0,0.0,-3.9454,-3.9095,-3.9155,-3.9439,-3.908,-3.8542,-3.7898,-3.7539,-3.6821,-3.5983,-3.5624,-3.5504,-3.5504,-3.5504,-3.518,-3.4905,-3.5359,-3.518,-3.4905,-3.5359,-3.5504,-3.5504,-3.5504,-3.5504,-3.5504,-3.5504,-3.5504,-3.5504,-3.5504,-3.5504,-3.5504,-3.5504,-3.5504,-3.5504,-3.5504,-3.5504,-3.5504,-3.5504,-3.51,-3.4624,-3.4061,-3.3636,-3.3171,-3.2629,-3.3066,-3.2996,-3.2137,-3.3408,-3.3318,-3.1086,-3.0318,-3.0203,-3.0776,-2.9721,-2.9378,-2.9866,-2.9505,-2.8549,-2.7003,-2.6717,-2.6602,-2.6694,-2.6077,-2.5828,-1.9708,-1.9783,-1.9842,-1.9738,-1.9708,-1.9708,-1.9708,0.0,0.0,0.0,0.0,0.0,0.0,0.0,0.0,0.0,0.0,0.0,0.0,0.0,0.0,0.0,0.0,0.0,0.0,0.0,0.0,0.0,0.0,0.0,0.0,-4.2566,-4.2246,-4.2246,-4.1707,-4.1632,-4.2096,-4.2201,-4.1916,-4.1235,-4.113,-4.0726,-4.0098,-4.0098,-3.9738,-3.9089,0.0,0.0,-3.8242,-3.8242,-3.8242,-3.8242,-3.8242,-3.7838,-3.727,-3.727,-3.6522,-3.5504,-3.5504,-3.5392,-3.5279,-3.5279,-3.4591,-3.3959,-3.4953,-3.4691,-3.4211,-3.5213,-3.5504,-3.5504,-3.5504,-3.5504,-3.5504,-3.5504,-3.5504,-3.5504,-3.5504,-3.5504,-3.5504,-3.5504,-3.5504,-3.5504,-3.5504,-3.5504,-3.5439,-3.5279,-3.4543,-3.391,-3.3602,-3.289,-3.2321,-3.2177,-3.2285,-3.2393,-3.2393,-3.3136,-3.2762,-3.0849,-2.9686,-2.9301,-2.9841,-2.86,-2.7908,-2.7933,-2.8603,-2.8234,-2.6779,-2.6633,-2.6707,-2.6946,-2.6099,-2.5881,-1.9708,-2.0109,-2.0423,-1.9824,-1.9708,-1.9708,-1.9708,0.0,0.0,0.0,0.0,0.0,0.0,0.0,0.0,0.0,0.0,0.0,0.0,0.0,0.0,0.0,0.0,0.0,0.0,0.0,0.0,0.0,0.0,0.0,0.0,-4.1931,-4.1572,-4.1572,-4.1467,-4.116,-4.0711,-4.125,-4.1205,-4.0546,-3.9993,-3.9364,-3.8706,-3.8706,-3.8332,-3.7749,0.0,-3.8167,-3.7554,-3.7554,-3.7554,-3.7554,-3.7554,-3.718,-3.6626,-3.6626,-3.6148,-3.5504,-3.5504,-3.4953,-3.4245,-3.4245,-3.3602,-3.2996,-3.3959,-3.4129,-3.4211,-3.5213,-3.5504,-3.5504,-3.5504,-3.5504,-3.5504,-3.5504,-3.5504,-3.5504,-3.5504,-3.5504,-3.5504,-3.5504,-3.5504,-3.5504,-3.5504,-3.5504,-3.5213,-3.4361,-3.4095,-3.3415,-3.1815,-3.1499,-3.1119,-3.0317,-3.0945,-3.1426,-3.1426,-3.1536,-3.1292,-3.0508,-3.1207,-3.0888,-2.9214,-2.8917,-2.8483,-2.7768,-2.7437,-2.678,-2.581,-2.488,-2.4801,-2.5421,-2.4175,-2.3962,-1.9708,-1.9914,-2.0168,-2.0228,-2.0801,-2.122,-2.0861,0.0,0.0,0.0,0.0,0.0,0.0,0.0,0.0,0.0,0.0,0.0,0.0,0.0,0.0,0.0,0.0,0.0,0.0,0.0,0.0,0.0,0.0,0.0,0.0,0.0,-4.0846,-4.0846,-4.0142,-3.9619,-3.932,-3.926,-3.926,-3.932,-3.9005,-3.8512,-3.7853,-3.7853,-3.7689,-3.7419,0.0,-3.7494,-3.6911,-3.6911,-3.6911,-3.6911,-3.6911,-3.6731,-3.6447,-3.6088,-3.5433,-3.4691,-3.4691,-3.4041,-3.3345,-3.3842,-3.3345,-3.2784,-3.3705,-3.3671,-3.3345,-3.3788,-3.4706,-3.5504,-3.5504,-3.51,-3.4691,-3.4691,-3.4691,-3.4691,-3.4691,-3.5133,-3.5504,-3.5504,-3.5067,-3.4691,-3.4691,-3.4259,-3.3788,-3.331,-3.282,-3.2177,-3.1315,-3.0758,-3.0279,-2.9869,-3.0177,-3.0658,-3.1143,-3.1217,-3.0627,-2.9246,-2.9799,-2.944,-2.7743,-2.8524,-2.8395,-2.7061,-2.6942,-2.646,-2.5598,-2.482,-2.4816,-2.5524,-2.4896,-2.4882,-1.9663,-1.9813,-2.0019,-2.0378,0.0,-2.2059,-2.2323,0.0,0.0,0.0,0.0,0.0,0.0,0.0,0.0,0.0,0.0,0.0,0.0,0.0,0.0,0.0,0.0,0.0,0.0,0.0,0.0,0.0,0.0,0.0,0.0,0.0,-3.9498,-3.9261,-3.8307,-3.7857,-3.7857,-3.7555,-3.7659,-3.8153,-3.8018,-3.7689,-3.7195,-3.7195,-3.7105,-3.6971,-3.712,-3.6836,-3.6252,-3.6252,-3.6252,-3.6252,-3.6252,-3.6104,-3.5848,-3.5358,-3.4658,-3.3993,-3.3739,-3.3206,-3.2664,-3.3171,-3.2713,-3.2105,-3.3066,-3.2855,-3.2321,-3.2522,-3.3685,-3.482,-3.482,-3.4259,-3.3739,-3.3959,-3.3993,-3.4061,-3.4279,-3.4953,-3.5439,-3.518,-3.4543,-3.391,-3.3705,-3.3066,-3.2522,-3.2321,-3.1669,-3.1106,-3.0895,-3.0241,-2.9792,-2.9792,-2.9792,-3.0113,-3.0796,-3.1068,-3.0353,-2.8397,-2.8562,-2.8156,-2.6841,-2.7835,-2.7802,-2.6521,-2.6574,-2.6265,-2.5598,-2.5071,-2.5199,-2.5906,-2.5733,-2.5805,-1.9528,-2.0154,-2.0498,-1.9932,-1.9842,0.0,-2.3708,-2.3977,0.0,-2.6806,0.0,0.0,0.0,0.0,0.0,0.0,0.0,0.0,0.0,0.0,0.0,0.0,0.0,0.0,0.0,0.0,0.0,0.0,0.0,0.0,0.0,0.0,0.0,-3.5788,-3.6039,-3.6165,-3.6165,-3.6976,-3.7434,-3.7479,-3.6896,-3.6596,-3.6552,-3.6552,-3.6222,-3.5669,-3.6282,-3.6178,-3.5579,-3.5579,-3.5579,-3.5579,-3.5579,-3.5012,-3.4153,-3.4109,-3.4061,-3.3876,-3.2996,-3.2664,-3.2464,-3.1669,-3.0771,-3.0177,-3.1119,-3.1352,-3.1499,-3.2357,-3.2713,-3.282,-3.282,-3.2749,-3.2925,-3.3774,-3.3993,-3.4245,-3.518,-3.5439,-3.5213,-3.4279,-3.4061,-3.3705,-3.2855,-3.2629,-3.2321,-3.1426,-3.1254,-3.0908,-2.9998,-2.983,-2.9792,-2.9792,-2.9792,-2.983,-2.9895,-3.0696,-3.0522,-2.8938,-2.9194,-2.8897,-2.7643,-2.7007,-2.6624,-2.6499,-2.5954,-2.5652,-2.5598,-2.5071,-2.5199,-2.5875,-2.5199,-2.5256,-1.9633,-2.0183,-2.0643,-2.0393,-2.0318,0.0,0.0,-2.5477,-2.6266,-2.8267,0.0,0.0,0.0,0.0,0.0,0.0,0.0,0.0,0.0,0.0,0.0,0.0,0.0,0.0,0.0,0.0,0.0,0.0,0.0,0.0,0.0,0.0,0.0,-3.6663,-3.5832,-3.5703,-3.6315,-3.625,-3.6222,-3.6222,-3.6402,-3.6267,-3.5878,-3.5878,-3.5744,-3.5487,-3.5104,-3.5174,-3.5439,-3.4839,-3.4953,-3.5504,-3.5504,-3.4872,-3.3993,-3.3993,-3.3276,-3.2213,-3.1852,-3.1328,-3.0884,-3.1119,-3.097,-3.0733,-3.1068,-3.1217,-3.1143,-3.0921,-3.0846,-3.1132,-3.2285,-3.2177,-3.196,-3.2925,-3.2664,-3.2522,-3.3498,-3.3685,-3.3581,-3.3206,-3.2664,-3.2141,-3.1779,-3.1267,-3.0746,-3.0381,-3.0317,-3.0216,-2.9869,-2.9792,-2.9792,-2.9792,-2.9792,-2.9792,-2.9792,-3.0139,-2.9923,-2.8963,-2.8716,-2.827,-2.7489,-2.6835,-2.6499,-2.6499,-2.5921,-2.5598,-2.5598,-2.5071,-2.51,-2.5716,-2.5416,-2.5272,-1.9333,-1.972,-2.0124,-2.0333,0.0,0.0,-2.5276,-2.6431,-2.7385,0.0,0.0,0.0,0.0,0.0,0.0,0.0,0.0,0.0,0.0,0.0,0.0,0.0,0.0,0.0,0.0,0.0,0.0,0.0,0.0,0.0,0.0,0.0,0.0,0.0,-3.5181,-3.5,-3.5684,-3.5583,-3.5504,-3.5504,-3.5968,-3.5938,-3.5504,-3.5504,-3.5326,-3.4986,-3.4279,-3.4211,-3.4558,-3.4177,-3.4576,-3.5472,-3.5133,-3.4442,-3.3518,-3.3241,-3.2321,-3.1143,-3.0871,-3.052,-3.0317,-3.0658,-3.0758,-3.0758,-3.0758,-3.0758,-3.062,-2.9972,-2.9792,-3.0113,-3.1378,-3.123,-3.097,-3.1924,-3.1669,-3.1462,-3.2393,-3.2593,-3.25,-3.2213,-3.1646,-3.1106,-3.0796,-3.0241,-2.9792,-2.9792,-2.9792,-2.9792,-2.9792,-2.9792,-2.9792,-2.9792,-2.9792,-2.9792,-2.9792,-2.9792,-2.9616,-2.9227,-2.8674,-2.8047,-2.7318,-2.6952,-2.6675,-2.6499,-2.6097,-2.5875,-2.5862,-2.5511,-2.5523,-2.5875,-2.5875,-2.5586,-1.8538,-1.87,-1.8882,0.0,0.0,0.0,-2.6204,-2.6603,-2.7258,0.0,0.0,0.0,0.0,0.0,0.0,0.0,0.0,0.0,0.0,0.0,0.0,0.0,0.0,0.0,0.0,0.0,0.0,0.0,0.0,0.0,0.0,0.0,0.0,-3.3381,-3.3775,-3.3993,-3.3993,-3.4986,-3.5504,-3.5504,-3.5504,-3.5504,-3.5504,-3.5504,-3.4953,-3.3993,-3.3993,-3.3449,-3.2713,-3.3636,-3.461,-3.5392,-3.4394,-3.3415,-3.2464,-3.1536,-3.118,-3.1044,-3.0101,-3.0419,-3.1044,-3.0113,-2.9792,-2.9792,-2.9792,-2.9792,-2.9792,-2.9792,-2.9792,-2.9792,-2.9792,-2.9792,-3.0037,-3.097,-3.118,-3.1426,-3.2393,-3.2558,-3.2321,-3.1352,-3.118,-3.0895,-2.9972,-2.9792,-2.9792,-2.9792,-2.9792,-2.9792,-2.9792,-2.9792,-2.9792,-2.9792,-2.9792,-2.9792,-2.9792,-2.9792,-2.9792,-2.9792,-2.9252,-2.8448,-2.7379,-2.7329,-2.7065,-2.6512,-2.6499,-2.6499,-2.6499,-2.6499,-2.6499,-2.6499,-2.6499,-2.6185,-1.9346,-1.9465,0.0,0.0,0.0,0.0,0.0,0.0,0.0,0.0,0.0,0.0,0.0,0.0,0.0,0.0,0.0,0.0,0.0,0.0,0.0,0.0,0.0,0.0,0.0,0.0,0.0,0.0,0.0,0.0,0.0,0.0,0.0,-3.2833,-3.2295,-3.2664,-3.3993,-3.4279,-3.4806,-3.5504,-3.5504,-3.5504,-3.5472,-3.4758,-3.4279,-3.3959,-3.331,-3.3241,-3.3671,-3.4658,-3.4806,-3.4428,-3.4129,-3.3031,-3.1573,-3.1278,-3.0758,-3.0177,-2.9895,-2.996,-3.0177,-2.9895,-2.9792,-2.9792,-2.9792,-2.9792,-2.9792,-2.9792,-2.9792,-2.9792,-2.9792,-2.9792,-3.0037,-3.097,-3.0696,-3.0457,-3.1389,-3.1095,-3.057,-3.0279,-3.0216,-3.0139,-2.9869,-2.9792,-2.9792,-2.9792,-2.9792,-2.9792,-2.9792,-2.9792,-2.9792,-2.9792,-2.9792,-2.9792,-2.9792,-2.9792,-2.9792,-2.9792,-2.9628,-2.9202,-2.8473,-2.7695,-2.7241,-2.7077,-2.6688,-2.6499,-2.6499,-2.6499,-2.6499,-2.6499,-2.6499,-2.5984,-1.8655,0.0,0.0,0.0,0.0,0.0,0.0,0.0,0.0,0.0,0.0,0.0,0.0,0.0,0.0,0.0,0.0,0.0,0.0,0.0,0.0,0.0,0.0,0.0,0.0,0.0,0.0,0.0,0.0,0.0,0.0,0.0,-3.1646,-3.2558,-3.2069,-3.25,-3.3993,-3.3748,-3.413,-3.51,-3.4831,-3.4711,-3.4694,-3.4636,-3.4177,-3.338,-3.2464,-3.2558,-3.3449,-3.3699,-3.3856,-3.391,-3.3171,-3.2213,-3.1143,-3.0758,-3.0279,-2.9792,-2.9792,-2.9792,-2.9792,-2.9792,-2.9792,-2.9792,-2.9792,-2.9792,-2.9792,-2.9792,-2.9792,-2.9792,-2.9792,-2.9792,-2.9934,-3.052,-3.0482,-3.0419,-3.0582,-3.0482,-3.0241,-2.9856,-2.9792,-2.9792,-2.9792,-2.9792,-2.9792,-2.9792,-2.9792,-2.9792,-2.9792,-2.9792,-2.9792,-2.9792,-2.9792,-2.9792,-2.9792,-2.9792,-2.9792,-2.9792,-2.9792,-2.9528,-2.8913,-2.8084,-2.7406,-2.7002,-2.6663,-2.6499,-2.6499,-2.6499,-2.6499,-2.6499,-2.6499,-2.6021,-1.7199,0.0,0.0,0.0,0.0,0.0,0.0,0.0,0.0,0.0,0.0,0.0,0.0,0.0,0.0,0.0,0.0,0.0,0.0,0.0,0.0,0.0,0.0,0.0,0.0,0.0,0.0,0.0,0.0,0.0,0.0,0.0,-3.1356,-3.2157,-3.2193,-3.2688,-3.3704,-3.3174,-3.3409,-3.4414,-3.3784,-3.3454,-3.3391,-3.4629,-3.4196,-3.2453,-3.1529,-3.1702,-3.2522,-3.1669,-3.2285,-3.3602,-3.1852,-3.1103,-3.0891,-3.0088,-2.9767,-2.9729,-2.9779,-2.9792,-2.9792,-2.9792,-2.9792,-2.9792,-2.9792,-2.9792,-2.9792,-2.9792,-2.9792,-2.9792,-2.9792,-2.9792,-2.9792,-2.9792,-3.052,-3.097,-3.0101,-3.0595,-3.0932,-2.996,-2.9792,-2.9792,-2.9792,-2.9792,-2.9792,-2.9792,-2.9792,-2.9792,-2.9792,-2.9792,-2.9792,-2.9792,-2.9792,-2.9792,-2.9792,-2.9792,-2.9792,-2.9792,-2.9792,-2.9515,-2.8838,-2.8373,-2.7607,-2.6587,-2.6512,-2.6499,-2.6499,-2.6499,-2.6499,-2.6499,-2.6499,-2.616,0.0,-1.7951,0.0,0.0,0.0,0.0,0.0,0.0,0.0,0.0,0.0,0.0,0.0,0.0,0.0,0.0,0.0,0.0,0.0,0.0,0.0,0.0,0.0,0.0,0.0,0.0,0.0,0.0,0.0,0.0,0.0,0.0,-2.9286,-2.9083,-2.9083,-2.9856,-3.1455,-3.1364,-3.2115,0.0,-3.3559,-3.3115,-3.2425,-3.2701,-3.2454,-3.1749,-3.094,-3.1339,-3.2558,-3.2393,-3.2105,-3.1742,-3.1352,-3.0472,-2.9441,-2.9693,-2.9503,-2.9176,-2.9641,-2.9792,-2.9792,-2.9792,-2.9792,-2.9792,-2.9792,-2.9792,-2.9792,-2.9792,-2.9792,-2.9792,-2.9792,-2.9792,-2.9792,-2.9792,-3.052,-3.1143,-3.0932,-3.1082,-3.0932,-2.996,-2.9792,-2.9792,-2.9792,-2.9792,-2.9792,-2.9792,-2.9792,-2.9792,-2.9792,-2.9792,-2.9792,-2.9792,-2.9792,-2.9792,-2.9792,-2.9792,-2.9792,-2.9792,-2.9792,-2.934,-2.8323,-2.8172,-2.7795,-2.7153,-2.6713,-2.6499,-2.6499,-2.6499,-2.6499,-2.6499,-2.6499,-2.5971,0.0,0.0,0.0,0.0,0.0,0.0,0.0,0.0,0.0,0.0,0.0,0.0,0.0,0.0,0.0,0.0,0.0,0.0,0.0,0.0,0.0,0.0,0.0,0.0,0.0,0.0,0.0,0.0,0.0,0.0,0.0,-2.8536,-2.8398,-2.8109,-2.8109,-2.8782,-3.0166,-3.0274,-3.083,-3.1821,-3.2315,-3.2092,-3.1231,-3.1403,-3.1146,-3.0556,-3.0162,-3.0406,-3.1086,-3.0637,-3.0421,-3.0349,-2.9902,-2.9233,-2.8574,-2.8875,-2.88,-2.8612,-2.9189,-2.9202,-2.9026,-2.9302,-2.9202,-2.9026,-2.9302,-2.9377,-2.944,-2.9716,-2.9792,-2.9792,-2.9792,-2.9792,-2.9895,-3.0343,-3.0833,-3.1068,-3.062,-3.0871,-3.0932,-2.996,-2.9792,-2.9792,-2.9792,-2.9792,-2.9792,-2.9792,-2.9792,-2.9792,-2.9792,-2.9792,-2.9792,-2.9792,-2.9792,-2.9792,-2.9792,-2.9792,-2.9792,-2.9792,-2.9792,-2.9402,-2.8536,-2.8247,-2.772,-2.6939,-2.6637,-2.6499,-2.6499,-2.6499,-2.6499,-2.6487,-2.621,-2.5921,0.0,0.0,0.0,0.0,0.0,0.0,0.0,0.0,0.0,0.0,0.0,0.0,0.0,0.0,0.0,0.0,0.0,0.0,0.0,0.0,0.0,0.0,0.0,0.0,0.0,0.0,0.0,0.0,0.0,0.0,-2.7971,-2.7959,-2.7921,-2.7821,-2.7821,-2.8211,-2.9037,-2.9352,-2.9573,-2.975,-3.0673,-3.066,-2.9856,-3.0136,-2.9909,-2.9328,-2.9166,-2.9162,-2.9183,-2.8411,-2.8543,-2.9183,-2.8411,-2.8047,-2.7971,-2.8072,-2.8047,-2.8047,-2.8599,-2.8486,-2.8185,-2.8599,-2.8499,-2.8335,-2.875,-2.8963,-2.9176,-2.9654,-2.9792,-2.9792,-2.9792,-2.9792,-2.9998,-3.0758,-3.097,-3.0796,-3.0177,-3.0658,-3.0932,-2.996,-2.9792,-2.9792,-2.9792,-2.9792,-2.9792,-2.9792,-2.9792,-2.9792,-2.9792,-2.9792,-2.9792,-2.9792,-2.9792,-2.9792,-2.9792,-2.9792,-2.9792,-2.9792,-2.9792,-2.9528,-2.8913,-2.8449,-2.777,-2.6801,-2.6587,-2.6549,-2.6637,-2.6549,-2.6449,-2.6336,-2.5824,-2.5799,0.0,0.0,0.0,0.0,0.0,0.0,0.0,0.0,0.0,0.0,0.0,0.0,0.0,0.0,0.0,0.0,0.0,0.0,0.0,0.0,0.0,0.0,0.0,0.0,0.0,0.0,0.0,0.0,0.0,0.0,-2.7419,-2.7394,-2.7168,-2.6738,-2.6713,-2.6905,-2.7254,-2.7913,-2.8368,-2.8627,-2.9276,-2.9059,-2.8051,-2.808,-2.8291,-2.8605,-2.7908,-2.7873,-2.8279,-2.8133,-2.817,-2.8279,-2.8133,-2.7821,-2.7444,-2.7934,-2.7808,-2.7469,-2.8021,-2.816,-2.8109,-2.8185,-2.8449,-2.88,-2.8863,-2.9289,-2.9691,-2.9767,-2.9792,-2.9792,-2.9792,-2.9792,-2.983,-2.9972,-3.0011,-3.0177,-3.0871,-3.1106,-3.0932,-2.996,-2.9792,-2.9792,-2.9792,-2.9792,-2.9792,-2.9792,-2.9792,-2.9792,-2.9792,-2.9792,-2.9792,-2.9792,-2.9792,-2.9792,-2.9792,-2.9792,-2.9792,-2.9792,-2.9792,-2.9528,-2.8913,-2.8813,-2.8524,-2.7896,-2.6977,-2.6738,-2.7168,-2.6725,-2.6235,-2.5711,-2.5636,-2.5398,0.0,0.0,0.0,0.0,0.0,0.0,0.0,0.0,0.0,0.0,0.0,0.0,0.0,0.0,0.0,0.0,0.0,0.0,0.0,0.0,0.0,0.0,0.0,0.0,0.0,0.0,0.0,0.0,0.0,-2.6163,-2.5912,-2.5912,-2.5787,-2.5548,-2.5548,-2.5608,-2.573,-2.6937,-2.801,-2.8901,-2.7755,-2.724,-2.7248,-2.6738,-2.6848,-2.7353,-2.7012,-2.7002,-2.718,-2.718,-2.718,-2.718,-2.718,-2.7065,-2.6889,-2.7128,-2.7065,-2.6939,-2.7457,-2.7444,-2.7231,-2.7544,-2.7808,-2.8009,-2.8009,-2.8398,-2.8913,-2.9214,-2.9315,-2.939,-2.9704,-2.9792,-2.9792,-2.9792,-2.9792,-2.9895,-3.0317,-3.0419,-3.0279,-2.9895,-2.9792,-2.9792,-2.9792,-2.9792,-2.9792,-2.9792,-2.9792,-2.9792,-2.9792,-2.9792,-2.9792,-2.9792,-2.9792,-2.9792,-2.9792,-2.9792,-2.9792,-2.9792,-2.9792,-2.9679,-2.9428,-2.9063,-2.8925,-2.9051,-2.7681,-2.7077,-2.7281,-2.6763,-2.6197,-2.5598,-2.5598,-2.5322,0.0,0.0,0.0,0.0,0.0,0.0,0.0,0.0,0.0,0.0,0.0,0.0,0.0,0.0,0.0,0.0,0.0,0.0,0.0,0.0,0.0,0.0,0.0,0.0,0.0,0.0,0.0,0.0,0.0,-2.4788,-2.4788,-2.4788,-2.4788,-2.4788,-2.4788,-2.4725,-2.4587,-2.5851,-2.7071,-2.8216,-2.6354,-2.5788,-2.6348,-2.5681,-2.5636,-2.6084,-2.6223,-2.6361,-2.6499,-2.6499,-2.6499,-2.6499,-2.6499,-2.6499,-2.6499,-2.6499,-2.6499,-2.6549,-2.6964,-2.6839,-2.6562,-2.6977,-2.7203,-2.7281,-2.7281,-2.777,-2.8398,-2.8775,-2.8888,-2.9026,-2.9641,-2.9679,-2.9616,-2.9754,-2.9792,-2.9792,-2.9792,-2.9792,-2.9792,-2.9792,-2.9792,-2.9792,-2.9792,-2.9792,-2.9792,-2.9792,-2.9792,-2.9792,-2.9792,-2.9792,-2.9792,-2.9792,-2.9792,-2.9792,-2.9792,-2.9792,-2.9792,-2.9792,-2.9792,-2.9792,-2.9792,-2.9239,-2.9101,-2.9566,-2.8072,-2.7392,-2.7494,-2.6839,-2.6197,-2.5598,-2.546,-2.5197,0.0,0.0,0.0,0.0,0.0,0.0,0.0,0.0,0.0,0.0,0.0,0.0,0.0,0.0,0.0,0.0,0.0,0.0,0.0,0.0,0.0,0.0,0.0,0.0,0.0,0.0,0.0,0.0,0.0,-2.4788,-2.4788,-2.4788,-2.4788,-2.4788,-2.4788,-2.4569,-2.4054,-2.432,-2.475,-2.5332,-2.5182,-2.5055,-2.489,-2.4858,-2.485,-2.4933,-2.5423,-2.5984,-2.6499,-2.6499,-2.6499,-2.6499,-2.6499,-2.6499,-2.6499,-2.6499,-2.6499,-2.6499,-2.6524,-2.6512,-2.6499,-2.6524,-2.6889,-2.7281,-2.7281,-2.8034,-2.885,-2.8888,-2.8888,-2.9026,-2.9641,-2.939,-2.9076,-2.9666,-2.9792,-2.9792,-2.9792,-2.9792,-2.9792,-2.9792,-2.9792,-2.9792,-2.9792,-2.9792,-2.9792,-2.9792,-2.9792,-2.9792,-2.9792,-2.9792,-2.9792,-2.9792,-2.9792,-2.9792,-2.9792,-2.9792,-2.9792,-2.9792,-2.9792,-2.9792,-2.9792,-2.9239,-2.89,-2.8938,-2.7858,-2.7544,-2.8059,-2.7014,-2.6197,-2.5586,-2.5096,-2.4813,0.0,0.0,0.0,0.0,0.0,0.0,0.0,0.0,0.0,0.0,0.0,0.0,0.0,0.0,0.0,0.0,0.0,0.0,0.0,0.0,0.0,0.0,0.0,0.0,0.0,0.0,0.0,0.0,0.0,0.0,-2.3684,-2.3371,-2.3213,-2.3213,-2.3213,-2.3175,-2.3093,-2.3032,-2.3538,-2.458,-2.4464,-2.436,-2.4293,-2.4293,-2.4293,-2.4305,-2.4494,-2.4883,-2.541,-2.541,-2.541,-2.541,-2.541,-2.541,-2.5448,-2.5787,-2.59,-2.5996,-2.6361,-2.6499,-2.6499,-2.6499,-2.6864,-2.7253,-2.6901,-2.7316,-2.7871,-2.7871,-2.7871,-2.7996,-2.8561,-2.8812,-2.9038,-2.9654,-2.9792,-2.9792,-2.9792,-2.9792,-2.9792,-2.9792,-2.9792,-2.9792,-2.9792,-2.9792,-2.9792,-2.9792,-2.9792,-2.9792,-2.9792,-2.9792,-2.9792,-2.9792,-2.9792,-2.9792,-2.9792,-2.9792,-2.9792,-2.9792,-2.9792,-2.9792,-2.9792,-2.9591,-2.9315,-2.89,-2.8197,-2.7733,-2.757,-2.6487,-2.5799,-2.5586,-2.5059,-2.4632,0.0,0.0,0.0,0.0,0.0,0.0,0.0,0.0,0.0,0.0,0.0,0.0,0.0,0.0,0.0,0.0,0.0,0.0,0.0,0.0,0.0,0.0,0.0,0.0,0.0,0.0,0.0,0.0,0.0,0.0,-2.2531,-2.2234,-2.2033,-2.2033,-2.2033,-2.2099,-2.2213,-2.2087,-2.2556,-2.3628,-2.3318,-2.3351,-2.3703,-2.3514,-2.354,-2.3703,-2.3703,-2.413,-2.4788,-2.4788,-2.4788,-2.4788,-2.4788,-2.4888,-2.5121,-2.5473,-2.5724,-2.5971,-2.6361,-2.6499,-2.6499,-2.6499,-2.6738,-2.6964,-2.6612,-2.6876,-2.7281,-2.7281,-2.7281,-2.7406,-2.7959,-2.8373,-2.8712,-2.9126,-2.9227,-2.9227,-2.9227,-2.9528,-2.9792,-2.9792,-2.9792,-2.9792,-2.9792,-2.9792,-2.9792,-2.9792,-2.9792,-2.9792,-2.9792,-2.9792,-2.9792,-2.9792,-2.9792,-2.9792,-2.9792,-2.9792,-2.9792,-2.9792,-2.9792,-2.9792,-2.9792,-2.9428,-2.9051,-2.8624,-2.7921,-2.7369,-2.704,-2.605,-2.5598,-2.5573,-2.487,-2.4211,0.0,0.0,0.0,0.0,0.0,0.0,0.0,0.0,0.0,0.0,0.0,0.0,0.0,0.0,0.0,0.0,0.0,0.0,0.0,0.0,0.0,0.0,0.0,0.0,0.0,0.0,0.0,0.0,0.0,-2.1468,-2.1493,-2.1468,-2.1496,-2.1496,-2.1443,-2.1443,-2.1443,-2.1455,-2.1732,-2.2259,-2.1732,-2.2046,-2.3045,-2.2506,-2.2556,-2.3058,-2.307,-2.3697,-2.4713,-2.4725,-2.4738,-2.4738,-2.4738,-2.5084,-2.5523,-2.5561,-2.5971,-2.6449,-2.6487,-2.6499,-2.6499,-2.6499,-2.6499,-2.6499,-2.6499,-2.6864,-2.7291,-2.7291,-2.7291,-2.7381,-2.7946,-2.8097,-2.8109,-2.8109,-2.8122,-2.8122,-2.8109,-2.8976,-2.9767,-2.9741,-2.9767,-2.9779,-2.9767,-2.9779,-2.9779,-2.9767,-2.9767,-2.9767,-2.9767,-2.9767,-2.9779,-2.9792,-2.9792,-2.9792,-2.9792,-2.9792,-2.9792,-2.9792,-2.9792,-2.9779,-2.9767,-2.8712,-2.8109,-2.8084,-2.7065,-2.6512,-2.6499,-2.5862,-2.5586,-2.5598,-2.4519,-2.3703,-1.5521,0.0,0.0,0.0,0.0,0.0,0.0,0.0,0.0,0.0,0.0,0.0,0.0,0.0,0.0,0.0,0.0,0.0,0.0,0.0,0.0,0.0,0.0,0.0,0.0,0.0,0.0,0.0,-2.1144,-2.1094,-2.1496,-2.1131,-2.0918,-2.0918,-2.0489,-2.0263,-2.0263,-2.0704,-2.0993,-2.1157,-2.1408,-2.1644,-2.1945,-2.1782,-2.1794,-2.197,-2.2343,-2.2694,-2.3007,-2.3409,-2.3572,-2.3572,-2.3572,-2.3659,-2.3885,-2.4732,-2.5146,-2.5385,-2.6223,-2.6499,-2.6499,-2.6499,-2.6499,-2.6499,-2.6499,-2.66,-2.6725,-2.6725,-2.6725,-2.6851,-2.7369,-2.7808,-2.8109,-2.8109,-2.8411,-2.8549,-2.8185,-2.8662,-2.9051,-2.8649,-2.9239,-2.9666,-2.9239,-2.9515,-2.9654,-2.9189,-2.9126,-2.9126,-2.9126,-2.9126,-2.9327,-2.9741,-2.9792,-2.9792,-2.9792,-2.9792,-2.9792,-2.9792,-2.9792,-2.9603,-2.9189,-2.8863,-2.8323,-2.7532,-2.7241,-2.6889,-2.6499,-2.5498,-2.5448,-2.6223,-2.5109,-2.4036,0.0,0.0,0.0,0.0,0.0,0.0,-1.6233,-1.6337,0.0,0.0,0.0,0.0,0.0,0.0,0.0,0.0,0.0,0.0,0.0,0.0,0.0,0.0,0.0,0.0,0.0,0.0,0.0,-2.0476,-2.0363,-2.0465,-2.0765,-2.0275,-2.0075,-2.0327,-1.9974,-1.9798,-1.9798,-2.0137,-2.0453,-2.0691,-2.0767,-2.1154,-2.182,-2.1355,-2.1518,-2.2184,-2.2272,-2.2447,-2.2656,-2.297,-2.3108,-2.3108,-2.3108,-2.3246,-2.3572,-2.4462,-2.4926,-2.5272,-2.6185,-2.6499,-2.6499,-2.6499,-2.6499,-2.6499,-2.6499,-2.6499,-2.6499,-2.6499,-2.6499,-2.6612,-2.7178,-2.7392,-2.7482,-2.7708,-2.7833,-2.7808,-2.7494,-2.8034,-2.8561,-2.8461,-2.9176,-2.9616,-2.8988,-2.9415,-2.9591,-2.8976,-2.8888,-2.8976,-2.9252,-2.9076,-2.9113,-2.9729,-2.9792,-2.9792,-2.9792,-2.9792,-2.9792,-2.9792,-2.9792,-2.9528,-2.8913,-2.8675,-2.8172,-2.7341,-2.709,-2.67,-2.6135,-2.5234,-2.4908,-2.5059,-2.4669,-2.396,0.0,0.0,0.0,0.0,0.0,0.0,-1.5695,-1.6052,-1.6178,0.0,0.0,0.0,0.0,0.0,0.0,0.0,0.0,0.0,0.0,0.0,0.0,0.0,0.0,0.0,0.0,-1.9058,-1.9409,-1.8945,-1.9334,-1.9648,-1.971,-1.9196,-1.9171,-1.9786,-1.9748,-1.9748,-1.9798,-1.9798,-2.0062,-2.0591,-2.0075,-2.0589,-2.1995,-2.1043,-2.1368,-2.2706,-2.2343,-2.2468,-2.2932,-2.3058,-2.3108,-2.3108,-2.3108,-2.3421,-2.3966,-2.4519,-2.5021,-2.5498,-2.6109,-2.6311,-2.6323,-2.6386,-2.6399,-2.6411,-2.6474,-2.6499,-2.6499,-2.6499,-2.6537,-2.6688,-2.7115,-2.6952,-2.6763,-2.714,-2.6901,-2.6562,-2.6512,-2.7281,-2.816,-2.8612,-2.9264,-2.9528,-2.8976,-2.9352,-2.9528,-2.8963,-2.8888,-2.9051,-2.9553,-2.9202,-2.9063,-2.9553,-2.9716,-2.9767,-2.9704,-2.9691,-2.9691,-2.9691,-2.9641,-2.9352,-2.8737,-2.8273,-2.7758,-2.7241,-2.6738,-2.621,-2.5598,-2.5197,-2.4362,-2.3208,-2.3816,-2.374,0.0,0.0,0.0,0.0,0.0,0.0,-1.5025,-1.5738,-1.6172,0.0,0.0,0.0,0.0,0.0,0.0,0.0,0.0,0.0,0.0,0.0,0.0,0.0,0.0,0.0,0.0,-1.8392,-1.848,-1.8367,-1.8455,-1.8706,-1.9133,-1.8656,-1.8807,-1.9773,-1.9371,-1.9359,-1.9798,-1.9798,-1.9861,-1.9962,-1.9861,-1.9974,-2.0288,-2.0062,-2.015,-2.0501,-2.1292,-2.1707,-2.1882,-2.2732,-2.3108,-2.3108,-2.3108,-2.317,-2.3346,-2.3954,-2.4217,-2.4393,-2.4946,-2.5146,-2.5209,-2.5636,-2.5774,-2.585,-2.6348,-2.6499,-2.6499,-2.6499,-2.6813,-2.7077,-2.6738,-2.7241,-2.7595,-2.6839,-2.6914,-2.704,-2.6587,-2.7014,-2.7469,-2.7582,-2.8411,-2.9026,-2.8913,-2.8988,-2.9026,-2.8913,-2.8888,-2.8775,-2.8473,-2.8725,-2.8762,-2.8473,-2.9252,-2.9603,-2.9139,-2.9063,-2.9063,-2.9063,-2.8687,-2.8185,-2.762,-2.7494,-2.718,-2.6663,-2.6549,-2.621,-2.5598,-2.5996,-2.5347,-2.3841,-2.4406,-2.4086,0.0,0.0,0.0,-1.4698,0.0,0.0,0.0,-1.5175,-1.5447,0.0,0.0,0.0,0.0,0.0,0.0,0.0,0.0,0.0,0.0,0.0,0.0,0.0,0.0,0.0,0.0,-1.7877,-1.8204,-1.8204,-1.7953,-1.8041,-1.8569,-1.8091,-1.8166,-1.8982,-1.8732,-1.8857,-1.9409,-1.9384,-1.9547,-1.9798,-1.9798,-1.9962,-2.0251,-1.9936,-2.0112,-2.0665,-2.0981,-2.1393,-2.1945,-2.2498,-2.2857,-2.3108,-2.3108,-2.3108,-2.317,-2.3791,-2.4004,-2.4079,-2.46,-2.4788,-2.4876,-2.5423,-2.5598,-2.5699,-2.6323,-2.6499,-2.6499,-2.6499,-2.6688,-2.6964,-2.7241,-2.7281,-2.7281,-2.7281,-2.7102,-2.6839,-2.6549,-2.6927,-2.7281,-2.7281,-2.772,-2.8197,-2.8461,-2.8712,-2.88,-2.8561,-2.8511,-2.8411,-2.8134,-2.8348,-2.8411,-2.8134,-2.8863,-2.9139,-2.8561,-2.8511,-2.8511,-2.8511,-2.826,-2.7858,-2.7306,-2.7281,-2.7052,-2.6499,-2.621,-2.5887,-2.5598,-2.5636,-2.5071,-2.4004,-2.428,-2.3923,0.0,0.0,0.0,0.0,0.0,-1.4502,0.0,0.0,0.0,-1.4622,0.0,0.0,0.0,0.0,0.0,0.0,0.0,0.0,0.0,0.0,0.0,0.0,0.0,0.0,0.0,-1.7315,-1.7877,-1.7877,-1.7463,-1.7463,-1.8016,-1.7513,-1.7513,-1.8179,-1.8204,-1.8417,-1.8845,-1.9045,-1.9309,-1.966,-1.9748,-2.0075,-2.0515,-2.0012,-2.03,-2.1142,-2.0842,-2.1194,-2.2008,-2.2221,-2.2543,-2.2957,-2.3058,-2.3108,-2.3158,-2.3665,-2.3841,-2.3891,-2.4311,-2.4537,-2.4713,-2.5272,-2.5586,-2.585,-2.6348,-2.6499,-2.6499,-2.6499,-2.6562,-2.6839,-2.7582,-2.7241,-2.6851,-2.7607,-2.714,-2.6499,-2.6499,-2.6851,-2.7165,-2.7165,-2.7165,-2.7331,-2.7996,-2.8386,-2.8499,-2.816,-2.8109,-2.8059,-2.7959,-2.8047,-2.8059,-2.7959,-2.8536,-2.8712,-2.8298,-2.816,-2.8109,-2.8109,-2.7908,-2.7595,-2.7178,-2.7165,-2.6952,-2.6499,-2.5921,-2.5598,-2.5598,-2.4971,-2.4431,-2.4004,-2.4004,-2.369,0.0,0.0,0.0,0.0,-1.3515,0.0,0.0,0.0,-1.4549,-1.4032,0.0,0.0,0.0,0.0,0.0,0.0,0.0,0.0,0.0,0.0,0.0,0.0,0.0,0.0,0.0,0.0,-1.6688,-1.6688,-1.6638,-1.6873,-1.7473,-1.6936,-1.7077,-1.8179,-1.8204,-1.8242,-1.8292,-1.9233,-1.951,-1.9096,-1.9572,-1.9836,-1.9899,-1.9823,-1.9874,-2.0024,-2.0503,-2.0767,-2.0955,-2.1907,-2.2347,-2.2447,-2.2907,-2.3108,-2.3108,-2.3183,-2.3195,-2.3208,-2.3271,-2.3634,-2.418,-2.4732,-2.5573,-2.6411,-2.6474,-2.6499,-2.6499,-2.6499,-2.6851,-2.714,-2.6776,-2.6952,-2.7128,-2.6763,-2.6587,-2.6499,-2.6499,-2.6549,-2.6587,-2.6587,-2.6587,-2.6927,-2.7921,-2.7758,-2.7607,-2.8047,-2.8109,-2.7934,-2.7444,-2.7808,-2.7921,-2.7431,-2.831,-2.8863,-2.88,-2.8386,-2.8109,-2.8109,-2.7216,-2.665,-2.6587,-2.6587,-2.6562,-2.6499,-2.5921,-2.5598,-2.5598,-2.4582,-2.4054,-2.4004,-2.4004,-2.369,0.0,0.0,0.0,0.0,0.0,0.0,0.0,0.0,-1.3671,0.0,0.0,0.0,0.0,0.0,0.0,0.0,0.0,0.0,0.0,0.0,0.0,0.0,0.0,0.0,0.0,0.0,0.0,0.0,-1.5856,-1.6145,-1.6405,-1.6471,-1.6713,-1.7212,-1.7202,-1.7539,-1.8191,-1.8656,-1.9083,-1.9459,-1.9698,-1.9798,-1.9798,-1.9798,-1.9798,-1.9811,-2.0062,-2.0377,-2.0729,-2.1194,-2.1732,-2.2305,-2.2543,-2.2832,-2.3108,-2.3108,-2.3108,-2.3108,-2.3108,-2.3258,-2.3609,-2.4499,-2.5561,-2.6499,-2.6499,-2.6499,-2.6499,-2.6499,-2.6663,-2.6864,-2.6952,-2.6901,-2.6864,-2.6952,-2.6725,-2.6499,-2.6499,-2.6499,-2.6499,-2.6499,-2.6499,-2.6738,-2.7494,-2.7708,-2.772,-2.7645,-2.7896,-2.7795,-2.6952,-2.7293,-2.7419,-2.6901,-2.7507,-2.7846,-2.7519,-2.7281,-2.719,-2.719,-2.6751,-2.6499,-2.6499,-2.6499,-2.6499,-2.6499,-2.5598,-2.5146,-2.5146,-2.401,-2.3471,-2.3471,-2.3471,-2.3333,-1.2905,0.0,0.0,0.0,0.0,0.0,0.0,0.0,0.0,0.0,0.0,0.0,0.0,0.0,0.0,0.0,0.0,0.0,0.0,0.0,0.0,0.0,0.0,0.0,0.0,0.0,0.0,-1.5148,-1.5349,-1.553,-1.568,-1.607,-1.6337,-1.6488,-1.6651,-1.7074,-1.7739,-1.8053,-1.8593,-1.9359,-1.9522,-1.966,-1.9798,-1.9798,-1.9798,-1.9798,-1.9798,-2.0037,-2.0465,-2.0629,-2.1257,-2.2096,-2.2246,-2.2619,-2.3108,-2.3108,-2.3108,-2.3108,-2.3108,-2.3308,-2.3735,-2.4687,-2.5686,-2.6499,-2.6499,-2.6499,-2.6499,-2.6499,-2.6499,-2.6587,-2.6989,-2.6788,-2.66,-2.7002,-2.6788,-2.6499,-2.6499,-2.6499,-2.6499,-2.6499,-2.6499,-2.6612,-2.7014,-2.7394,-2.757,-2.7318,-2.7494,-2.7369,-2.66,-2.6839,-2.7002,-2.6751,-2.7077,-2.718,-2.6964,-2.6801,-2.6663,-2.6499,-2.6499,-2.6499,-2.6499,-2.6499,-2.6499,-2.6499,-2.5523,-2.4938,-2.4788,-2.381,-2.3258,-2.3108,-2.3108,-2.3108,0.0,0.0,0.0,-1.2905,0.0,0.0,0.0,0.0,-1.2905,0.0,0.0,0.0,0.0,0.0,0.0,0.0,0.0,0.0,0.0,0.0,0.0,0.0,0.0,0.0,0.0,0.0,0.0,-1.5668,-1.5211,-1.5148,-1.5668,-1.5718,-1.5969,-1.6475,-1.7061,-1.7099,-1.655,-1.7652,-1.8229,-1.8267,-1.877,-1.9284,-1.9798,-1.9798,-1.9798,-1.9798,-1.9798,-1.9811,-1.9874,-2.0465,-2.1031,-2.1568,-2.2108,-2.2619,-2.3108,-2.3108,-2.3108,-2.3108,-2.3108,-2.3822,-2.4825,-2.5398,-2.5975,-2.6499,-2.6499,-2.6499,-2.6499,-2.6499,-2.6499,-2.6499,-2.6512,-2.6512,-2.6499,-2.6512,-2.6512,-2.6499,-2.6499,-2.6499,-2.6499,-2.6499,-2.6499,-2.6499,-2.6512,-2.6537,-2.6725,-2.7205,-2.6876,-2.6537,-2.6499,-2.6512,-2.6713,-2.7241,-2.7268,-2.7494,-2.8009,-2.7557,-2.7065,-2.6524,-2.6499,-2.6499,-2.6499,-2.6499,-2.6499,-2.6499,-2.5908,-2.5322,-2.4788,-2.4255,-2.3678,-2.3108,-2.3108,-2.3108,0.0,0.0,-1.2905,-1.2905,0.0,0.0,0.0,0.0,0.0,0.0,0.0,0.0,0.0,0.0,0.0,0.0,0.0,0.0,0.0,0.0,0.0,0.0,0.0,0.0,0.0,0.0,0.0,-1.4676,-1.4796,-1.4972,-1.516,-1.5844,-1.6158,-1.5982,-1.6522,-1.6898,-1.7087,-1.7463,-1.8028,-1.8719,-1.8907,-1.9271,-1.9798,-1.9421,-1.9447,-1.9786,-1.9409,-1.9459,-1.9823,-2.0012,-2.0666,-2.1506,-2.1694,-2.2334,-2.3108,-2.3108,-2.3108,-2.3108,-2.3108,-2.3609,-2.4368,-2.4908,-2.5448,-2.5996,-2.6386,-2.6499,-2.6499,-2.6499,-2.6499,-2.6499,-2.6499,-2.6499,-2.6499,-2.6499,-2.6499,-2.6499,-2.6499,-2.6499,-2.6499,-2.6499,-2.6499,-2.6612,-2.6977,-2.6738,-2.6562,-2.6738,-2.6927,-2.6901,-2.6549,-2.6499,-2.6562,-2.6751,-2.6776,-2.6851,-2.704,-2.6876,-2.6688,-2.6499,-2.6499,-2.6499,-2.6499,-2.6499,-2.6311,-2.59,-2.536,-2.482,-2.428,-2.3672,-2.3296,-2.3108,-2.3108,-2.3108,-1.2905,-1.2905,0.0,-1.2905,-1.2905,0.0,-1.2905,0.0,0.0,0.0,0.0,0.0,0.0,0.0,0.0,0.0,0.0,0.0,0.0,-1.6073,0.0,0.0,0.0,0.0,0.0,0.0,-1.4608,-1.4657,-1.4639,-1.479,0.0,0.0,-1.6137,-1.5994,-1.6333,-1.6697,-1.7074,-1.7074,-1.7539,-1.8418,-1.8418,-1.8819,-1.9484,-1.9158,-1.9284,-1.9786,-1.9421,-1.961,-2.0112,-2.0112,-2.0778,-2.1782,-2.1782,-2.2305,-2.3108,-2.3108,-2.3108,-2.3108,-2.3108,-2.3609,-2.4318,-2.4481,-2.5008,-2.5661,-2.6072,-2.6185,-2.6185,-2.6185,-2.6185,-2.6147,-2.5925,-2.6047,-2.6135,-2.5925,-2.621,-2.6436,-2.6235,-2.6348,-2.6499,-2.6499,-2.6499,-2.6612,-2.6964,-2.6738,-2.6562,-2.6763,-2.6927,-2.6901,-2.6537,-2.6499,-2.6499,-2.6499,-2.6499,-2.6499,-2.6499,-2.6499,-2.6499,-2.6499,-2.6499,-2.6499,-2.6499,-2.6499,-2.6411,-2.6201,-2.5473,-2.4921,-2.4569,-2.3816,-2.3308,-2.3108,-2.3108,-2.3108]}]]